     2              OBSERVATION DATA    G (GPS)             RINEX VERSION / TYPE
ASRINEXO V2.4.4 UX USGS 09-OCT-96 11:03                     PGM / RUN BY / DATE
Crustal Strain Project                                      COMMENT
U.S. Geological Survey, Menlo Park, California 94025        COMMENT
345 Middlefield Road, MS/977                                COMMENT
Contact: kwendt@isdmnl.wr.usgs.gov (Ph: 415-329-4866)       COMMENT
HI's are vertical to base of antenna                        COMMENT
a290                                                        MARKER NAME
CHS USGS                                                    OBSERVER / AGENCY
270 ASHTECH Z-XII3 1E86                                     REC # / TYPE / VERS
1027 ASH700228A NONE                                        ANT # / TYPE
 -2406697.0000 -4307427.0000  4030022.0000                  APPROX POSITION XYZ
        1.2624        0.0000        0.0000                  ANTENNA: DELTA H/E/N
     1     1                                                WAVELENGTH FACT L1/2
     5    C1    L1    L2    P1    P2                        # / TYPES OF OBSERV
    30                                                      INTERVAL
  1996     9    18    15    33   30.000000                  TIME OF FIRST OBS
                                                            END OF HEADER
 96  9 18 15 33 30.0000000  0  7 17  5  6 10 24 23 16
  22236718.292     -397445.99249   -291799.63849  22236717.2514   22236723.5784
  24175002.134      248541.79149    175510.02549  24175001.3454   24175008.5144
  20450556.247     -283563.85549   -210917.27949  20450556.2744   20450561.1294
  21979557.528      149500.40149    109717.08349  21979555.6704   21979562.3994
  24319016.107      194216.08749    144997.89449  24319013.3974   24319022.0104
  24555888.049     -540794.36049   -400891.02849  24555889.1624   24555895.8724
  22816148.228      205328.28349    154592.25849  22816147.7204   22816152.9554
 96  9 18 15 34  0.0000000  0  8 17  5  6 26 10 24 23 16
  22217027.885     -500918.63249   -372427.66449  22217026.7924   22217033.3114
  24189574.077      325117.73249    235179.51349  24189573.3874   24189580.0574
  20438245.770     -348256.08049   -261326.81049  20438245.7474   20438250.6704
  24449114.787     -229796.86749                  24449114.930    24449119.1484
  21985587.232      181188.35349    134408.97249  21985585.9064   21985592.5884
  24328247.809      242729.97049    182800.91849  24328245.3264   24328252.1454
  24528867.697     -682789.12649   -511536.26249  24528867.1594   24528874.8684
  22824712.434      250334.90649    189662.32649  22824711.6514   22824717.8624
 96  9 18 15 34 30.0000000  0  8 17  5  6 26 10 24 23 16
  22197203.895     -605093.42949   -453602.82049  22197202.9264   22197209.2914
  24203980.633      400823.65049    294171.03749  24203981.1134   24203986.4524
  20425826.065     -413522.24849   -312183.56649  20425825.8554   20425831.0264
  24426153.095     -439292.50849   -323809.23249  24426154.0354   24426160.7624
  21991527.868      212407.25349    158735.35949  21991526.5934   21991533.2374
  24337302.914      290318.21449    219882.64049  24337301.0374   24337310.0304
  24501686.057     -825630.21149   -622840.96349  24501686.0564   24501694.6314
  22833171.201      294786.36749    224299.81249  22833170.6554   22833176.8294
 96  9 18 15 35  0.0000000  0  8 17  5  6 26 10 24 23 16
  22177251.010     -709946.03749   -535306.13949  22177250.3594   22177256.6114
  24218227.593      475691.05449    352509.18849  24218227.4004   24218232.9924
  20413298.940     -479352.60749   -363479.95949  20413298.8774   20413304.0434
  24403033.011     -560793.00849   -418484.87149  24403033.7114   24403039.8064
  21997387.086      243197.66549    182727.85949  21997386.2164   21997392.6134
  24346182.218      336980.67249    256242.97449  24346179.8404   24346188.2744
  24474348.904     -969288.75049   -734782.62349  24474348.7014   24474355.8634
  22841526.815      338695.26649    258514.50249  22841526.1404   22841532.4844
 96  9 18 15 35 30.0000000  0  8 17  5  6 26 10 24 23 16
  22157180.748     -815415.29249   -617489.95349  22157179.5544   22157186.1574
  24232326.185      549779.05249    410240.04049  24232325.5004   24232332.1624
  20400674.118     -545696.45949   -415176.47849  20400674.0474   20400679.0164
  24379763.236     -683076.14449   -513770.37449  24379763.5514   24379770.2614
  22003176.868      273623.05249    206435.93649  22003176.0484   22003182.1034
  24354894.057      382762.57449    291917.11449  24354894.8074   24354902.2574
  24446869.129    -1113696.10349   -847307.79849  24446868.5854   24446875.5054
  22849790.176      382119.46649    292351.52849  22849789.6504   22849795.4264
 96  9 18 15 36  0.0000000  0  9 17  5  6 28 26 10 24 23 16
  22137011.627     -921404.37749   -700078.84349  22137010.8364   22137017.1894
  24246294.221      623181.05149    467436.34449  24246293.7604   24246300.7904
  20387969.792     -612458.21049   -467198.62549  20387969.5024   20387974.7214
  24698452.841    -1101902.212 9   -831362.414 9  24698452.467    24698457.413
  24356364.802     -806035.00249   -609582.44549  24356364.4504   24356371.8704
  22008913.960      303771.80649    229928.45549  22008912.9374   22008919.6254
  24363458.705      427770.51149    326988.17949  24363457.7194   24363463.6724
  24419268.549    -1258737.77249   -960327.18449  24419268.4324   24419275.3484
  22857979.786      425155.88849    325886.37449  22857978.9904   22857985.0324
 96  9 18 15 36 29.9990000  0  9 17  5  6 28 26 10 24 23 16
  22116768.463    -1027782.98949   -782971.25349  22116767.8604   22116774.5464
  24260154.088      696014.40249    524189.49949  24260152.7464   24260157.8094
  20375210.335     -679509.30649   -519446.23749  20375210.1564   20375215.4314
  24672587.107    -1237827.565 9   -937278.232 9  24672585.504    24672592.285
  24332861.432     -929545.85049   -705824.65549  24332862.1904   24332869.5284
  22014616.865      333740.89349    253280.96449  22014616.0084   22014622.1284
  24371901.491      472137.99349    361560.23649  24371900.8644   24371907.4794
  24391569.863    -1404294.49249  -1073747.90149  24391569.1984   24391577.6204
  22866117.082      467917.44249    359207.03749  22866116.7074   22866122.5614
 96  9 18 15 36 59.9990000  0  9 17  5  6 28 26 10 24 23 16
  22096472.621    -1134438.52949   -866079.45349  22096472.1214   22096478.4044
  24273923.651      768372.81049    580572.58649  24273923.7424   24273930.2174
  20362419.220     -746727.03249   -571823.69149  20362419.1514   20362424.4674
  24646619.235    -1374289.803 9  -1043612.404 9  24646618.981    24646625.119
  24309274.169    -1053498.16949   -802410.87249  24309274.7894   24309282.0904
  22020303.835      363626.18849    276568.19649  22020303.2514   22020309.4444
  24380246.924      515994.04449    395733.73049  24380243.3094   24380255.0894
  24363788.937    -1550283.82949  -1187505.73649  24363788.4804   24363795.9284
  22874225.669      510528.32349    392410.29949  22874224.9844   22874230.8804
 96  9 18 15 37 29.9990000  0  9 17  5  6 28 26 10 24 23 16
  22076148.131    -1241244.75349   -949305.07149  22076147.9014   22076153.9724
  24287621.283      840353.79249    636661.58049  24287621.2004   24287626.2044
  20349621.410     -813980.20649   -624228.77249  20349621.5204   20349626.4134
  24620573.475    -1511161.487 9  -1150265.680 9  24620573.042    24620577.896
  24285628.893    -1177756.32549   -899235.38749  24285629.0494   24285636.6344
  22025992.893      393522.27449    299863.81949  22025991.8734   22025998.4434
  24388518.008      559458.52849    429602.05649  24388520.9684   24388525.6864
  24335948.287    -1696587.12949  -1301508.22449  24335946.7554   24335955.8394
  22882330.388      553118.58949    425597.49849  22882329.7534   22882335.6844
 96  9 18 15 37 59.9990000  0  9 17  5  6 28 26 10 24 23 16
  22055816.561    -1348087.80949  -1032559.39749  22055816.2764   22055822.1214
  24301268.258      912068.90349    692543.40749  24301267.6034   24301273.9264
  20336840.972     -881142.01449   -676562.65849  20336840.9784   20336845.9664
  24594471.069    -1648331.175 9  -1257151.132 9  24594470.562    24594476.434
  24261948.880    -1302196.94149   -996202.08649  24261950.3614   24261955.9254
  22031702.066      423524.23349    323241.94649  22031701.3614   22031707.6324
  24396737.026      602649.20049    463257.08449  24396735.3424   24396744.0964
  24308066.694    -1843105.67149  -1415678.39849  24308066.3264   24308074.4154
  22890455.125      595813.97849    458866.61149  22890454.8484   22890460.8924
 96  9 18 15 38 29.9990000  0  9 17  5  6 28 26 10 24 23 16
  22035503.176    -1454835.41349  -1115739.34249  22035502.4594   22035508.4964
  24314889.000      983645.90949    748317.63449  24314888.2834   24314895.4174
  20324100.318     -948094.86049   -728733.71849  20324100.3984   20324105.5694
  24568334.664    -1785678.873 9  -1364175.281 9  24568334.746    24568339.586
  24238259.940    -1426684.20449  -1093205.11349  24238259.5324   24238266.8704
  22037453.394      453747.54149    346792.55749  22037452.6994   22037458.8724
  24404925.527      645679.09049    496786.79849  24404926.0914   24404932.9584
  24280166.517    -1989722.42849  -1529925.15449  24280166.5604   24280173.5654
  22898622.789      638735.15449    492311.65949  22898622.4844   22898628.7114
 96  9 18 15 38 59.9990000  0  9 17  5  6 28 26 10 24 23 16
  22015228.754    -1561378.09449  -1198759.59949  22015228.2454   22015234.3454
  24328503.898     1055192.69749    804068.27849  24328503.8674   24328509.8194
  20311417.058    -1014745.87249   -780669.58449  20311417.1094   20311422.2284
  24542185.991    -1923091.583 9  -1471250.073 9  24542186.758    24542191.864
  24214583.214    -1551106.33249  -1190157.40049  24214582.7634   24214589.4974
  22043270.023      484313.84049    370610.42749  22043269.3924   22043275.1674
  24413104.016      688656.98249    530276.02549  24413104.7594   24413110.4574
  24252271.726    -2136310.96549  -1644149.94049  24252271.6824   24252278.7124
  22906852.122      681980.48849    526009.31149  22906851.3674   22906857.4824
 96  9 18 15 39 29.9990000  0  9 17  5  6 28 26 10 24 23 16
  21995004.948    -1667655.06149  -1281572.81649  21995004.3354   21995010.4644
  24342127.664     1126785.75649    859855.02449  24342127.3964   24342134.7164
  20298801.807    -1081039.74449   -832327.15249  20298801.9024   20298807.0774
  24516037.863    -2060501.174 9  -1578322.482 9  24516038.560    24516042.655
  24190929.696    -1675405.20949  -1287013.62649  24190929.0784   24190936.1054
  22049169.297      515314.39649    394766.68449  22049168.8284   22049174.8264
  24421285.854      731652.34349    563778.85049  24421286.5154   24421293.1904
  24224398.884    -2282784.36349  -1758285.00949  24224398.3884   24224406.1524
  22915153.915      725606.42449    560003.50749  22915153.4894   22915159.7954
 96  9 18 15 39 59.9990000  0  9 17  5  6 28 26 10 24 23 16
  21974839.597    -1773624.80849  -1364146.63649  21974839.3954   21974845.4204
  24355767.243     1198461.97149    915706.56749  24355766.8134   24355773.6024
  20286261.991    -1146937.17549   -883675.80749  20286262.0334   20286267.1604
  24489898.046    -2197867.382 9  -1685361.066 9  24489899.116    24489903.255
  24167304.794    -1799553.33449  -1383752.36049  24167303.4544   24167312.0324
  22055163.377      546813.08849    419311.10549  22055162.7294   22055168.7324
  24429480.245      774713.78649    597333.17949  24429479.6334   24429487.1544
  24196557.838    -2429090.47249  -1872289.71049  24196556.8424   24196564.1894
  22923532.440      769635.76749    594312.04649  22923531.7294   22923538.0544
 96  9 18 15 40 29.9990000  0  9 17  5  6 28 26 10 24 23 16
  21954729.509    -1879304.44149  -1446494.38849  21954729.6174   21954735.2624
  24369418.452     1270199.87549    971606.17649  24369417.4434   24369424.5304
  20273795.126    -1212451.35049   -934725.82049  20273795.1644   20273799.9994
  24463764.934    -2335198.316 9  -1792372.174 9  24463765.008    24463769.439
  24143704.309    -1923573.98049  -1480391.75449  24143703.1624   24143711.1434
  22061251.627      578806.53049    444241.04249  22061251.1244   22061256.9114
  24437685.659      817833.42949    630932.85749  24437687.0514   24437692.4694
  24168750.417    -2575219.78949  -1986156.64049  24168750.4324   24168757.1644
  22931982.142      814039.51649    628912.34149  22931980.8704   22931987.9884
 96  9 18 15 40 59.9990000  0  9 17  5  6 28 26 10 24 23 16
  21934667.376    -1984732.08249  -1528645.78349  21934666.9364   21934672.9974
  24383073.937     1341959.72149   1027522.90749  24383072.7804   24383080.6684
  20261399.997    -1277588.44549   -985482.00549  20261399.9454   20261404.8914
  24437633.643    -2472519.259 9  -1899375.468 9  24437633.029    24437637.699
  24120120.861    -2047505.70949  -1576961.84349  24120121.0084   24120129.9094
  22067429.533      611271.19349    469538.17049  22067429.0374   22067434.9504
  24445896.349      860980.44149    664553.92749  24445896.9584   24445904.5374
  24140971.992    -2721197.12549  -2099905.16749  24140971.4534   24140978.5414
  22940498.292      858792.35049    663784.64949  22940497.7044   22940503.9824
 96  9 18 15 41 29.9990000  0  9 17  5  6 28 26 10 24 23 16
  21914644.405    -2089953.72149  -1610636.66049  21914643.8284   21914650.0844
  24396724.971     1413696.15249   1083421.39149  24396725.0894   24396731.7254
  20249069.616    -1342384.91849  -1035972.77449  20249069.5114   20249074.6714
  24411494.024    -2609883.540 9  -2006412.540 9  24411493.105    24411499.157
  24096546.352    -2171391.19049  -1673495.89449  24096545.8384   24096554.5154
  22073685.427      644145.78749    495154.71949  22073684.4764   22073690.4594
  24454099.311      904086.48349    698143.04549  24454097.9604   24454105.6584
  24113211.338    -2867080.58649  -2213580.53849  24113210.6724   24113217.6764
  22949073.271      903854.20449    698897.74949  22949072.4284   22949079.5424
 96  9 18 15 41 59.9990000  0  9 17  5  6 28 26 10 24 23 16
  21894650.733    -2195020.93149  -1692507.20449  21894650.0094   21894655.8124
  24410362.618     1485362.54249   1139265.31049  24410361.3884   24410369.1574
  20236794.048    -1406893.21149  -1086238.98349  20236793.6694   20236799.0214
  24385335.681    -2747346.601 9  -2113526.595 9  24385335.014    24385340.493
  24072972.943    -2295271.19549  -1770025.67449  24072972.9784   24072980.1514
  22080004.447      677352.61249    521030.15449  22080003.2924   22080009.6644
  24462281.562      947084.19949    731647.74349  24462279.6564   24462289.4964
  24085456.323    -3012934.17249  -2327232.62149  24085456.2764   24085462.9934
  22957695.665      949164.94649    734204.77049  22957695.2384   22957701.8094
 96  9 18 15 42 29.9990000  0  9 17  5  6 28 26 10 24 23 16
  21874673.402    -2300002.26349  -1774310.84249  21874672.5894   21874678.6774
  24423976.269     1556903.03349   1195011.11049  24423975.3544   24423982.1074
  20224563.011    -1471167.34749  -1136322.73449  20224562.7974   20224568.1714
  24359146.640    -2884971.017 9  -2220766.393 9  24359147.393    24359150.086
  24049392.057    -2419189.57149  -1866585.35849  24049392.3824   24049398.6074
  22086369.824      710802.78549    547095.19749  22086369.4754   22086375.2054
  24470428.584      989897.03449    765008.33349  24470427.1164   24470435.7274
  24057695.418    -3158818.93449  -2440909.01849  24057695.0144   24057701.7674
  22966352.631      994657.50149    769653.48449  22966352.4654   22966358.6604
 96  9 18 15 42 59.9990000  0  9 17  5  6 28 26 10 24 23 16
  21854699.575    -2404965.17849  -1856100.12249  21854698.7074   21854704.7964
  24437554.625     1628257.63349   1250612.05649  24437554.6634   24437560.8864
  20212362.934    -1535279.40349  -1186280.18349  20212363.0124   20212368.3284
  24332913.237    -3022828.592 9  -2328187.859 9  24332912.855    24332917.037
  24025792.530    -2543205.62349  -1963221.15049  24025792.3304   24025798.3564
  22092765.868      744413.84649    573285.61749  22092765.1274   22092770.9214
  24478523.852     1032438.19849    798157.22349  24478522.9514   24478531.7824
  24029914.411    -3304809.24949  -2554667.66349  24029913.9674   24029920.2864
  22975028.318     1040248.27949    805178.75049  22975028.0394   22975033.5804
 96  9 18 15 43 29.9990000  0  9 17  5  6 28 26 10 24 23 16
  21834718.755    -2509964.76649  -1937917.97349  21834717.9594   21834724.1954
  24451084.414     1699356.98749   1306014.11949  24451083.1874   24451091.4454
  20200180.112    -1599301.28249  -1236167.36949  20200180.3764   20200185.2244
  24306623.690    -3160981.158 9  -2435839.197 9  24306623.635    24306628.219
  24002164.796    -2667368.07649  -2059971.02849  24002164.4874   24002172.0124
  22099176.824      778103.67549    599537.41649  22099175.9194   22099181.6354
  24486556.384     1074648.89749    831048.61849  24486556.8194   24486564.5824
  24002102.405    -3450962.31349  -2668553.11349  24002101.9214   24002108.7424
  22983707.817     1085858.87749    840719.46149  22983706.7314   22983713.8964
 96  9 18 15 43 59.9990000  0  9 17  5  6 28 26 10 24 23 16
  21814718.747    -2615065.54149  -2019814.67849  21814718.1454   21814724.2784
  24464547.997     1770108.70849   1361145.27449  24464547.7664   24464555.6784
  20188003.723    -1663289.29949  -1286028.17049  20188003.9764   20188008.6984
  24280267.159    -3299485.615 9  -2543764.754 9  24280267.021    24280271.813
  23978497.922    -2791736.76849  -2156881.61549  23978498.4514   23978505.2054
  22105590.094      811805.30649    625798.40549  22105589.5594   22105594.9474
  24494517.950     1116487.42849    863650.03749  24494518.3484   24494525.0334
  23974249.470    -3597330.45949  -2782606.16149  23974248.8934   23974256.5054
  22992376.551     1131413.08349    876216.20349  22992376.3094   22992383.0544
 96  9 18 15 44 29.9990000  0  9 17  5  6 28 26 10 24 23 16
  21794687.516    -2720330.07549  -2101838.98449  21794686.7924   21794693.2074
  24477931.045     1840437.13349   1415946.59449  24477930.3214   24477937.5374
  20175823.579    -1727296.80649  -1335904.16449  20175823.3784   20175828.5414
  24253833.463    -3438395.200 9  -2652005.988 9  24253832.641    24253838.981
  23954780.979    -2916370.41149  -2253998.64449  23954781.7204   23954787.4664
  22111996.202      845469.48149    652030.20849  22111995.1944   22112001.4584
  24502399.107     1157902.91849    895921.79449  24502400.1014   24502406.0454
  23946343.311    -3743978.14149  -2896877.01249  23946341.8434   23946350.3754
  23001025.923     1176865.61449    911633.74249  23001025.6214   23001032.1634
 96  9 18 15 44 59.9990000  0  9 17  5  6 28 26 10 24 23 16
  21774617.271    -2825799.88849  -2184023.24449  21774617.0964   21774623.1514
  24491221.654     1910279.37849   1470369.07249  24491220.1814   24491228.6344
  20163627.703    -1791386.23149  -1385843.97549  20163627.1614   20163632.4574
  24227314.088    -3577755.101 9  -2760598.112 9  24227313.510    24227319.423
  23931003.451    -3041322.53649  -2351363.85749  23931003.4414   23931009.6974
  22118389.185      879064.97049    678208.49349  22118388.2384   22118394.8724
  24510194.310     1198866.39449    927841.31149  24510194.4654   24510201.2214
  23918373.706    -3890958.91849  -3011407.41949  23918373.1254   23918379.9574
  23009648.772     1222178.88049    946942.75349  23009647.9824   23009655.3234
 96  9 18 15 45 29.9990000  0  9 17  5  6 28 26 10 24 23 16
  21754501.551    -2931508.84049  -2266393.85449  21754500.6634   21754507.1874
  24504410.186     1979585.89749   1524374.06349  24504409.2504   24504416.7184
  20151410.026    -1855590.13849  -1435873.00649  20151409.7794   20151414.7954
  24200702.538    -3717599.282 9  -2869567.600 9  24200702.342    24200707.548
  23907158.601    -3166629.21849  -2449005.33249  23907159.4784   23907164.6124
  22124765.300      912571.37749    704317.36349  22124764.0754   22124770.2344
  24517901.169     1239365.55049    959399.04649  24517901.5604   24517909.0684
  23890333.709    -4038309.65449  -3126226.08649  23890333.0274   23890339.8504
  23018243.562     1267344.37149    982136.60449  23018242.9724   23018249.2714
 96  9 18 15 45 59.9990000  0  7 17  6 28 26 10 23 16
  21734332.045    -3037500.29649  -2348984.58849  21734331.4954   21734337.8054
  20139163.720    -1919944.92349  -1486019.59949  20139163.8574   20139168.5924
  24173992.163    -3857962.964 9  -2978941.891 9  24173991.824    24173997.363
  23883237.705    -3292334.84949  -2546957.72549  23883237.7194   23883244.9844
  22131122.233      945976.88349    730347.60849  22131121.4434   22131127.1624
  23862216.015    -4186068.39349  -3241362.66949  23862215.7024   23862223.1914
  23026806.227     1312341.01849   1017198.90449  23026806.0344   23026812.1514
 96  9 18 15 46 29.9990000  0  7 17  6 28 26 10 23 16
  21714105.597    -3143790.99549  -2431808.50149  21714104.8584   21714111.4854
  20126883.590    -1984478.02349  -1536305.13849  20126883.9384   20126888.3874
  24147178.530    -3998869.544 9  -3088739.228 9  24147178.086    24147183.694
  23859238.290    -3418453.15749  -2645231.69749  23859238.8534   23859244.8784
  22137456.371      979262.89549    756284.74849  22137455.4294   22137461.7104
  23834017.047    -4334254.47849  -3356832.26849  23834017.3134   23834023.8974
  23035332.630     1357147.30249   1052112.85449  23035332.1014   23035338.1084
 96  9 18 15 46 59.9990000  0  7 17  6 28 26 10 23 16
  21693821.633    -3250384.04749  -2514868.01049  21693821.2004   21693827.7354
  20114567.104    -2049202.10049  -1586739.48749  20114567.2054   20114571.8714
  24120258.139    -4140336.650 9  -3198973.350 9  24120257.503    24120262.988
  23835158.129    -3544995.51449  -2743836.08249  23835157.6644   23835165.0934
  22143761.825     1012398.38049    782104.59049  22143760.7234   22143766.9874
  23805739.703    -4482852.49249  -3472622.86549  23805739.5994   23805745.7904
  23043815.887     1401726.96549   1086850.22849  23043815.1794   23043821.9144
 96  9 18 15 47 29.9990000  0  7 17  6 28 26 10 23 16
  21673476.340    -3357299.30049  -2598178.59049  21673475.9954   21673482.2634
  20102217.005    -2114102.76249  -1637311.43449  20102217.0154   20102221.5554
  24093229.256    -4282374.099 9  -3309651.879 9  24093228.605    24093234.090
  23810996.491    -3671965.01749  -2842773.31749  23810995.5014   23811002.7954
  22150032.853     1045353.26249    807783.69649  22150031.7524   22150038.3524
  23777382.966    -4631868.20349  -3588738.95349  23777382.1114   23777388.5824
  23052252.903     1446063.37149   1121398.06049  23052252.4784   23052258.5104
 96  9 18 15 47 59.9990000  0  7 17  6 28 26 10 23 16
  21653068.100    -3464545.41949  -2681746.99049  21653067.6234   21653074.2274
  20089831.996    -2179186.50149  -1688026.04349  20089831.9594   20089836.8034
  24066090.030    -4424991.629 9  -3420782.428 9  24066089.353    24066094.955
  23786753.281    -3799363.19549  -2942044.60149  23786752.8444   23786759.0004
  22156263.815     1078097.42449    833298.61749  22156263.1784   22156268.9334
  23748944.540    -4781312.70849  -3705189.15049  23748943.3494   23748950.5384
  23060636.413     1490118.63649   1155726.80649  23060635.7844   23060642.5324
 96  9 18 15 48 29.9990000  0  7 17  6 28 26 10 23 16
  21632595.494    -3572129.77749  -2765578.95649  21632594.7664   21632601.7314
  20077410.825    -2244460.33449  -1738888.78249  20077410.6284   20077415.6874
  24038839.408    -4568194.893 9  -3532369.383 9  24038839.118    24038844.265
  23762427.924    -3927192.94249  -3041652.18349  23762427.2344   23762432.7784
  22162449.111     1110601.18049    858626.19249  22162448.1364   22162454.8694
  23720422.854    -4931195.13449  -3821980.61249  23720422.4134   23720428.7014
  23068962.841     1533874.35549   1189822.15049  23068962.6694   23068968.6484
 96  9 18 15 48 59.9990000  0  7 17  6 28 26 10 23 16
  21612054.451    -3680073.87949  -2849691.23449  21612053.8864   21612060.7924
  20064951.661    -2309933.59749  -1789906.91849  20064951.4934   20064956.7414
  24011475.475    -4711993.598 9  -3644420.325 9  24011474.782    24011479.997
  23738017.622    -4055469.08349  -3141607.59249  23738017.8324   23738024.7934
  22168584.453     1142842.57649    883749.34249  22168583.3894   22168590.1144
  23691814.119    -5081534.97049  -3939128.49649  23691813.9394   23691819.7454
  23077229.624     1577316.74649   1223673.33249  23077228.3974   23077235.6824
 96  9 18 15 49 29.9990000  0  7 17  6 28 26 10 23 16
  21591441.018    -3788398.44749  -2934099.98549  21591440.5174   21591446.7744
  20052451.483    -2375622.74249  -1841093.27549  20052451.4074   20052456.4284
  23983997.042    -4856393.997 9  -3756940.118 9  23983997.064    23984002.151
  23713520.286    -4184203.40849  -3241920.03349  23713520.2624   23713526.0864
  22174669.891     1174821.29249    908667.80149  22174669.1764   22174675.5144
  23663113.648    -5232356.84449  -4056652.00149  23663113.2484   23663119.5364
  23085435.047     1620436.57849   1257273.17049  23085434.2564   23085441.4774
 96  9 18 15 49 59.9990000  0  7 17  6 28 26 10 23 16
  21570755.763    -3897100.20949  -3018802.64949  21570755.2274   21570761.5054
  20039903.056    -2441565.04149  -1892476.89649  20039902.8444   20039907.9184
  23956403.283    -5001400.899 9  -3869932.494 9  23956403.267    23956407.266
  23688934.218    -4313404.63149  -3342596.26849  23688934.1924   23688940.0344
  22180705.602     1206538.90249    933382.80649  22180704.8684   22180710.6184
  23634320.654    -5383665.14449  -4174554.53849  23634319.7114   23634326.7954
  23093576.537     1663220.19149   1290611.00549  23093576.1704   23093582.9004
 96  9 18 15 50 29.9990000  0  7 17  6 28 26 10 23 16
  21549997.276    -4006186.74449  -3103805.12949  21549996.6984   21550003.2014
  20027304.084    -2507773.35149  -1944067.79349  20027304.0364   20027308.8744
  23928693.626    -5147016.230 9  -3983398.965 9  23928693.690    23928698.247
  23664257.628    -4443081.26749  -3443642.96449  23664257.9154   23664263.0474
  22186691.176     1237993.47349    957892.84649  22186690.3144   22186696.8654
  23605436.203    -5535453.95149  -4292831.50849  23605436.2974   23605441.9394
  23101654.697     1705670.78449   1323689.35449  23101654.6774   23101660.8384
 96  9 18 15 50 59.9990000  0  7 17  6 28 26 10 23 16
  21529166.526    -4115653.01449  -3189103.50749  21529165.4694   21529172.5314
  20014656.559    -2574236.56249  -1995857.32049  20014656.5424   20014661.2194
  23900870.008    -5293231.014 9  -4097332.558 9  23900870.102    23900873.750
  23639492.422    -4573223.72649  -3545052.62149  23639492.4504   23639499.8964
  22192629.106     1269197.49549    982207.65549  22192628.5734   22192633.8914
  23576463.359    -5687707.60149  -4411470.67149  23576462.9144   23576469.0924
  23109669.700     1747790.20149   1356509.65449  23109669.5094   23109676.0854
 96  9 18 15 51 29.9990000  0  7 17  6 28 26 10 23 16
  21508264.438    -4225494.01049  -3274693.88449  21508263.7894   21508270.3104
  20001961.039    -2640952.17149  -2047843.51549  20001961.1104   20001965.5604
  23872933.170    -5440040.107 9  -4211729.235 9  23872932.563    23872938.002
  23614639.568    -4703826.10949  -3646820.65449  23614639.5354   23614646.0154
  22198522.813     1300168.86249   1006341.17149  22198521.9534   22198527.9754
  23547401.320    -5840429.78949  -4530474.94549  23547400.6444   23547407.5534
  23117622.987     1789584.84849   1389076.90149  23117621.8034   23117629.0004
 96  9 18 15 51 59.9990000  0  7 17  6 28 26 10 23 16
  21487291.732    -4335706.41549  -3360573.66549  21487291.1784   21487297.7304
  19989221.383    -2707899.69749  -2100010.42549  19989221.2504   19989225.8474
  23844883.785    -5587441.014 9  -4326587.068 9  23844884.280    23844887.842
  23589701.391    -4834876.25449  -3748937.58949  23589701.3304   23589707.3154
  22204371.324     1330902.89849   1030289.75949  22204370.6944   22204376.9014
  23518250.059    -5993620.52149  -4649844.30449  23518249.0354   23518255.7254
  23125515.419     1831059.77249   1421395.01249  23125514.6194   23125522.4794
 96  9 18 15 52 29.9990000  0  7 17  6 28 26 10 23 16
  21466249.270    -4446285.24349  -3446738.97349  21466248.5954   21466255.1474
  19976446.748    -2775031.21749  -2152320.70949  19976446.9744   19976451.3434
  23816724.087    -5735421.160 9  -4441896.270 9  23816723.725    23816728.558
  23564682.298    -4966352.27449  -3851386.35649  23564682.8704   23564689.0174
  22210175.702     1361404.75849   1054057.41049  22210174.9464   22210181.0694
  23489013.418    -6147259.86949  -4769563.23249  23489013.1854   23489019.3954
  23133347.909     1872219.70749   1453467.67449  23133348.4964   23133353.2334
 96  9 18 15 52 59.9990000  0  7 17  6 28 26 10 23 16
  21445138.744    -4557221.67749  -3533182.93149  21445138.4404   21445144.5784
  19963643.196    -2842314.60949  -2204749.33149  19963643.1674   19963647.5544
  23788455.747    -5883972.381 9  -4557650.455 9  23788455.455    23788460.681
  23539586.931    -5098229.40249  -3954147.66149  23539587.1534   23539593.0344
  22215937.403     1391682.04949   1077650.08549  22215936.8374   22215942.5674
  23459691.547    -6301347.55449  -4889631.53849  23459690.4844   23459697.4794
  23141120.913     1913066.84049   1485296.61249  23141120.3164   23141126.8424
 96  9 18 15 53 29.9990000  0  7 17  6 28 26 10 23 16
  21423964.447    -4668493.63949  -3619888.34749  21423963.9784   21423970.4044
  19950814.824    -2909728.23749  -2257279.43849  19950814.7784   19950819.2304
  23760081.310    -6033081.236 9  -4673839.184 9  23760080.938    23760085.659
  23514419.271    -5230486.34049  -4057204.91149  23514418.9474   23514424.4714
  22221656.820     1421737.50849   1101069.90149  22221656.0984   22221661.9834
  23430288.010    -6455863.69549  -5010033.69049  23430287.3204   23430293.9854
  23148837.118     1953615.61149   1516893.02049  23148836.7044   23148843.5464
 96  9 18 15 53 59.9990000  0  8 22 17  6 28 26 10 23 16
  24267583.085    -5734230.64949  -4454729.24149  24267581.7534   24267588.2024
  21402729.692    -4780083.11649  -3706841.17749  21402728.9594   21402735.3194
  19937965.148    -2977253.67649  -2309896.66849  19937964.8944   19937969.8074
  23731603.150    -6182735.125 9  -4790452.593 9  23731602.933    23731607.540
  23489181.978    -5363109.39549  -4160547.44749  23489181.9984   23489189.1404
  22227332.219     1451561.81549   1124309.59349  22227331.5294   22227337.3434
  23400810.118    -6610770.62249  -5130740.35649  23400810.0164   23400816.3904
  23156498.721     1993877.66349   1548266.01849  23156498.9794   23156504.8844
 96  9 18 15 54 29.9980000  0  8 22 17  6 28 26 10 23 16
  24242520.567    -5865935.17949  -4557356.17349  24242519.6434   24242526.4324
  21381438.559    -4891968.66249  -3794024.71349  21381437.7894   21381444.3884
  19925093.472    -3044894.75449  -2362604.00849  19925093.2454   19925098.3764
  23703025.987    -6332909.531 9  -4907471.610 9  23703025.667    23703030.399
  23463877.993    -5496081.78249  -4264162.20549  23463878.0154   23463883.3274
  22232964.558     1481159.91649   1147373.02949  22232964.1194   22232969.8224
  23371262.658    -6766043.02049  -5251731.80049  23371261.8124   23371268.3104
  23164108.312     2033866.24449   1579425.91049  23164107.6824   23164115.3774
 96  9 18 15 54 59.9980000  0  8 22 17  6 28 26 10 23 16
  24217428.967    -5997792.70749  -4660102.28949  24217427.8844   24217434.5374
  21360093.025    -5004140.02149  -3881430.96049  21360092.4764   21360098.6744
  19912193.259    -3112685.74549  -2415428.17349  19912193.0564   19912198.2024
  23674349.894    -6483603.698 9  -5024895.630 9  23674349.739    23674354.203
  23438506.224    -5629410.19449  -4368054.36149  23438505.8004   23438512.0324
  22238555.788     1510541.84649   1170268.02749  22238555.2794   22238561.2254
  23341644.498    -6921687.49649  -5373013.18249  23341643.2174   23341651.4804
  23171669.726     2073601.39749   1610388.33249  23171668.5084   23171676.2084
 96  9 18 15 55 29.9980000  0  8 22 17  6 28 26 10 23 16
  24192304.901    -6129820.79249  -4762981.32049  24192304.6464   24192310.2644
  21338693.110    -5116597.41249  -3969060.08549  21338692.5114   21338698.7374
  19899260.052    -3180650.09349  -2468387.41549  19899259.8894   19899265.1024
  23645575.772    -6634812.720 9  -5142720.837 9  23645575.419    23645580.444
  23413066.398    -5763096.53749  -4472225.44849  23413066.9114   23413073.1154
  22244104.568     1539700.80249   1192989.26449  22244103.6874   22244109.8924
  23311957.698    -7077692.28749  -5494575.33249  23311957.1684   23311964.0214
  23179183.041     2113083.74949   1641153.74149  23179183.4954   23179190.1424
 96  9 18 15 55 59.9980000  0  8 22 17  6 28 26 10 23 16
  24167142.294    -6262051.67249  -4866018.36949  24167142.3454   24167147.5794
  21317237.403    -5229347.85749  -4056917.56449  21317236.8744   21317242.7334
  19886290.881    -3248803.27749  -2521493.80249  19886290.5974   19886295.9264
  23616702.849    -6786541.001 9  -5260950.663 9  23616702.467    23616707.621
  23387557.991    -5897144.27549  -4576678.15249  23387557.9914   23387563.9144
  22249610.772     1568636.01849   1215536.15749  22249609.9764   22249616.2624
  23282198.732    -7234076.17149  -5616432.87449  23282198.3594   23282205.3434
  23186644.923     2152295.77749   1671708.55349  23186644.4904   23186651.6524
 96  9 18 15 56 29.9980000  0  8 22 17  6 28 26 10 23 16
  24141939.605    -6394493.10549  -4969219.48949  24141939.0034   24141944.9244
  21295726.124    -5342390.38949  -4145002.64749  21295725.7464   21295731.3704
  19873288.134    -3317133.11049  -2574737.83949  19873287.9694   19873293.0744
  23587733.187    -6938777.666 9  -5379576.642 9  23587732.772    23587737.935
  23361985.055    -6031531.83049  -4681395.64649  23361986.4134   23361991.8364
  22255077.619     1597364.28849   1237921.79949  22255076.6914   22255082.9614
  23252368.327    -7390835.49749  -5738582.97449  23252367.7814   23252374.0424
  23194053.522     2191228.34349   1702045.56249  23194052.7214   23194058.8054
 96  9 18 15 56 59.9980000  0  8 22 17  6 28 26 10 23 16
  24116698.541    -6527136.23349  -5072577.79349  24116698.8174   24116703.3024
  21274162.113    -5455710.15049  -4233303.75449  21274161.4054   21274167.6554
  19860258.518    -3385604.49149  -2628092.17449  19860258.8094   19860263.4124
  23558669.259    -7091509.649 9  -5498588.582 9  23558669.033    23558673.946
  23336352.861    -6166230.84649  -4786355.85149  23336353.1394   23336359.0834
  22260510.257     1625912.63649   1260167.23149  22260509.3504   22260515.4214
  23222471.003    -7547946.48149  -5861007.08949  23222470.2884   23222477.3214
  23201410.170     2229887.96949   1732169.90649  23201408.7594   23201416.8844
 96  9 18 15 57 29.9980000  0  8 22 17  6 28 26 10 23 16
  24091420.730    -6659972.46949  -5176086.53749  24091420.0174   24091424.7334
  21252546.063    -5569303.15049  -4321817.77249  21252545.3494   21252551.5074
  19847208.695    -3454182.38849  -2681529.50049  19847208.8434   19847213.2684
  23529512.719    -7244728.427 9  -5617979.829 9  23529512.298    23529517.522
  23310663.773    -6301228.06749  -4891548.42249  23310662.9344   23310668.9564
  22265908.760     1654281.92149   1282273.14949  22265908.0134   22265914.1274
  23192510.239    -7705391.28049  -5983691.32349  23192510.0194   23192516.9714
  23208713.228     2268265.56749   1762074.51349  23208713.7424   23208718.9794
 96  9 18 15 57 59.9980000  0  8 22 17  6 28 26 10 23 16
  24066110.385    -6792979.36349  -5279728.28949  24066109.7994   24066115.4294
  21230880.074    -5683158.68549  -4410536.36649  21230879.5584   21230885.4134
  19834142.938    -3522844.01449  -2735032.07049  19834142.9294   19834147.2064
  23500266.332    -7398419.349 9  -5737738.995 9  23500266.104    23500270.562
  23284919.227    -6436514.91249  -4996966.67249  23284918.2574   23284924.2924
  22271275.034     1682481.95349   1304247.18849  22271273.6684   22271280.5824
  23162490.199    -7863147.54949  -6106618.24649  23162489.6724   23162496.7874
  23215962.473     2306360.45949   1791758.84949  23215962.3644   23215969.6414
 96  9 18 15 58 29.9980000  0  8 22 17  6 28 26 10 23 16
  24040770.175    -6926143.42949  -5383492.49849  24040769.7814   24040774.8484
  21209163.132    -5797282.06949  -4499463.67749  21209162.7724   21209168.1314
  19821061.070    -3591589.94149  -2788600.32849  19821061.0354   19821065.4474
  23470929.954    -7552582.870 9  -5857866.413 9  23470929.644    23470934.846
  23259119.334    -6572093.09649  -5102611.96249  23259119.6174   23259125.2804
  22276606.998     1710501.41949   1326080.51149  22276605.8974   22276612.2134
  23132413.791    -8021200.52649  -6229776.36949  23132412.8444   23132420.4944
  23223159.777     2344181.99049   1821230.18849  23223158.6124   23223165.8674
 96  9 18 15 58 59.9980000  0  8 22 17  6 28 26 10 23 16
  24015403.927    -7059444.32049  -5487363.31149  24015402.9924   24015409.0254
  21187398.715    -5911654.91849  -4588585.37349  21187398.2594   21187404.0684
  19807964.332    -3660413.65349  -2842229.20449  19807963.9124   19807968.7834
  23441506.003    -7707206.821 9  -5978352.609 9  23441506.003    23441511.229
  23233264.161    -6707962.51949  -5208484.19449  23233264.6164   23233270.0494
  22281903.737     1738335.64149   1347769.49749  22281902.9604   22281908.6714
  23102281.748    -8179545.66149  -6353162.15249  23102281.7534   23102288.0254
  23230308.147     2381746.29449   1850501.04649  23230307.9724   23230315.8284
 96  9 18 15 59 29.9980000  0  8 22 17  6 28 26 10 23 16
  23990014.759    -7192865.60549  -5591327.97049  23990014.0494   23990020.3484
  21165587.516    -6026273.77349  -4677898.75949  21165586.8594   21165592.2884
  19794851.929    -3729319.28149  -2895921.90549  19794851.5894   19794856.5274
  23411995.269    -7862286.637 9  -6099194.017 9  23411995.183    23411999.948
  23207352.648    -6844128.64249  -5314587.61749  23207353.6434   23207358.8254
  22287163.266     1765974.56649   1369306.29649  22287162.3694   22287168.3494
  23072091.777    -8338194.91749  -6476784.91749  23072091.1544   23072097.6294
  23237409.292     2419062.47549   1879578.59149  23237408.7074   23237413.8204
 96  9 18 15 59 59.9980000  0  8 22 17  6 28 26 10 23 16
  23964605.850    -7326390.25149  -5695373.15349  23964604.6894   23964610.5694
  21143729.459    -6141138.69849  -4767403.89549  21143729.1114   21143734.8294
  19781724.069    -3798306.11449  -2949677.88849  19781724.0674   19781728.7744
  23382399.322    -8017814.896 9  -6220384.866 9  23382399.372    23382403.868
  23181387.296    -6980578.69549  -5420912.30749  23181387.7194   23181394.5904
  22292384.457     1793412.21949   1390686.26249  22292383.7344   22292389.4574
  23041841.568    -8497160.66549  -6600654.30649  23041841.1654   23041847.8304
  23244465.302     2456141.69149   1908471.47449  23244464.8024   23244470.0574
 96  9 18 16  0 29.9980000  0  8 22 17  6 28 26 10 23 16
  23939178.914    -7460009.51449  -5799492.07749  23939178.5424   23939182.7734
  21121825.399    -6256245.35949  -4857097.39349  21121824.8954   21121830.7244
  19768582.046    -3867368.14149  -3003492.46349  19768582.3654   19768586.9364
  23352717.141    -8173795.747 9  -6341928.372 9  23352716.891    23352721.707
  23155370.251    -7117299.90649  -5527448.30349  23155370.6804   23155376.7704
  22297564.581     1820633.89949   1411897.92649  22297563.8784   22297569.5154
  23011527.582    -8656461.81349  -6724785.03649  23011526.9914   23011533.9234
  23251476.191     2492984.25449   1937179.92549  23251475.4484   23251484.5174
 96  9 18 16  0 59.9980000  0  8 22 17  6 28 26 10 23 16
  23913734.406    -7593721.06049  -5903682.89349  23913732.9074   23913737.6924
  21099877.942    -6371580.03549  -4946968.56649  21099877.4194   21099883.1154
  19755427.061    -3936498.77249  -3057360.49949  19755427.3524   19755431.7684
  23322949.156    -8330227.775 9  -6463823.456 9  23322948.998    23322953.769
  23129303.614    -7254281.01749  -5634186.83249  23129302.7674   23129310.0364
  22302704.954     1847646.91449   1432947.00249  22302704.5094   22302710.4574
  22981148.177    -8816106.29949  -6849183.30149  22981147.0734   22981154.2784
  23258440.059     2529579.91149   1965695.97349  23258441.0964   23258446.6784
 96  9 18 16  1 29.9980000  0  8 22 17  6 28 26 10 23 16
  23888274.307    -7727514.96549  -6007937.90149  23888273.6024   23888279.2124
  21077887.507    -6487140.51849  -5037015.69049  21077886.9824   21077892.5254
  19742261.175    -4005686.41349  -3111272.95449  19742261.2774   19742265.8934
  23293097.661    -8487098.566 9  -6586060.434 9  23293097.224    23293102.206
  23103193.195    -7391491.57849  -5741104.16749  23103193.3024   23103199.8464
  22307810.420     1874476.17749   1453852.88749  22307809.6454   22307815.0404
  22950707.729    -8976071.86049  -6973831.75649  22950707.3464   22950714.3064
  23265357.404     2565930.94749   1994021.40449  23265358.9274   23265360.2474
 96  9 18 16  1 59.9980000  0  8 22 17  6 28 26 10 23 16
  23862798.072    -7861393.21249  -6112258.60049  23862797.9894   23862803.8014
  21055854.628    -6602924.01149  -5127236.58849  21055853.9464   21055859.9794
  19729087.475    -4074914.88149  -3165217.22049  19729087.3174   19729092.1584
  23263164.081    -8644400.431 9  -6708633.307 9  23263163.637    23263168.680
  23077042.614    -7528913.48949  -5848186.16649  23077042.2264   23077050.0024
  22312883.029     1901132.89749   1474624.34749  22312881.8334   22312888.8014
  22920213.844    -9136318.49349  -7098699.23549  22920213.5964   22920219.8894
  23272225.292     2602021.71749   2022144.06049  23272224.7144   23272230.2134
 96  9 18 16  2 29.9980000  0  8 22 17  6 28 26 10 23 16
  23837307.319    -7995347.99949  -6216638.95449  23837305.5574   23837312.2074
  21033783.253    -6718909.98149  -5217615.25949  21033782.8954   21033788.4104
  19715908.753    -4144169.23749  -3219181.65849  19715908.4114   19715913.3254
  23233151.587    -8802116.562 9  -6831528.984 9  23233150.964    23233156.066
  23050854.628    -7666533.02849  -5955422.16149  23050855.2054   23050860.0664
  22317929.793     1927653.56649   1495289.76149  22317928.8694   22317935.2994
  22889673.846    -9296807.22949  -7223755.35749  22889672.9594   22889680.5154
  23279047.556     2637872.96249   2050080.06749  23279046.1624   23279056.6764
 96  9 18 16  2 59.9980000  0  8 22 17  6 28 26 10 23 16
  23811804.610    -8129365.59649  -6321068.25249  23811803.8314   23811809.7024
  21011673.477    -6835097.80949  -5308151.22349  21011672.9914   21011678.6644
  19702725.083    -4213449.50549  -3273166.28949  19702724.9174   19702729.6364
  23203064.085    -8960226.852 9  -6954731.788 9  23203063.463    23203068.840
  23024631.163    -7804339.01949  -6062803.46249  23024630.9504   23024636.6264
  22322956.577     1954069.40149   1515873.51149  22322955.6094   22322961.4584
  22859094.572    -9457502.58349  -7348972.48449  22859094.1584   22859099.9464
  23285825.178     2673489.11749   2077832.90349  23285822.5804   23285831.4964
 96  9 18 16  3 29.9980000  0  8 22 17  6 28 26 10 23 16
  23786291.786    -8263436.43849  -6425539.03649  23786291.0734   23786296.4664
  20989520.626    -6951511.67849  -5398863.32349  20989519.9784   20989525.9654
  19689536.491    -4282755.90249  -3327171.27749  19689536.4484   19689541.1664
  23172901.225    -9118733.331 9  -7078243.327 9  23172900.715    23172906.089
  22998369.288    -7942346.20349  -6170341.53749  22998370.2404   22998375.2454
  22327961.621     1980370.84349   1536368.11449  22327960.8844   22327966.4894
  22828476.707    -9618400.63949  -7474347.56649  22828477.0144   22828482.8824
  23292557.149     2708865.57849   2105398.93149  23292557.5384   23292564.2254
 96  9 18 16  3 59.9980000  0  8 22 17  6 28 26 10 23 16
  23760769.642    -8397556.59249  -6530048.24449  23760768.7224   23760774.5634
  20967327.369    -7068138.11549  -5489741.06149  20967326.9424   20967332.3194
  19676345.394    -4352075.75949  -3381186.75349  19676345.4004   19676350.0984
  23142665.230    -9277623.831 9  -7202054.097 9  23142664.847    23142669.741
  22972069.589    -8080551.65749  -6278034.11549  22972069.8374   22972076.4514
  22332942.767     2006546.62749   1556764.82349  22332942.2364   22332948.0404
  22797819.186    -9779507.01149  -7599884.98549  22797819.0084   22797825.2194
  23299247.397     2744023.08149   2132794.34249  23299247.8264   23299253.7624
 96  9 18 16  4 29.9980000  0  8 22 17  6 28 26 10 23 16
  23735238.680    -8531722.74949  -6634593.31649  23735237.5874   23735243.5924
  20945094.291    -7184973.57549  -5580781.67549  20945093.6134   20945099.6864
  19663149.706    -4421419.88049  -3435221.13849  19663149.8254   19663154.4204
  23112356.361    -9436897.503 9  -7326163.440 9  23112355.649    23112361.331
  22945732.399    -8218954.49949  -6385880.50849  22945731.6904   22945739.7734
  22337899.470     2032593.80349   1577061.30349  22337898.3154   22337904.2734
  22767116.207    -9940852.08949  -7725608.39349  22767114.8344   22767121.8664
  23305897.161     2778967.48249   2160023.72149  23305894.5854   23305901.3074
 96  9 18 16  4 59.9980000  0  8 22 17  6 28 26 10 23 16
  23709698.343    -8665938.07549  -6739176.68049  23709697.9684   23709703.1424
  20922821.054    -7302020.26649  -5671986.87949  20922820.5334   20922826.3014
  19649949.084    -4490789.87349  -3489275.68949  19649949.2434   19649953.8294
  23081974.139    -9596556.712 9  -7450573.202 9  23081973.752    23081978.750
  22919357.405    -8357555.91849  -6493881.62349  22919357.5694   22919365.1994
  22342828.007     2058493.51649   1597242.88149  22342827.5324   22342833.6064
  22736363.887   -10102456.40649  -7851533.81049  22736363.2034   22736368.7074
  23312503.582     2813684.55049   2187075.92449  23312501.4414   23312508.8614
 96  9 18 16  5 29.9980000  0  8 22 17  6 28 26 10 23 16
  23684146.522    -8800213.75949  -6843807.09449  23684145.9074   23684149.9854
  20900510.413    -7419263.55749  -5763345.28249  20900509.9184   20900515.5334
  19636746.853    -4560168.20349  -3543336.73549  19636746.5934   19636751.3564
  23051519.712    -9756595.740 9  -7575278.937 9  23051519.485    23051524.487
  22892946.573    -8496345.92949  -6602029.68049  22892947.4724   22892951.1844
  22347725.134     2084228.15149   1617295.81649  22347723.7434   22347729.8554
  22705560.281   -10264330.36549  -7977669.32649  22705559.4984   22705565.2924
  23319068.940     2848185.98949   2213960.12349  23319068.1554   23319073.4824
 96  9 18 16  5 59.9980000  0  8 22 17  6 28 26 10 23 16
  23658583.969    -8934545.59849  -6948481.26149  23658583.8634   23658588.7424
  20878167.333    -7536677.40249  -5854836.58649  20878166.7764   20878172.5114
  19623545.375    -4629542.19849  -3597394.40449  19623545.2024   19623550.0564
  23020995.908    -9916999.078 9  -7700268.537 9  23020995.726    23021000.742
  22866504.782    -8635298.48749  -6710304.38949  22866503.9494   22866509.3224
  22352593.714     2109812.97749   1637232.02949  22352592.3424   22352599.4354
  22674709.283   -10426453.23549  -8103998.80249  22674709.3254   22674714.9764
  23325595.630     2882483.96549   2240685.76449  23325595.4164   23325599.5014
 96  9 18 16  6 29.9980000  0  8 22 17  6 28 26 10 23 16
  23633015.057    -9068911.21249  -7053181.75449  23633014.2654   23633019.7324
  20855793.972    -7654250.18849  -5946451.73749  20855793.6254   20855799.2474
  19610347.340    -4698898.19049  -3651438.04749  19610347.2894   19610351.9834
  22990405.069   -10077754.812 9  -7825532.735 9  22990404.874    22990409.967
  22840033.626    -8774404.82849  -6818698.91549  22840033.6244   22840038.2384
  22357437.455     2135267.46449   1657066.67449  22357436.0894   22357442.8824
  22643817.822   -10588788.38649  -8230493.71449  22643817.1824   22643822.5854
  23332084.604     2916583.83349   2267257.10749  23332084.0344   23332089.8404
 96  9 18 16  6 59.9980000  0  8 22 17  6 28 26 10 23 16
  23607443.336    -9203291.71349  -7157893.83849  23607442.5384   23607449.6274
  20833392.799    -7771969.29149  -6038180.90149  20833392.5624   20833398.2064
  19597156.818    -4768214.71449  -3705450.93149  19597156.9314   19597161.3344
  22959750.857   -10238843.866 9  -7951056.658 9  22959750.226    22959755.558
  22813534.586    -8913658.03249  -6927207.87949  22813534.0394   22813540.7234
  22362256.281     2160590.41649   1676798.81249  22362255.1334   22362262.1944
  22612894.374   -10751291.44949  -8357119.44249  22612894.2794   22612900.5354
  23338538.814     2950500.68349   2293685.76549  23338540.8744   23338545.6174
 96  9 18 16  7 29.9980000  0  8 22 17  6 28 26 10 23 16
  23581875.091    -9337653.93049  -7262591.65849  23581873.7194   23581879.4314
  20810967.217    -7889816.54849  -6130009.92749  20810966.7384   20810972.7094
  19583979.740    -4837461.16549  -3759409.21549  19583980.0034   19583984.2444
  22929037.121   -10400245.096 9  -8076823.838 9  22929036.788    22929042.123
  22787010.756    -9053041.23549  -7035818.13449  22787010.0514   22787017.6444
  22367052.975     2185796.98849   1696440.26949  22367052.2324   22367058.7674
  22581945.070   -10913930.50549  -8483851.17049  22581944.9954   22581950.9324
  23344960.045     2984243.97349   2319979.22949  23344959.2514   23344968.6944
 96  9 18 16  7 59.9970000  0  8 22 17  6 28 26 10 23 16
  23556317.600    -9471959.25049  -7367245.14749  23556315.9624   23556322.2154
  20788521.944    -8007767.25149  -6221919.55549  20788521.2164   20788526.9244
  19570819.486    -4906618.98049  -3813298.42849  19570819.4444   19570823.9614
  22898268.111   -10561937.436 9  -8202817.874 9  22898268.279    22898273.130
  22760466.478    -9192531.66049  -7144511.93549  22760465.9174   22760472.8374
  22371831.096     2210906.10449   1716005.77249  22371830.2044   22371836.8084
  22550974.749   -11076681.15849  -8610669.83149  22550974.7854   22550981.6934
  23351348.335     3017814.11549   2346137.73749  23351348.9384   23351355.4834
 96  9 18 16  8 29.9970000  0  8 22 17  6 28 26 10 23 16
  23530772.135    -9606201.45249  -7471849.47149  23530771.5164   23530776.8994
  20766058.629    -8125812.81349  -6313903.10949  20766058.0974   20766063.9914
  19557675.776    -4975689.67949  -3867119.75749  19557675.7334   19557680.2874
  22867443.906   -10723920.273 9  -8329038.266 9  22867444.098    22867448.925
  22733903.333    -9332121.25849  -7253283.00649  22733903.6764   22733909.6324
  22376589.804     2235913.22349   1735491.81449  22376589.2904   22376595.2284
  22519982.191   -11239548.49049  -8737579.41349  22519981.9414   22519988.5144
  23357704.512     3051215.60849   2372164.95349  23357704.1484   23357711.2994
 96  9 18 16  8 59.9970000  0  8 22 17  6 28 26 10 23 16
  23505241.646    -9740365.27549  -7576392.70249  23505239.8714   23505246.9134
  20743581.395    -8243931.49349  -6405943.63549  20743580.6184   20743586.5654
  19544550.430    -5044663.94049  -3920865.93649  19544550.4294   19544555.1714
  22836567.178   -10886179.016 9  -8455473.632 9  22836567.094    22836572.058
  22707326.452    -9471783.23249  -7362110.47849  22707325.5764   22707333.0204
  22381329.406     2260819.83149   1754899.54349  22381328.1394   22381335.0484
  22488966.077   -11402539.71949  -8864585.55949  22488966.0434   22488972.3444
  23364027.125     3084440.89049   2398054.74849  23364029.1094   23364031.3354
 96  9 18 16  9 29.9970000  0  8 22 17  6 28 26 10 23 16
  23479729.845    -9874430.82649  -7680859.39349  23479729.6314   23479735.1014
  20721093.362    -8362106.63049  -6498028.15449  20721092.8264   20721098.9734
  19531445.447    -5113531.23149  -3974528.77449  19531445.4824   19531450.1274
  22805640.324   -11048701.184 9  -8582114.269 9  22805640.324    22805645.191
  22680743.530    -9611476.84549  -7470962.59849  22680743.4884   22680749.7974
  22386053.997     2285647.37649   1774245.66449  22386053.2584   22386059.4484
  22457926.286   -11565655.15749  -8991688.48749  22457925.3524   22457932.0044
  23370319.255     3117506.50149   2423820.12649  23370315.7574   23370319.8934
 96  9 18 16  9 59.9970000  0  8 22 17  6 28 26 10 23 16
  23454237.956   -10008391.67449  -7785244.47949  23454238.0694   23454243.2624
  20698595.819    -8480331.99049  -6590151.80449  20698595.5604   20698601.4364
  19518359.371    -5182298.94749  -4028114.01649  19518359.3614   19518364.2294
  22774665.910   -11211473.420 9  -8708949.782 9  22774666.307    22774670.612
  22654160.325    -9751172.15049  -7579816.03549  22654159.7524   22654166.5094
  22390765.132     2310404.18249   1793536.66049  22390764.6764   22390770.8784
  22426867.843   -11728868.53149  -9118867.73249  22426866.7934   22426874.0714
  23376585.061     3150433.93049   2449477.77449  23376584.4474   23376587.2094
 96  9 18 16 10 29.9970000  0  8 22 17  6 28 26 10 23 16
  23428769.244   -10142230.73749  -7889534.65449  23428768.4214   23428773.8384
  20676090.424    -8598598.94449  -6682307.87249  20676089.8714   20676095.9844
  19505297.167    -5250941.08449  -4081601.40349  19505296.9844   19505302.1134
  22743647.644   -11374476.122 9  -8835964.868 9  22743647.470    22743652.135
  22627579.097    -9890856.39949  -7688660.85549  22627578.2944   22627585.4864
  22395465.972     2335107.10449   1812785.67549  22395465.0324   22395470.8994
  22395795.562   -11892153.93049  -9246103.09449  22395794.9844   22395801.8384
  23382830.265     3183252.77849   2475050.81749  23382832.9024   23382837.1174
 96  9 18 16 10 59.9970000  0  8 22 17  6 28 26 10 23 16
  23403324.190   -10275945.20749  -7993727.74049  23403323.0574   23403328.2464
  20653575.309    -8716916.66249  -6774503.49449  20653574.9784   20653580.8954
  19492263.237    -5319434.45649  -4134972.86549  19492263.1774   19492268.2354
  22712586.679   -11537702.745 9  -8963154.444 9  22712586.574    22712591.111
  22600999.811   -10030531.19449  -7797498.31149  22600999.8934   22601005.8674
  22400159.208     2359770.18149   1832003.63349  22400158.5534   22400164.6484
  22364710.347   -12055507.27349  -9373391.39649  22364710.1634   22364716.3904
  23389057.027     3215974.54949   2500548.25849  23389054.6144   23389065.6654
 96  9 18 16 11 29.9970000  0  8 22 17  6 28 26 10 23 16
  23377904.538   -10409526.28449  -8097816.89749  23377904.7634   23377909.8534
  20631049.649    -8835289.92449  -6866742.39749  20631049.0524   20631055.0124
  19479261.077    -5387761.36749  -4188214.61449  19479261.1484   19479265.6924
  22681486.272   -11701136.711 9  -9090505.571 9  22681486.014    22681490.866
  22574423.558   -10170190.70549  -7906323.86349  22574424.0414   22574429.7034
  22404846.435     2384401.46049   1851196.79949  22404845.8984   22404851.7144
  22333615.586   -12218910.90949  -9500718.87749  22333614.8804   22333621.8454
  23395269.604     3248621.51649   2525987.43349  23395269.7624   23395277.8804
 96  9 18 16 11 59.9970000  0  8 22 17  6 28 26 10 23 16
  23352509.589   -10542977.60149  -8201804.94149  23352510.3044   23352514.7754
  20608512.752    -8953722.30249  -6959027.36149  20608512.2744   20608518.1664
  19466294.633    -5455900.73449  -4241310.23249  19466294.8844   19466299.3484
  22650348.258   -11864768.379 9  -9218010.771 9  22650348.280    22650352.711
  22547848.464   -10309844.32649  -8015144.83149  22547848.9094   22547855.0904
  22409528.887     2409007.65449   1870370.44449  22409527.5774   22409535.0634
  22302511.291   -12382364.48849  -9628085.28549  22302510.5734   22302517.6574
  23401466.763     3281187.15849   2551363.23449  23401467.9414   23401471.7304
 96  9 18 16 12 29.9970000  0  8 22 17  6 28 26 10 23 16
  23327140.772   -10676291.37549  -8305685.79549  23327139.8274   23327145.1844
  20585966.450    -9072203.66249  -7051350.49149  20585965.9024   20585971.6794
  19453367.199    -5523834.91149  -4294245.96049  19453367.2644   19453371.8794
  22619174.093   -12028589.834 9  -9345663.840 9  22619173.912    22619178.756
  22521274.940   -10449490.04449  -8123959.63449  22521275.5154   22521280.7614
  22414208.478     2433598.82249   1889532.37749  22414207.7574   22414213.9874
  22271397.005   -12545871.04849  -9755492.97749  22271396.4934   22271402.6844
  23407649.505     3313676.91349   2576679.87049  23407647.2634   23407656.4374
 96  9 18 16 12 59.9970000  0  8 22 17  6 28 26 10 23 16
  23301800.091   -10809457.49249  -8409451.59849  23301798.6704   23301805.1064
  20563412.588    -9190725.18549  -7143704.91749  20563411.7064   20563417.9294
  19440476.793    -5591574.55249  -4347030.10349  19440476.7284   19440481.5624
  22587966.222   -12192588.266 9  -9473454.820 9  22587966.056    22587970.898
  22494706.912   -10589106.37849  -8232751.55949  22494707.2484   22494713.2054
  22418886.976     2458183.75549   1908689.43449  22418886.1684   22418892.8774
  22240275.170   -12709417.45249  -9882931.72849  22240274.8284   22240280.8164
  23413816.382     3346083.68649   2601931.86749  23413817.5314   23413825.3734
 96  9 18 16 13 29.9970000  0  8 22 17  6 28 26 10 23 16
  23276490.818   -10942458.74849  -8513088.93949  23276491.2104   23276495.4944
  20540855.607    -9309263.03449  -7236072.05949  20540855.1424   20540860.9054
  19427623.730    -5659118.11049  -4399661.44149  19427623.7564   19427628.4374
  22556727.321   -12356749.841 9  -9601372.921 9  22556727.143    22556731.677
  22468149.128   -10728668.30849  -8341501.08949  22468150.2234   22468154.8594
  22423565.886     2482771.22549   1927848.46549  22423565.7784   22423571.6074
  22209150.857   -12872977.08249 -10010380.77849  22209150.6454   22209156.4394
  23419966.197     3378400.86649   2627114.10249  23419964.8964   23419974.6704
 96  9 18 16 13 59.9970000  0  8 22 17  6 28 26 10 23 16
  23251214.899   -11075284.55349  -8616589.59249  23251215.2294   23251219.7954
  20518298.373    -9427802.26049  -7328440.28249  20518297.7984   20518303.6794
  19414808.285    -5726464.03149  -4452138.78149  19414808.3184   19414813.1654
  22525458.248   -12521070.288 9  -9729414.812 9  22525458.040    22525462.415
  22441602.943   -10868169.44549  -8450203.23649  22441603.4514   22441608.5584
  22428245.821     2507364.25449   1947011.85049  22428245.2094   22428251.2954
  22178026.906   -13036534.51149 -10137828.11149  22178027.0314   22178032.7494
  23426097.495     3410620.83349   2652220.51849  23426098.9494   23426102.7044
 96  9 18 16 14 29.9970000  0  8 22 17  6 28 26 10 23 16
  23225977.939   -11207905.71149  -8719930.74949  23225976.5714   23225982.0014
  20495746.460    -9546313.30949  -7420786.54849  20495745.7904   20495751.9914
  19402029.738    -5793616.05449  -4504465.03849  19402029.6644   19402034.6164
  22494161.746   -12685534.615 9  -9857568.828 9  22494161.326    22494166.137
  22415071.434   -11007594.08049  -8558845.78949  22415071.8194   22415076.7704
  22432926.799     2531962.75149   1966179.49149  22432926.7984   22432931.9624
  22146906.789   -13200071.84949 -10265259.78649  22146907.0154   22146912.6414
  23432212.359     3442754.84549   2677259.98549  23432214.8054   23432217.0244
 96  9 18 16 14 59.9970000  0  8 22 17  6 28 26 10 23 16
  23200783.591   -11340303.00449  -8823097.47949  23200782.1934   23200787.5804
  20473200.465    -9664793.34349  -7513108.64949  20473199.8094   20473206.1134
  19389289.671    -5860565.43449  -4556633.39449  19389289.4144   19389294.2054
  22462840.113   -12850130.608 9  -9985825.433 9  22462839.730    22462844.657
  22388556.618   -11146930.90549  -8667419.89549  22388557.5744   22388562.2664
  22437607.832     2556561.75449   1985347.52849  22437607.1284   22437612.9234
  22115790.992   -13363586.69449 -10392673.94149  22115790.8674   22115796.7724
  23438310.183     3474799.15949   2702229.60649  23438308.1474   23438316.7284
 96  9 18 16 15 29.9970000  0  8 22 17  6 28 26 10 23 16
  23175634.731   -11472460.97649  -8926077.68349  23175633.0234   23175639.4824
  20450662.247    -9783232.44349  -7605398.84349  20450661.7714   20450667.8234
  19376592.598    -5927288.66149  -4608625.52449  19376592.3944   19376597.2864
  22431496.071   -13014844.557 9 -10114173.962 9  22431495.769    22431500.644
  22362060.005   -11286171.96649  -8775919.40349  22362059.4284   22362066.3694
  22442290.980     2581171.97149   2004524.30249  22442289.7364   22442296.2894
  22084680.551   -13527073.28649 -10520066.07249  22084679.7544   22084686.6764
  23444395.680     3506778.88049   2727148.76549  23444393.8444   23444400.2714
 96  9 18 16 15 59.9970000  0  8 22 17  6 28 26 10 23 16
  23150530.881   -11604382.50249  -9028873.68449  23150530.1414   23150535.1134
  20428128.242    -9901649.33049  -7697671.73449  20428127.7514   20428133.7314
  19363936.500    -5993796.86149  -4660450.10249  19363936.4464   19363941.3414
  22400128.493   -13179682.159 9 -10242618.841 9  22400128.334    22400133.277
  22335577.809   -11425336.34249  -8884359.14649  22335577.1424   22335583.6414
  22446974.000     2605781.43049   2023700.47949  22446973.0044   22446979.2064
  22053573.146   -13690544.09149 -10647445.91149  22053573.6794   22053579.5164
  23450470.628     3538702.96149   2752024.65249  23450470.1874   23450477.7934
 96  9 18 16 16 29.9970000  0  8 22 17  6 28 26 10 23 16
  23125473.208   -11736061.40449  -9131480.62049  23125472.2594   23125477.2404
  20405599.614   -10020038.12549  -7789922.73649  20405599.0084   20405605.0304
  19351322.031    -6060086.34849  -4712104.25749  19351322.1084   19351326.7514
  22368738.416   -13344638.126 9 -10371155.963 9  22368738.565    22368742.904
  22309113.951   -11564403.96749  -8992723.50649  22309114.8214   22309119.7134
  22451657.356     2630392.76049   2042878.10349  22451656.7514   22451662.4834
  22022472.059   -13853981.77449 -10774799.94049  22022471.2304   22022478.3544
  23456537.608     3570585.41349   2776868.13249  23456535.6484   23456544.7024
 96  9 18 16 16 59.9970000  0  8 22 17  6 28 26 10 23 16
  23100458.666   -11867513.77949  -9233911.04849  23100458.4454   23100462.7684
  20383074.979   -10138405.73949  -7882157.22849  20383074.3114   20383080.1654
  19338752.072    -6126142.15149  -4763576.32649  19338752.1104   19338756.9204
  22337325.707   -13509712.957 9 -10499785.697 9  22337325.561    22337330.407
  22282670.852   -11703363.39349  -9101003.55749  22282671.6274   22282677.3324
  22456341.372     2655007.42249   2062058.32949  22456340.4094   22456346.3624
  21991380.060   -14017371.41749 -10902116.53249  21991379.7254   21991385.7034
  23462598.397     3602435.26049   2801686.17849  23462596.7924   23462603.4144
 96  9 18 16 17 29.9970000  0  8 22 17  6 28 26 10 23 16
  23075487.200   -11998739.33749  -9336164.71249  23075486.3934   23075492.4234
  20360557.869   -10256733.70049  -7974360.82249  20360557.0804   20360563.2014
  19326228.038    -6191956.68649  -4814860.38649  19326227.8014   19326232.5684
  22305890.577   -13674905.753 9 -10628507.357 9  22305890.343    22305895.463
  22256249.234   -11842210.14849  -9209195.78749  22256249.9594   22256255.2884
  22461027.577     2679633.45449   2081247.40349  22461026.9754   22461033.6424
  21960299.496   -14180701.00549 -11029386.33249  21960298.7724   21960305.2964
  23468653.482     3634255.04449   2826480.62649  23468654.0694   23468662.0894
 96  9 18 16 17 59.9970000  0  8 22 17  6 28 26 10 23 16
  23050560.725   -12129728.90949  -9438234.51949  23050560.5694   23050565.3744
  20338050.928   -10375008.39449  -8066522.92249  20338050.4014   20338056.2874
  19313752.533    -6257515.55249  -4865945.21849  19313752.3274   19313757.2534
  22274432.847   -13840217.307 9 -10757321.550 9  22274432.401    22274437.310
  22229851.812   -11980929.48049  -9317288.72549  22229853.1734   22229856.9034
  22465713.238     2704256.43449   2100434.13949  22465712.6414   22465717.7134
  21929232.174   -14343960.86849 -11156601.81249  21929231.3994   21929238.5544
  23474699.193     3666025.24049   2851236.72849  23474700.3434   23474709.3104
 96  9 18 16 18 29.9970000  0  8 22 17  6 28 26 10 23 16
  23025677.743   -12260489.76349  -9540126.07949  23025677.7654   23025682.0744
  20315554.226   -10493229.50249  -8158643.25549  20315553.6454   20315559.5714
  19301327.353    -6322809.95249  -4916823.97649  19301327.1594   19301331.9224
  22242952.355   -14005648.048 9 -10886228.618 9  22242951.885    22242957.153
  22203481.058   -12119508.38449  -9425272.25549  22203481.3304   22203487.2714
  22470396.275     2728865.59749   2119610.09249  22470395.7294   22470400.9864
  21898175.704   -14507163.75649 -11283772.88449  21898175.2094   21898181.3064
  23480731.365     3697724.68349   2875937.48749  23480730.2794   23480734.4014
 96  9 18 16 18 59.9970000  0  8 22 17  6 28 26 10 23 16
  23000837.640   -12391025.28449  -9641842.07849  23000836.6924   23000841.5054
  20293064.849   -10611411.93049  -8250733.45049  20293064.3844   20293070.1324
  19288952.557    -6387840.07049  -4967496.81049  19288952.6564   19288957.5174
  22211449.522   -14171196.386 9 -11015227.320 9  22211449.184    22211454.299
  22177135.219   -12257955.93549  -9533153.42049  22177134.8194   22177142.0744
  22475076.075     2753457.93949   2138772.97949  22475074.7404   22475081.4874
  21867124.162   -14670340.50149 -11410923.59149  21867123.5454   21867129.6184
  23486745.959     3729331.38249   2900566.13249  23486744.5954   23486755.5734
 96  9 18 16 19 29.9960000  0  8 22 17  6 28 26 10 23 16
  22976042.715   -12521323.18249  -9743372.89449  22976042.9564   22976046.2874
  20270582.259   -10729559.06649  -8342796.14649  20270581.6584   20270587.5144
  19276626.200    -6452615.62149  -5017971.28349  19276626.2694   19276630.9424
  22179925.771   -14336854.696 9 -11144311.725 9  22179925.467    22179930.611
  22150814.906   -12396269.11249  -9640929.89749  22150814.1804   22150821.5484
  22479752.307     2778031.62149   2157921.29149  22479751.3524   22479758.1594
  21836077.205   -14833493.69749 -11538055.95449  21836076.7694   21836083.4304
  23492738.952     3760824.64949   2925106.32449  23492738.7654   23492740.0154
 96  9 18 16 19 59.9960000  0  8 22 17  6 28 26 10 23 16
  22951286.099   -12651419.98949  -9844747.03749  22951285.4364   22951289.6904
  20248101.602   -10847695.50149  -8434850.51049  20248100.9714   20248106.8874
  19264344.577    -6517156.14549  -5068262.60149  19264344.7024   19264349.1974
  22148378.611   -14502635.939 9 -11273491.902 9  22148378.457    22148383.586
  22124519.276   -12534453.20249  -9748605.78449  22124519.4444   22124526.1394
  22484424.805     2802585.60549   2177054.26949  22484423.9174   22484430.3174
  21805030.445   -14996645.63949 -11665187.31849  21805030.1124   21805036.2284
  23498709.814     3792201.86449   2949556.04949  23498708.0534   23498719.9614
 96  9 18 16 20 29.9960000  0  8 22 17  6 28 26 10 23 16
  22926566.994   -12781319.38349  -9945967.34949  22926566.3484   22926571.0524
  20225624.157   -10965815.18449  -8526891.82149  20225623.5524   20225629.2294
  19252104.170    -6581480.06449  -5118385.14049  19252104.2664   19252109.0034
  22116810.388   -14668528.216 9 -11402758.609 9  22116810.341    22116815.394
  22098249.196   -12672503.20049  -9856177.16449  22098249.6204   22098255.5424
  22489097.341     2827139.68649   2196187.30249  22489096.1534   22489103.1084
  21773983.852   -15159796.64149 -11792317.95349  21773983.3054   21773989.2034
  23504661.150     3823476.57549   2973925.95049  23504656.5054   23504662.5404
 96  9 18 16 20 59.9960000  0  8 22 17  6 28 26 10 23 16
  22901888.748   -12911004.29049 -10047020.53049  22901888.0334   22901893.6344
  20203153.964   -11083896.76149  -8618903.43749  20203153.4484   20203159.2624
  19239907.287    -6645575.18649  -5168329.40049  19239907.4494   19239912.2554
  22085224.108   -14834515.443 9 -11532099.286 9  22085224.028    22085229.482
  22072006.477   -12810409.96649  -9963636.94149  22072006.4484   22072011.4054
  22493774.949     2851720.45449   2215341.10649  22493774.9544   22493780.9334
  21742945.309   -15322905.08349 -11919415.41749  21742944.7134   21742951.0794
  23510598.851     3854679.58649   2998240.02149  23510599.3214   23510606.2034
 96  9 18 16 21 29.9960000  0  8 22 17  6 28 26 10 23 16
  22877252.947   -13040466.28449 -10147900.01349  22877251.8984   22877257.4924
  20180693.656   -11201926.46649  -8710874.63749  20180693.2374   20180698.8984
  19227754.488    -6709438.86449  -5218093.32349  19227754.4334   19227759.3034
  22053619.798   -15000597.753 9 -11661514.067 9  22053619.817    22053624.956
  22045790.667   -12948175.17349 -10070986.42049  22045790.9764   22045797.3574
  22498456.140     2876320.10949   2234509.61749  22498454.8944   22498461.8104
  21711920.938   -15485939.28649 -12046455.03549  21711920.3004   21711926.9764
  23516524.388     3885819.25649   3022504.52649  23516525.5284   23516532.4104
 96  9 18 16 21 59.9960000  0  8 22 17  6 28 26 10 23 16
  22852661.982   -13169692.99249 -10248596.14749  22852661.9314   22852667.1294
  20158243.665   -11319902.13249  -8802803.72049  20158243.2794   20158249.0314
  19215645.454    -6773072.31749  -5267677.84049  19215645.3664   19215650.2684
  22021996.969   -15166776.903 9 -11791004.299 9  22021996.689    22022001.932
  22019600.763   -13085803.88249 -10178229.54849  22019601.3774   22019607.0024
  22503138.532     2900926.42249   2253683.34249  22503137.8024   22503144.3564
  21680910.800   -15648898.23749 -12173436.01049  21680910.2484   21680916.9924
  23522437.700     3916893.74849   3046718.38749  23522435.6374   23522443.0064
 96  9 18 16 22 29.9960000  0  8 22 17  6 28 26 10 23 16
  22828121.161   -13298655.70749 -10349086.58449  22828120.1414   22828126.1754
  20135801.986   -11437833.87849  -8894698.57949  20135801.5654   20135807.2924
  19203582.052    -6836465.73749  -5317075.32249  19203581.9274   19203586.8984
  21990356.197   -15333050.321 9 -11920568.000 9  21990355.873    21990361.018
  21993434.227   -13223310.37549 -10285377.43849  21993434.5924   21993441.0344
  22507818.582     2925520.35349   2272847.41149  22507817.7124   22507823.9204
  21649918.267   -15811764.55749 -12300344.80649  21649917.9444   21649924.0524
  23528337.388     3947896.83749   3070876.58449  23528337.0214   23528343.6014
 96  9 18 16 22 59.9960000  0  8 22 17  6 28 26 10 23 16
  22803631.265   -13427351.19349 -10449368.78749  22803630.1854   22803636.0344
  20113365.669   -11555737.59649  -8986571.60149  20113365.3674   20113370.9244
  19191567.282    -6899603.52549  -5366273.61549  19191567.2044   19191572.0294
  21958697.140   -15499419.843 9 -12050206.590 9  21958697.070    21958701.900
  21967290.041   -13360699.45549 -10392433.82649  21967290.2614   21967296.1764
  22512489.790     2950067.85849   2291975.28849  22512487.8794   22512495.3074
  21618944.595   -15974532.27349 -12427176.77749  21618943.9274   21618950.1294
  23534218.675     3978802.78149   3094959.12449  23534217.9004   23534223.6604
 96  9 18 16 23 29.9960000  0  8 22 17  6 28 26 10 23 16
  22779191.007   -13555786.10249 -10549447.95149  22779190.1454   22779196.1604
  20090931.606   -11673629.59849  -9078435.49249  20090931.1484   20090936.6724
  19179596.430    -6962510.78149  -5415292.25149  19179596.2824   19179601.0984
  21927018.279   -15665893.374 9 -12179926.214 9  21927017.761    21927022.758
  21941167.955   -13497972.41649 -10499399.74249  21941168.5054   21941173.5684
  22517146.081     2974536.84249   2311041.98549  22517144.5554   22517152.3564
  21587982.301   -16137240.26649 -12553962.20149  21587981.4514   21587988.3094
  23540074.729     4009576.31749   3118938.49549  23540074.7054   23540082.2664
 96  9 18 16 23 59.9960000  0  8 22 17  6 28 26 10 23 16
  22754798.591   -13683969.32749 -10649331.00149  22754797.9814   22754802.8414
  20068498.458   -11791516.68649  -9170295.56449  20068498.0384   20068503.7684
  19167669.009    -7025189.72549  -5464132.98749  19167668.9494   19167673.8864
  21895320.564   -15832465.908 9 -12309723.013 9  21895320.465    21895324.973
  21915070.007   -13635118.15049 -10606266.51149  21915070.3134   21915075.8654
  22521788.987     2998935.14149   2330053.62249  22521787.6514   22521795.2804
  21557028.702   -16299902.41749 -12680711.91249  21557028.1204   21557034.3064
  23545904.213     4040210.30349   3142809.07549  23545903.6904   23545912.5504
 96  9 18 16 24 29.9960000  0  8 22 17  6 28 26 10 23 16
  22730453.195   -13811905.05849 -10749021.18849  22730452.3454   22730458.5074
  20046067.552   -11909391.84149  -9262146.32849  20046066.8774   20046072.6554
  19155790.318    -7087612.95149  -5512774.46949  19155790.6324   19155794.9744
  21863606.749   -15999122.649 9 -12439585.421 9  21863606.500    21863611.400
  21889000.491   -13772113.84249 -10713016.34049  21888999.8214   21889006.1364
  22526421.403     3023278.38849   2349022.36449  22526420.3444   22526426.0954
  21526085.391   -16462510.75249 -12807419.69649  21526085.1914   21526090.7074
  23551711.232     4070725.49149   3166587.14649  23551710.8504   23551718.0904
 96  9 18 16 24 59.9960000  0  8 22 17  6 28 26 10 23 16
  22706154.130   -13939597.41949 -10848521.75049  22706153.8074   22706159.0064
  20023643.731   -12027229.52549  -9353967.89849  20023643.0004   20023648.9494
  19143961.211    -7149775.87849  -5561213.12249  19143961.5714   19143966.1124
  21831878.152   -16165857.279 9 -12569508.505 9  21831877.696    21831882.660
  21862964.114   -13908935.64349 -10819630.68949  21862964.7644   21862969.9294
  22531045.982     3047580.18049   2367958.82749  22531044.3434   22531051.0174
  21495152.664   -16625063.28849 -12934083.98849  21495152.0964   21495157.7774
  23557496.962     4101129.14949   3190278.29449  23557496.9644   23557502.2684
 96  9 18 16 25 29.9960000  0  8 22 17  6 28 26 10 23 16
  22681904.417   -14067030.98549 -10947820.64349  22681903.5954   22681909.3464
  20001228.601   -12145021.55749  -9445753.88849  20001228.0584   20001234.0684
  19132180.565    -7211684.09949  -5609453.29249  19132180.6274   19132185.2494
  21800136.327   -16332661.291 9 -12699485.680 9  21800136.000    21800140.877
  21836962.756   -14045574.05949 -10926102.12849  21836963.5554   21836969.4384
  22535669.092     3071874.37649   2386889.36449  22535668.3714   22535677.3294
  21464233.263   -16787545.96649 -13060693.83349  21464233.0314   21464238.6094
  23563265.053     4131440.13549   3213897.25549  23563265.1214   23563271.3634
 96  9 18 16 25 59.9960000  0  8 22 17  6 28 26 10 23 16
  22657706.931   -14194189.65649 -11046905.32949  22657706.1164   22657711.0914
  19978825.722   -12262749.47349  -9537489.92349  19978825.0174   19978831.0414
  19120455.552    -7273299.24749  -5657465.10349  19120455.2344   19120460.1994
  21768384.062   -16499520.279 9 -12829505.669 9  21768383.392    21768388.566
  21811000.927   -14182004.88949 -11032411.82049  21811000.9284   21811006.5924
  22540295.788     3096187.77049   2405834.85349  22540295.6084   22540300.9114
  21433332.006   -16949933.26949 -13187229.35949  21433331.2644   21433337.3234
  23569021.395     4161689.29349   3237467.98249  23569020.7764   23569028.5214
 96  9 18 16 26 29.9960000  0  8 22 17  6 28 26 10 23 16
  22633563.867   -14321062.56849 -11145767.35949  22633562.9304   22633568.6754
  19956437.496   -12380400.16749  -9629165.78449  19956436.6964   19956442.7164
  19108788.439    -7334609.93349  -5705239.67149  19108788.0614   19108793.2814
  21736622.009   -16666430.575 9 -12959565.635 9  21736621.370    21736626.659
  21785078.621   -14318227.12949 -11138558.97349  21785078.1144   21785083.7384
  22544923.320     3120505.52649   2424783.72949  22544923.0854   22544930.2374
  21402449.818   -17112220.40149 -13313686.83349  21402449.0434   21402455.4224
  23574767.403     4191884.58549   3260996.78349  23574767.7684   23574774.4914
 96  9 18 16 26 59.9960000  0  7 22 17  6 28 26 10 23
  22609478.529   -14447631.92449 -11244392.81749  22609478.2344   22609482.9854
  19934064.013   -12497973.46449  -9720781.33549  19934063.2754   19934069.3504
  19097174.163    -7395642.94949  -5752797.88249  19097174.1314   19097179.0854
  21704850.631   -16833390.228 9 -13089664.052 9  21704850.355    21704855.395
  21759195.457   -14454243.00749 -11244545.33349  21759194.3934   21759200.5424
  22549551.361     3144826.27349   2443734.93749  22549550.7714   22549556.4254
  21371587.608   -17274402.12349 -13440062.17349  21371587.3284   21371593.4224
 96  9 18 16 27 29.9960000  0  7 22 17  6 28 26 10 23
  22585451.211   -14573896.08449 -11342780.48549  22585450.5284   22585456.5414
  19911702.565   -12615483.61649  -9812347.68549  19911702.1754   19911707.7784
  19085612.571    -7456399.63949  -5800140.77549  19085612.8154   19085617.5624
  21673069.385   -17000401.600 9 -13219802.782 9  21673069.626    21673074.124
  21733351.105   -14590054.94249 -11350372.76249  21733350.6944   21733356.9684
  22554178.730     3169143.57649   2462683.45049  22554180.3164   22554182.6804
  21340744.019   -17436486.00849 -13566361.27449  21340743.6914   21340750.0794
 96  9 18 16 27 59.9960000  0  7 22 17  6 28 26 10 23
  22561480.991   -14699860.39349 -11440934.49249  22561479.6334   22561486.4104
  19889355.700   -12732917.16049  -9903854.34049  19889355.2264   19889361.1004
  19074108.614    -7516853.75149  -5847247.87449  19074108.7294   19074113.2354
  21641280.262   -17167454.907 9 -13349974.173 9  21641280.323    21641284.876
  21707548.096   -14725650.51849 -11456031.60349  21707548.6974   21707554.8934
  22558802.445     3193441.60749   2481616.93849  22558802.3964   22558808.9834
  21309919.282   -17598470.88349 -13692583.22649  21309918.6404   21309924.7744
 96  9 18 16 28 29.9960000  0  7 22 17  6 28 26 10 23
  22537569.576   -14825515.45249 -11538847.51549  22537568.6364   22537574.9114
  19867023.403   -12850274.14049  -9995301.33149  19867022.7264   19867028.6254
  19062663.129    -7577000.32749  -5894115.33449  19062663.1634   19062667.7884
  21609485.612   -17334537.273 9 -13480168.223 9  21609485.654    21609490.235
  21681786.770   -14861027.81449 -11561520.35549  21681787.4414   21681793.0914
  22563423.160     3217723.85749   2500538.10749  22563423.4274   22563430.7444
  21279116.847   -17760338.70349 -13818713.96149  21279116.3744   21279122.8204
 96  9 18 16 28 59.9960000  0  7 22 17  6 28 26 10 23
  22513717.298   -14950859.89749 -11636518.51749  22513716.7284   22513722.6524
  19844704.733   -12967559.38949 -10086692.42849  19844704.0474   19844709.8034
  19051276.903    -7636835.36549  -5940740.03849  19051276.8064   19051281.4914
  21577686.630   -17501642.571 9 -13610380.139 9  21577686.818    21577691.110
  21656069.730   -14996172.20549 -11666827.63049  21656068.8464   21656075.5224
  22568044.733     3242010.83549   2519463.03149  22568043.7984   22568049.8164
  21248338.309   -17922080.80749 -13944746.73649  21248337.9724   21248343.4574
 96  9 18 16 29 29.9960000  0  7 22 17  6 28 26 10 23
  22489921.547   -15075907.48749 -11733958.19949  22489920.5824   22489927.2064
  19822401.391   -13084764.17849 -10178020.82149  19822400.8674   19822406.7834
  19039954.836    -7696333.29849  -5987102.07249  19039954.8744   19039959.5444
  21545883.702   -17668768.694 9 -13740608.285 9  21545883.905    21545888.290
  21630397.612   -15131079.82449 -11771950.41749  21630397.7974   21630403.4614
  22572666.922     3266300.55949   2538390.09749  22572664.6494   22572670.2534
  21217582.827   -18083701.80649 -14070685.14449  21217583.1034   21217588.7144
 96  9 18 16 29 59.9950000  0  7 22 17  6 28 26 10 23
  22466182.129   -15200658.81349 -11831167.02349  22466180.9174   22466187.3864
  19800113.301   -13201888.71949 -10269286.69949  19800112.5874   19800118.6024
  19028695.568    -7755501.22949  -6033206.96749  19028695.4784   19028700.4964
  21514077.961   -17835909.602 9 -13870847.955 9  21514078.084    21514082.493
  21604770.518   -15265750.78249 -11876888.79549  21604770.7884   21604775.7104
  22577288.252     3290585.66949   2557313.54749  22577287.2394   22577295.2934
  21186850.729   -18245200.18849 -14196528.01149  21186850.4794   21186856.2434
 96  9 18 16 30 29.9950000  0  7 22 17  6 28 26 10 23
  22442501.228   -15325102.43649 -11928136.08449  22442500.1904   22442506.7304
  19777839.628   -13318937.73849 -10360493.72049  19777839.0874   19777844.9574
  19017495.260    -7814359.36349  -6079070.46949  19017495.2024   19017500.4424
  21482269.732   -18003063.284 9 -14001097.570 9  21482269.534    21482273.758
  21579188.544   -15400184.97049 -11981642.67449  21579188.4494   21579194.8214
  22581912.891     3314888.21249   2576250.52949  22581915.0754   22581921.3034
  21156143.618   -18406567.09349 -14322268.42749  21156142.5274   21156149.0524
 96  9 18 16 30 59.9950000  0  7 22 17  6 28 26 10 23
  22418881.823   -15449222.65649 -12024853.14449  22418881.7914   22418887.3904
  19755582.911   -13435897.61049 -10451631.27849  19755582.7954   19755588.0874
  19006351.299    -7872921.43749  -6124703.27149  19006351.0774   19006356.3044
  21450461.061   -18170219.508 9 -14131349.175 9  21450460.475    21450465.297
  21553652.685   -15534376.86749 -12086207.75949  21553652.0674   21553658.1414
  22586539.612     3339201.52549   2595195.91149  22586539.6444   22586547.8544
  21125462.872   -18567795.29349 -14447900.77949  21125462.7864   21125468.2924
 96  9 18 16 31 29.9950000  0  7 22 17  6 28 26 10 23
  22395324.978   -15573015.19349 -12121314.87049  22395324.0704   22395329.6734
  19733343.036   -13552769.21849 -10542700.05249  19733342.5114   19733348.0944
  18995262.823    -7931192.03849  -6170108.94649  18995262.9234   18995267.4764
  21418652.063   -18337376.710 9 -14261601.542 9  21418651.716    21418656.463
  21528163.484   -15668322.68549 -12190581.07749  21528163.4134   21528168.6834
  22591164.429     3363505.01549   2614133.67249  22591161.4244   22591171.7474
  21094808.639   -18728884.37449 -14573424.71949  21094807.9884   21094814.6414
 96  9 18 16 31 59.9950000  0  7 22 17  6 28 26 10 23
  22371834.414   -15696459.54849 -12217505.27749  22371833.2924   22371839.6354
  19711119.535   -13669554.62649 -10633701.66749  19711118.8964   19711124.6334
  18984228.976    -7989175.50649  -6215290.87249  18984229.1224   18984233.7774
  21386844.395   -18504526.947 9 -14391848.474 9  21386844.066    21386848.515
  21502723.231   -15802011.90349 -12294754.45849  21502723.5344   21502729.7384
  22595787.688     3387800.64949   2633065.28649  22595790.5504   22595794.0164
  21064184.428   -18889815.62149 -14698825.66149  21064183.7694   21064190.1924
 96  9 18 16 32 29.9950000  0  7 22 17  6 28 26 10 23
  22348413.056   -15819540.02049 -12313412.13649  22348412.5464   22348417.6674
  19688916.362   -13786233.36449 -10724620.15949  19688915.9674   19688921.3444
  18973253.452    -8046852.35349  -6260233.87949  18973253.4504   18973258.0054
  21355040.829   -18671655.659 9 -14522078.630 9  21355040.553    21355044.859
  21477336.502   -15935420.41149 -12398709.09949  21477337.1394   21477341.8944
  22600410.284     3412091.89449   2651993.45649  22600412.1504   22600414.3824
  21033593.337   -19050573.07849 -14824091.19249  21033592.9474   21033599.0124
 96  9 18 16 32 59.9950000  0  7 22 17  6 28 26 10 23
  22325064.202   -15942239.13649 -12409021.85449  22325064.0504   22325069.1744
  19666738.970   -13902776.42849 -10815432.92849  19666738.4904   19666744.1944
  18962344.350    -8104180.14049  -6304904.89749  18962344.3024   18962348.8654
  21323245.238   -18838742.602 9 -14652276.241 9  21323244.805    21323248.907
  21452007.191   -16068527.84849 -12502429.15049  21452006.6254   21452012.8364
  22605033.032     3436384.18649   2670922.48149  22605033.3914   22605037.0054
  21003037.909   -19211142.84549 -14949210.46749  21003037.5604   21003043.7884
 96  9 18 16 33 29.9950000  0  7 22 17  6 28 26 10 23
  22301786.054   -16064567.03149 -12504342.27449  22301785.9154   22301791.2254
  19644586.631   -14019187.94049 -10906143.19749  19644586.0164   19644591.9014
  18951505.145    -8161140.66249  -6349289.73149  18951504.9164   18951509.9984
  21291457.989   -19005785.475 9 -14782439.514 9  21291457.721    21291461.832
  21426736.456   -16201325.44549 -12605907.76649  21426735.8594   21426741.5324
  22609656.220     3460678.66349   2689853.21849  22609655.5914   22609658.6424
  20972518.085   -19371525.07649 -15074183.61349  20972517.5184   20972523.7554
 96  9 18 16 33 59.9950000  0  7 22 17  6 28 26 10 23
  22278574.595   -16186544.24549 -12599389.46649  22278574.3944   22278579.4604
  19622457.158   -14135479.12449 -10996759.69749  19622456.4764   19622462.4964
  18940730.365    -8217762.33449  -6393410.51649  18940730.2854   18940735.1884
  21259675.355   -19172804.426 9 -14912584.145 9  21259675.163    21259679.181
  21401518.885   -16333843.96049 -12709168.91049  21401518.7274   21401524.4064
  22614275.678     3484953.35749   2708768.57349  22614274.8834   22614279.3434
  20942030.147   -19531740.12149 -15199026.47749  20942029.1654   20942035.9884
 96  9 18 16 34 29.9950000  0  7 22 17  6 28 26 10 23
  22255425.931   -16308191.76249 -12694179.74149  22255425.6194   22255430.6084
  19600348.040   -14251663.44649 -11087292.93349  19600347.4724   19600353.1364
  18930017.632    -8274058.11149  -6437277.36149  18930017.3524   18930022.2434
  21227895.194   -19339810.280 9 -15042718.567 9  21227894.974    21227899.370
  21376350.901   -16466102.75549 -12812227.67149  21376350.4904   21376355.7554
  22618887.671     3509188.89349   2727653.40349  22618886.5314   22618894.9744
  20911571.109   -19691803.01949 -15323750.78249  20911570.1614   20911577.1254
 96  9 18 16 34 59.9950000  0  7 22 17  6 28 26 10 23
  22232339.163   -16429513.69749 -12788716.32449  22232339.1124   22232343.9564
  19578258.503   -14367744.74849 -11177745.89649  19578257.9544   19578263.7684
  18919368.206    -8330021.10549  -6480884.88049  18919368.2744   18919372.9534
  21196117.465   -19506803.436 9 -15172843.104 9  21196117.333    21196121.715
  21351229.511   -16598116.77449 -12915095.69849  21351229.7714   21351235.0754
  22623493.972     3533394.80049   2746515.09549  22623494.7014   22623500.8294
  20881140.723   -19851715.46049 -15448357.84849  20881140.2074   20881146.4474
 96  9 18 16 35 29.9950000  0  7 22 17  6 28 26 10 23
  22209318.285   -16550489.51049 -12882983.19549  22209316.8504   22209322.4844
  19556189.954   -14483715.86149 -11268112.99349  19556189.3924   19556194.9554
  18908783.266    -8385645.52649  -6524228.58849  18908783.2324   18908787.8664
  21164344.549   -19673771.293 9 -15302947.918 9  21164344.219    21164348.827
  21326158.596   -16729865.36749 -13017756.91849  21326158.7584   21326164.5354
  22628096.686     3557582.03549   2765362.33149  22628093.1274   22628098.0014
  20850742.005   -20011461.80549 -15572835.49549  20850741.3124   20850747.9064
 96  9 18 16 35 59.9950000  0  7 22 17  6 28 26 10 23
  22186361.776   -16671126.89749 -12976986.36149  22186361.7414   22186365.5634
  19534139.355   -14599592.36549 -11358406.36549  19534138.8774   19534144.3284
  18898259.026    -8440950.86849  -6567323.66849  18898259.0774   18898263.8014
  21132573.879   -19840726.999 9 -15433043.257 9  21132573.414    21132578.431
  21301135.122   -16861363.83249 -13120223.22149  21301134.5114   21301140.8514
  22632693.379     3581738.09449   2784185.16149  22632695.3914   22632698.2994
  20820372.438   -20171055.04749 -15697193.84349  20820372.1264   20820377.9114
 96  9 18 16 36 29.9950000  0  7 22 17  6 28 26 10 23
  22163466.266   -16791444.14749 -13070740.07749  22163465.7224   22163470.4994
  19512100.935   -14715405.11649 -11448650.06549  19512100.4444   19512105.8104
  18887795.531    -8495937.34549  -6610170.28149  18887795.5714   18887800.2754
  21100802.510   -20007686.286 9 -15563141.387 9  21100802.009    21100807.042
  21276155.803   -16992630.19249 -13222508.65949  21276155.7744   21276161.4494
  22637280.323     3605842.76949   2802968.02249  22637278.7384   22637284.0684
  20790028.207   -20330515.19649 -15821448.48949  20790027.9134   20790033.6004
 96  9 18 16 36 59.9950000  0  7 22 17  6 28 26 10 23
  22140632.666   -16911435.47649 -13164239.81249  22140631.9394   22140636.8104
  19490074.172   -14831156.45749 -11538845.91349  19490073.5834   19490079.0384
  18877393.729    -8550599.48449  -6652764.16049  18877393.6424   18877398.4594
  21069030.476   -20174648.991 9 -15693242.182 9  21069029.944    21069035.397
  21251223.241   -17123651.24449 -13324602.95549  21251223.3244   21251227.9104
  22641856.142     3629889.28049   2821705.49649  22641853.8414   22641862.0894
  20759711.046   -20489832.83549 -15945592.07949  20759710.4424   20759715.9614
 96  9 18 16 37 29.9950000  0  7 22 17  6 28 26 10 23
  22117862.509   -17031093.60949 -13257479.91549  22117862.2534   22117867.4554
  19468056.465   -14946860.24749 -11629004.70749  19468056.0154   19468061.1764
  18867049.299    -8604959.74249  -6695122.81549  18867049.1244   18867054.1754
  21037256.952   -20341619.549 9 -15823349.103 9  21037256.530    21037261.973
  21226338.572   -17254420.60249 -13426501.11349  21226337.9424   21226343.7334
  22646419.385     3653869.35149   2840391.22849  22646420.1604   22646428.1114
  20729421.599   -20649005.16849 -16069622.45249  20729421.0004   20729427.0554
 96  9 18 16 37 59.9950000  0  7 22 17  6 28 26 10 23
  22095151.753   -17150439.66449 -13350476.83449  22095151.4754   22095156.1834
  19446044.964   -15062531.55649 -11719138.19449  19446044.4144   19446049.8814
  18856759.622    -8659032.11949  -6737257.14549  18856759.4974   18856764.3954
  21005479.368   -20508611.688 9 -15953472.843 9  21005478.920    21005484.329
  21201497.733   -17384960.24249 -13528220.28349  21201497.9184   21201503.4394
  22650967.513     3677769.28649   2859014.56749  22650966.8724   22650975.2034
  20699157.459   -20808043.97749 -16193548.77749  20699157.1024   20699162.6684
 96  9 18 16 38 29.9950000  0  7 22 17  6 28 26 10 23
  22072499.383   -17269478.76649 -13443234.59249  22072497.9884   22072504.1814
  19424037.892   -15178179.43349 -11809253.42349  19424037.1894   19424042.8044
  18846522.930    -8712826.18349  -6779174.60349  18846522.8744   18846527.7884
  20973696.409   -20675632.041 9 -16083618.569 9  20973696.092    20973701.413
  21176700.705   -17515269.75449 -13629760.12849  21176700.4954   21176707.1834
  22655498.125     3701577.57249   2877566.42849  22655496.3764   22655503.0644
  20668918.500   -20966950.72549 -16317372.19049  20668918.5354   20668924.0664
 96  9 18 16 38 59.9950000  0  7 22 17  6 28 26 10 23
  22049907.891   -17388197.60349 -13535742.78449  22049907.2174   22049912.2794
  19402038.307   -15293788.10149 -11899338.10149  19402037.7594   19402043.2824
  18836338.928    -8766343.55949  -6820876.45249  18836338.8644   18836343.6864
  20941911.108   -20842664.854 9 -16213774.014 9  20941910.987    20941916.283
  21151953.153   -17645319.10049 -13731097.26949  21151953.3174   21151959.5904
  22660014.900     3725313.17549   2896061.64349  22660015.6584   22660019.4954
  20638707.594   -21125710.04949 -16441080.72949  20638707.1904   20638713.1764
 96  9 18 16 39 29.9950000  0  7 22 17  6 28 26 10 23
  22027378.347   -17506590.90949 -13627997.29149  22027377.2744   22027382.3344
  19380048.304   -15409346.20949 -11989383.37949  19380047.5624   19380053.4024
  18826204.946    -8819598.10049  -6862373.50749  18826204.8604   18826209.7004
  20910124.814   -21009703.070 9 -16343933.663 9  20910124.982    20910129.895
  21127257.046   -17775097.75849 -13832223.46149  21127257.6144   21127263.4154
  22664520.604     3748990.68649   2914511.63049  22664519.2904   22664525.9634
  20608522.882   -21284331.73149 -16564682.02449  20608522.2874   20608528.3244
 96  9 18 16 39 59.9940000  0  7 22 17  6 28 26 10 23
  22004907.682   -17624674.47049 -13720010.47849  22004906.9304   22004913.2354
  19358068.636   -15524850.11749 -12079386.41749  19358068.0084   19358073.5134
  18816119.705    -8872596.42449  -6903670.90949  18816119.6614   18816124.5504
  20878337.311   -21176747.957 9 -16474098.507 9  20878337.268    20878342.379
  21102612.275   -17904605.99049 -13933138.93249  21102612.2164   21102617.4944
  22669009.263     3772578.50549   2932891.71149  22669008.1724   22669016.5154
  20578361.081   -21442832.94649 -16688189.44349  20578360.4084   20578366.7874
 96  9 18 16 40 29.9940000  0  7 22 17  6 28 26 10 23
  21982491.370   -17742472.63749 -13811801.25849  21982490.1594   21982496.3984
  19336096.588   -15640314.01849 -12169358.28249  19336096.0694   19336101.4894
  18806079.461    -8925358.14449  -6944783.94349  18806079.2824   18806084.1394
  20846545.022   -21343818.054 9 -16604282.987 9  20846545.237    20846549.979
  21078017.563   -18033851.31349 -14033849.53249  21078017.5124   21078023.4114
  22673477.280     3796058.02549   2951187.39349  22673476.3094   22673484.3164
  20548215.424   -21601249.49349 -16811630.88349  20548214.8374   20548220.9364
 96  9 18 16 40 59.9940000  0  7 22 17  6 28 26 10 23
  21960127.207   -17859996.43149 -13903378.24649  21960126.6314   21960132.4184
  19314131.889   -15755739.20049 -12259299.97949  19314131.1754   19314136.9184
  18796082.453    -8977892.74949  -6985720.01449  18796082.4034   18796087.1534
  20814747.530   -21510915.415 9 -16734488.705 9  20814747.360    20814752.350
  21053471.830   -18162839.92049 -14134360.10849  21053471.6754   21053478.0884
  22677921.464     3819412.01049   2969385.31149  22677922.4714   22677929.0304
  20518084.327   -21759589.50849 -16935012.68449  20518083.8364   20518089.5324
 96  9 18 16 41 29.9940000  0  7 22 17  6 28 26 10 23
  21937815.753   -17977243.36549 -13994739.48649  21937814.6374   21937820.8504
  19292175.603   -15871120.24249 -12349207.28449  19292174.9154   19292180.4704
  18786130.343    -9030191.52749  -7026472.31149  18786130.4334   18786135.1344
  20782945.209   -21678038.186 9 -16864714.225 9  20782945.226    20782949.812
  21028974.735   -18291573.30849 -14234671.81849  21028975.3034   21028981.6914
  22682340.295     3842632.31649   2987479.03649  22682339.6434   22682342.0944
  20487968.865   -21917847.10949 -17058330.27349  20487968.1854   20487974.2664
 96  9 18 16 41 59.9940000  0  7 22 17  6 28 26 10 23
  21915556.884   -18094214.58749 -14085885.89349  21915555.9164   21915562.4844
  19270227.095   -15986460.31349 -12439082.65849  19270226.7804   19270232.3584
  18776227.833    -9082229.50749  -7067021.39449  18776227.8684   18776232.6734
  20751139.140   -21845180.387 9 -16994954.875 9  20751138.865    20751143.597
  21004525.867   -18420053.08549 -14334785.92649  21004526.1794   21004532.3674
  22686732.682     3865714.13249   3005464.74349  22686728.5754   22686739.7574
  20457871.094   -22076011.95149 -17181575.57849  20457870.5514   20457875.9074
 96  9 18 16 42 29.9940000  0  7 22 17  6 28 26 10 23
  21893350.594   -18210909.19549 -14176816.77349  21893349.8094   21893355.7794
  19248284.489   -16101769.75349 -12528934.16449  19248284.1304   19248289.5764
  18766377.285    -9133994.77449  -7107357.97049  18766377.4974   18766382.2094
  20719329.760   -22012339.646 9 -17125208.821 9  20719329.387    20719333.976
  20980125.590   -18548277.61149 -14434701.11849  20980124.7824   20980131.3574
  22691101.335     3888671.98049   3023353.96249  22691099.4594   22691108.6034
  20427794.412   -22234065.95949 -17304734.51649  20427793.6934   20427799.7784
 96  9 18 16 42 59.9940000  0  7 22 17  6 28 26 10 23
  21871196.483   -18327329.56949 -14267533.95049  21871195.3874   21871200.1264
  19226344.692   -16217064.24249 -12618774.01949  19226344.0894   19226349.8694
  18756576.850    -9185496.67249  -7147489.33049  18756576.8924   18756581.5384
  20687515.375   -22179525.199 9 -17255483.244 9  20687515.051    20687519.501
  20955771.375   -18676259.82849 -14534427.49949  20955771.7714   20955776.3654
  22695445.262     3911499.66349   3041141.71649  22695445.4304   22695446.0864
  20397739.995   -22392002.70349 -17427802.08049  20397739.5894   20397745.2774
 96  9 18 16 43 29.9940000  0  7 22 17  6 28 26 10 23
  21849095.664   -18443470.17949 -14358033.14349  21849094.5374   21849100.1164
  19204409.171   -16332336.22949 -12708596.33949  19204408.6954   19204414.2854
  18746827.887    -9236727.79349  -7187409.69749  18746827.5814   18746832.4844
  20655697.800   -22346727.516 9 -17385770.753 9  20655697.508    20655701.626
  20931463.360   -18804000.24949 -14633965.46049  20931463.3994   20931468.5124
  22699763.871     3934194.12049   3058825.64949  22699763.5214   22699772.2264
  20367709.568   -22549813.68149 -17550771.65349  20367709.5884   20367714.5694
 96  9 18 16 43 59.9940000  0  7 22 17  6 28 26 10 23
  21827049.245   -18559325.18749 -14448309.77049  21827049.1184   21827054.3984
  19182478.222   -16447584.06049 -12798399.83249  19182477.7674   19182483.4024
  18737131.302    -9287683.58849  -7227115.50449  18737131.0344   18737136.1604
  20623878.293   -22513940.038 9 -17516066.209 9  20623878.046    20623882.128
  20907198.961   -18931510.45349 -14733324.04049  20907198.7674   20907205.1464
  22704057.641     3956757.95249   3076407.92649  22704056.7594   22704063.0424
  20337701.392   -22707508.03649 -17673650.34849  20337700.7534   20337706.5834
 96  9 18 16 44 29.9940000  0  7 22 17  6 28 26 10 23
  21805056.300   -18674899.08249 -14538367.37049  21805054.9354   21805060.7004
  19160551.823   -16562808.17849 -12888184.85049  19160551.3364   19160557.0154
  18727484.821    -9338375.97949  -7266616.07549  18727484.7024   18727489.6974
  20592057.005   -22681161.942 9 -17646368.986 9  20592056.786    20592060.943
  20882977.364   -19058794.07149 -14832506.06049  20882977.4264   20882983.2204
  22708327.419     3979195.62149   3093891.76049  22708326.7034   22708334.6104
  20307716.070   -22865081.93549 -17796435.17849  20307715.6014   20307721.4624
 96  9 18 16 44 59.9940000  0  7 22 17  6 28 26 10 23
  21783120.785   -18790171.20349 -14628189.78649  21783119.9904   21783124.8754
  19138632.674   -16677994.12149 -12977940.12349  19138632.1914   19138637.6004
  18717890.501    -9388794.66649  -7305903.36549  18717890.8944   18717895.3904
  20560236.880   -22848377.582 9 -17776666.876 9  20560236.574    20560240.761
  20858800.650   -19185844.02349 -14931506.00349  20858801.0824   20858806.0814
  22712574.677     4001514.75149   3111283.29549  22712574.1324   22712580.7164
  20277754.880   -23022528.88049 -17919121.08549  20277754.7034   20277760.3754
 96  9 18 16 45 29.9940000  0  7 22 17  6 28 26 10 23
  21761243.102   -18905139.17549 -14717775.24149  21761242.4554   21761248.4174
  19116720.768   -16793142.31049 -13067665.97549  19116720.3004   19116725.9174
  18708350.587    -9438927.79849  -7344968.15249  18708350.6884   18708355.4364
  20528418.587   -23015583.738 9 -17906957.382 9  20528418.312    20528422.787
  20834669.967   -19312652.44749 -15030317.71849  20834670.2184   20834674.4144
  22716800.162     4023719.90249   3128585.94549  22716800.9364   22716807.1254
  20247816.905   -23179854.31049 -18041712.30249  20247816.7084   20247822.5304
 96  9 18 16 45 59.9940000  0  7 22 17  6 28 26 10 23
  21739421.236   -19019814.21949 -14807132.43249  21739420.7124   21739426.0104
  19094811.228   -16908277.89749 -13157382.00449  19094810.6284   19094816.2294
  18698862.077    -9488790.33149  -7383822.07749  18698862.0174   18698866.6564
  20496598.815   -23182797.645 9 -18037253.925 9  20496598.400    20496603.054
  20810585.725   -19439216.18549 -15128938.78949  20810586.1514   20810590.7054
  22721002.208     4045801.65149   3145792.45249  22721003.1574   22721009.0934
  20217899.250   -23337072.91649 -18164220.28349  20217898.7404   20217904.3144
 96  9 18 16 46 29.9940000  0  7 22 17  6 28 26 10 23
  21717655.466   -19134194.43849 -14896259.88249  21717654.4914   21717660.1774
  19072903.466   -17023403.99149 -13247090.64349  19072903.0244   19072908.4624
  18689424.261    -9538386.47849  -7422468.44049  18689424.0714   18689428.8894
  20464777.021   -23350022.044 9 -18167558.640 9  20464776.690    20464781.525
  20786551.956   -19565513.82849 -15227352.51149  20786552.2694   20786556.9934
  22725177.664     4067743.89149   3162890.27449  22725177.1974   22725181.9924
  20188003.978   -23494173.76449 -18286636.50749  20188003.4964   20188009.2264
 96  9 18 16 46 59.9940000  0  7 22 17  6 28 26 10 23
  21695951.743   -19248248.81649 -14985133.41749  21695950.8664   21695956.3594
  19051002.396   -17138494.89549 -13336771.85649  19051001.8964   19051007.2744
  18680040.140    -9587700.19749  -7460894.71849  18680039.9074   18680044.6504
  20432956.863   -23517237.970 9 -18297856.746 9  20432956.359    20432961.691
  20762574.544   -19691516.16649 -15325536.10649  20762575.1384   20762581.1734
  22729326.454     4089545.23649   3179878.32049  22729321.8584   22729335.2144
  20158133.832   -23651142.35749 -18408949.66549  20158133.2554   20158138.6764
 96  9 18 16 47 29.9940000  0  7 22 17  6 28 26 10 23
  21674308.637   -19361984.27349 -15073758.45449  21674307.7994   21674313.5554
  19029111.854   -17253530.60049 -13426410.05949  19029111.2604   19029116.6004
  18670707.958    -9636741.17349  -7499108.48449  18670708.0284   18670712.7624
  20401139.772   -23684437.606 9 -18428142.159 9  20401139.385    20401144.669
  20738655.955   -19817209.97049 -15423479.30749  20738656.5574   20738662.1164
  22733448.281     4111205.19949   3196756.14349  22733448.1714   22733452.6074
  20128291.383   -23807965.54649 -18531149.52549  20128291.0144   20128296.4664
 96  9 18 16 47 59.9940000  0  7 22 17  6 28 26 10 23
  21652725.220   -19475406.10849 -15162139.11149  21652724.3014   21652729.8614
  19007230.704   -17368516.80049 -13516009.68949  19007230.0084   19007235.5994
  18661422.706    -9685535.44649  -7537130.01449  18661422.5264   18661427.5034
  20369324.857   -23851626.138 9 -18558418.922 9  20369324.570    20369329.755
  20714793.858   -19942605.87149 -15521190.35349  20714794.1864   20714799.4774
  22737539.234     4132702.65249   3213507.42149  22737540.7284   22737543.1544
  20098475.227   -23964650.39649 -18653241.57849  20098474.3164   20098480.3754
 96  9 18 16 48 29.9940000  0  7 22 17  6 28 26 10 23
  21631197.429   -19588535.21849 -15250291.66049  21631196.9244   21631203.0224
  18985355.702   -17483470.74949 -13605584.18949  18985355.1724   18985360.5294
  18652180.714    -9734102.44549  -7574974.42249  18652180.4344   18652185.5454
  20337509.860   -24018815.218 9 -18688696.113 9  20337509.725    20337514.765
  20690982.765   -20067733.60649 -15618692.46149  20690982.1214   20690988.4764
  22741595.535     4154017.93149   3230116.66349  22741594.8814   22741603.1914
  20068682.248   -24121212.93549 -18775238.32849  20068681.6914   20068687.2534
 96  9 18 16 48 59.9940000  0  7 22 17  6 28 26 10 23
  21609723.018   -19701384.21749 -15338225.95149  21609722.1314   21609727.8294
  18963486.855   -17598392.21049 -13695133.36849  18963486.2724   18963491.6144
  18642980.141    -9782451.74649  -7612649.20749  18642980.1334   18642984.7224
  20305694.977   -24186003.707 9 -18818972.845 9  20305694.700    20305699.669
  20667218.835   -20192613.19249 -15716001.19549  20667218.3824   20667224.3834
  22745620.264     4175167.50249   3246596.77649  22745620.2854   22745626.5224
  20038911.883   -24277656.92449 -18897142.70549  20038911.4304   20038917.1544
 96  9 18 16 49 29.9940000  0  7 22 17  6 28 26 10 23
  21588296.943   -19813979.58749 -15425962.61449  21588296.4434   21588301.5924
  18941617.580   -17713315.90249 -13784684.28949  18941616.9514   18941622.4334
  18633819.104    -9830593.62849  -7650162.37749  18633819.1654   18633823.5524
  20273875.606   -24353215.751 9 -18949267.933 9  20273875.448    20273880.339
  20643495.642   -20317279.48849 -15813143.73049  20643496.5254   20643501.4244
  22749611.658     4196141.90449   3262940.42949  22749611.8114   22749614.0254
  20009158.710   -24434010.60449 -19018976.71449  20009158.2284   20009163.7284
 96  9 18 16 49 59.9930000  0  8 22 21 17  6 28 26 10 23
  21566923.515   -19926297.86349 -15513483.32649  21566922.4404   21566928.4954
  23190248.659    -6332009.10949  -4892516.85749  23190249.2844   23190255.9144
  18919745.960   -17828251.76649 -13874244.69749  18919745.4434   18919750.8544
  18624702.664    -9878501.41349  -7687493.13349  18624702.8964   18624707.1574
  20242053.768   -24520440.783 9 -19079573.144 9  20242053.468    20242058.240
  20619814.224   -20441727.18349 -15910115.92149  20619814.5694   20619819.5094
  22753570.450     4216945.54349   3279151.14649  22753569.5224   22753575.0614
  19979421.545   -24590280.26249 -19140745.25149  19979421.0954   19979426.6954
 96  9 18 16 50 29.9930000  0  8 22 21 17  6 28 26 10 23
  21545605.797   -20038323.38349 -15600775.94949  21545605.1584   21545610.8004
  23155084.044    -6516800.96549  -5036510.44649  23155083.4794   23155091.5874
  18897875.562   -17943181.65549 -13963800.44749  18897874.9534   18897880.3904
  18615636.324    -9926145.39849  -7724618.31549  18615635.9434   18615641.0164
  20210232.244   -24687663.885 9 -19209876.848 9  20210231.968    20210236.756
  20596176.747   -20565942.88049 -16006907.33749  20596176.6544   20596182.3544
  22757502.375     4237608.26149   3295251.83949  22757501.8994   22757509.2494
  19949705.603   -24746438.62649 -19262427.07249  19949705.1274   19949710.5334
 96  9 18 16 50 59.9930000  0  8 22 21 17  6 28 26 10 23
  21524345.366   -20150047.97049 -15687834.07749  21524344.6264   21524350.2284
  23119892.673    -6701733.03949  -5180613.29349  23119892.5814   23119900.0744
  18876009.737   -18058087.29149 -14053337.29849  18876009.1114   18876014.4824
  18606622.580    -9973512.61549  -7761527.83649  18606622.4134   18606627.5024
  20178413.023   -24854875.166 9 -19340171.337 9  20178412.835    20178417.151
  20572586.880   -20689907.99349 -16103503.50049  20572586.9144   20572592.3694
  22761408.131     4258132.66949   3311244.89949  22761407.9854   22761413.1654
  19920012.886   -24902474.76749 -19384013.65349  19920012.4824   19920017.8934
 96  9 18 16 51 29.9930000  0  8 22 21 17  6 28 26 10 23
  21503142.332   -20261471.27349 -15774657.41749  21503142.1044   21503147.5484
  23084671.655    -6886821.12749  -5324837.72349  23084671.4644   23084679.1014
  18854147.000   -18172976.86549 -14142861.63049  18854146.5364   18854151.7694
  18597660.334   -10020609.31549  -7798226.57949  18597660.1784   18597665.2444
  20146595.893   -25022075.463 9 -19470457.264 9  20146595.712    20146599.814
  20549048.540   -20813602.51249 -16199888.80449  20549048.2304   20549053.8354
  22765282.098     4278490.20549   3327107.88449  22765279.8354   22765286.3384
  19890341.793   -25058397.47549 -19505511.84849  19890341.3634   19890346.7584
 96  9 18 16 51 59.9930000  0  8 22 21 17  6 28 26 10 23
  21481994.430   -20372604.63049 -15861254.84649  21481993.3654   21481999.5844
  23049419.274    -7072073.74549  -5469190.37849  23049418.8094   23049426.1704
  18832287.592   -18287848.81949 -14232372.23849  18832287.0194   18832292.5224
  18588744.664   -10067461.70949  -7834734.94049  18588744.6504   18588749.3394
  20114780.732   -25189265.201 9 -19600734.966 9  20114780.597    20114784.892
  20525563.547   -20937016.96049 -16296055.88649  20525563.6884   20525568.5294
  22769119.007     4298653.00249   3342819.18349  22769119.3674   22769124.6324
  19860693.780   -25214198.95749 -19626915.58249  19860693.3884   19860698.6254
 96  9 18 16 52 29.9930000  0  8 22 21 17  6 28 26 10 23
  21460899.955   -20483456.61249 -15947633.02649  21460899.6384   21460904.6854
  23014135.341    -7257491.74249  -5613671.89649  23014134.7364   23014142.5614
  18810432.568   -18402697.87049 -14321864.99349  18810432.0894   18810437.4974
  18579873.086   -10114082.57849  -7871062.89949  18579873.1024   18579877.7184
  20082968.061   -25356442.113 9 -19731002.672 9  20082967.881    20082972.174
  20502132.855   -21060146.15849 -16392000.68349  20502132.4494   20502137.4994
  22772916.548     4318609.08349   3358369.35949  22772914.0204   22772923.5404
  19831070.914   -25369868.28049 -19748216.33449  19831070.5964   19831075.9644
 96  9 18 16 52 59.9930000  0  7 22 21 17  6 28 26 23
  21439858.994   -20594027.36349 -16033792.04149  21439859.0344   21439864.3164
  22978822.809    -7443060.17249  -5758270.62349  22978821.9734   22978829.2074
  18788580.610   -18517530.63149 -14411345.05749  18788579.9474   18788585.3314
  18571043.092   -10160484.73549  -7907220.44149  18571043.0144   18571047.5994
  20051157.494   -25523607.903 9 -19861261.712 9  20051157.323    20051161.430
  20478758.276   -21182980.53449 -16487715.74549  20478758.4714   20478763.5154
  19801468.808   -25525428.18849 -19869431.82149  19801468.0994   19801473.4994
 96  9 18 16 53 29.9930000  0  7 22 21 17  6 28 26 23
  21418872.438   -20704312.86049 -16119728.80749  21418872.6034   21418877.0064
  22943484.850    -7628762.24949  -5902973.50649  22943484.6564   22943492.4084
  18766728.742   -18632362.89649 -14500824.73749  18766728.2844   18766733.6754
  18562252.237   -10206681.00049  -7943217.52649  18562252.0804   18562256.9674
  20019348.730   -25690764.180 9 -19991513.339 9  20019348.384    20019352.793
  20455438.750   -21305525.27149 -16583205.12549  20455438.6054   20455444.0584
  19771886.341   -25680884.81549 -19990566.82949  19771885.6584   19771891.3454
 96  9 18 16 53 59.9930000  0  7 22 21 17  6 28 26 23
  21397945.090   -20814286.24449 -16205422.34049  21397943.8824   21397951.3144
  22908127.242    -7814568.12649  -6047757.26849  22908126.9244   22908134.3404
  18744879.710   -18747180.33249 -14590292.86449  18744879.0504   18744884.2994
  18553504.690   -10252649.85649  -7979037.41549  18553504.7664   18553509.2284
  19987545.703   -25857889.933 9 -20121741.182 9  19987545.230    19987549.765
  20432175.150   -21427776.43049 -16678465.74649  20432175.5194   20432180.7054
  19742330.410   -25836202.25349 -20111593.38949  19742329.5704   19742335.5424
 96  9 18 16 54 29.9930000  0  7 22 21 17  6 28 26 23
  21377082.697   -20923918.77149 -16290850.29549  21377082.4944   21377087.6184
  22872755.058    -8000450.04749  -6192600.27649  22872754.3224   22872761.4424
  18723036.646   -18861966.38749 -14679736.53849  18723035.9024   18723041.4124
  18544806.336   -10298360.10349  -8014655.78649  18544806.1684   18544811.1174
  19955752.589   -26024963.419 9 -20251928.298 9  19955752.090    19955756.925
  20408971.487   -21549712.60449 -16773480.91349  20408971.6134   20408976.7714
  19712804.051   -25991363.99049 -20232498.61749  19712803.4604   19712809.2224
 96  9 18 16 54 59.9930000  0  7 22 21 17  6 28 26 23
  21356286.400   -21033204.52349 -16376008.01549  21356284.8124   21356290.5714
  22837367.351    -8186412.98649  -6337506.39549  22837367.1504   22837374.0164
  18701200.048   -18976718.31049 -14769153.61949  18701199.4094   18701204.9264
  18536159.773   -10343797.90249  -8050061.86749  18536159.6744   18536164.3854
  19923971.019   -26191976.318 9 -20382068.205 9  19923970.522    19923975.546
  20385828.892   -21671327.06249 -16868245.39149  20385828.5054   20385833.7204
  19683310.338   -26146354.31049 -20353270.27549  19683309.6084   19683315.5314
 96  9 18 16 55 29.9930000  0  7 22 21 17  6 28 26 23
  21335554.377   -21142151.43549 -16460901.71749  21335553.3844   21335558.5354
  22801959.625    -8372481.79249  -6482495.01549  22801959.3224   22801967.6394
  18679370.503   -19091433.52149 -14858542.08949  18679370.0814   18679375.2724
  18527567.003   -10388953.12949  -8085247.76449  18527566.8124   18527571.6684
  19892201.732   -26358924.747 9 -20512157.877 9  19892201.366    19892206.291
  20362745.596   -21792629.96449 -16962767.10049  20362745.1154   20362750.8614
  19653852.923   -26301154.17449 -20473893.51949  19653852.4214   19653858.2984
 96  9 18 16 55 59.9930000  0  7 22 21 17  6 28 26 23
  21314884.135   -21250773.71549 -16545542.45849  21314883.2934   21314889.1334
  22766527.607    -8558678.48949  -6627583.29449  22766527.2714   22766534.6484
  18657549.117   -19206105.69349 -14947897.02549  18657548.6984   18657553.8794
  18519028.974   -10433820.75849  -8120209.56749  18519028.9934   18519033.7524
  19860444.617   -26525809.270 9 -20642197.755 9  19860444.320    19860449.439
  20339720.119   -21913629.37949 -17057052.34049  20339720.3654   20339725.8034
  19624430.555   -26455769.98349 -20594373.34349  19624430.2204   19624435.6694
 96  9 18 16 56 29.9930000  0  7 22 21 17  6 28 26 23
  21294273.705   -21359081.77749 -16629938.35049  21294272.8024   21294278.3634
  22731071.912    -8744999.50849  -6772768.42449  22731071.5674   22731079.7054
  18635737.544   -19320726.19549 -15037211.70149  18635736.9384   18635742.4044
  18510549.314   -10478381.79049  -8154932.46549  18510549.1534   18510554.1744
  19828701.171   -26692622.198 9 -20772181.850 9  19828700.946    19828705.802
  20316754.617   -22034314.48449 -17151092.66549  20316754.7034   20316760.0544
  19595040.516   -26610215.71049 -20714720.63949  19595040.0364   19595045.4554
 96  9 18 16 56 59.9930000  0  7 22 21 17  6 28 26 23
  21273722.412   -21467080.49749 -16714093.19049  21273722.1194   21273727.1684
  22695594.122    -8931436.49349  -6918043.92249  22695593.9774   22695601.1364
  18613936.433   -19435291.82349 -15126483.62149  18613935.8504   18613941.0074
  18502128.448   -10522633.73949  -8189414.51949  18502128.4034   18502133.1424
  19796972.499   -26859357.571 9 -20902105.514 9  19796972.351    19796977.375
  20293849.077   -22154684.14949 -17244887.19649  20293848.8514   20293854.2354
  19565683.923   -26764485.75349 -20834931.04349  19565683.4594   19565688.8314
 96  9 18 16 57 29.9930000  0  7 22 21 17  6 28 26 23
  21253228.485   -21574776.55349 -16798012.19049  21253227.8864   21253233.1484
  22660096.209    -9117979.30049  -7063401.87149  22660096.1524   22660102.7914
  18592148.222   -19549789.88049 -15215702.88749  18592147.7444   18592152.9274
  18493765.554   -10566581.09149  -8223659.20749  18493765.5134   18493770.1864
  19765258.904   -27026013.904 9 -21031967.584 9  19765258.836    19765263.648
  20271003.806   -22274736.43849 -17338434.42149  20271003.8864   20271008.6064
  19536358.035   -26918594.12249 -20955015.46049  19536357.3414   19536362.7814
 96  9 18 16 57 59.9930000  0  7 22 21 17  6 28 26 23
  21232795.671   -21682151.93649 -16881681.32049  21232794.8124   21232800.4694
  22624583.121    -9304601.14949  -7208821.38749  22624581.0284   22624591.1994
  18570373.605   -19664216.45349 -15304866.45049  18570373.3084   18570378.3024
  18485461.917   -10610216.99849  -8257661.23049  18485461.6514   18485466.4054
  19733562.135   -27192581.837 9 -21161760.769 9  19733562.079    19733566.927
  20248221.546   -22394457.84149 -17431723.80449  20248221.7884   20248226.8684
  19507063.254   -27072538.67149 -21074972.23149  19507062.7024   19507068.1354
 96  9 18 16 58 29.9930000  0  7 22 21 17  6 28 26 23
  21212425.999   -21789195.84249 -16965092.16649  21212425.1144   21212430.2754
  22589056.239    -9491295.02649  -7354296.98849  22589055.0234   22589061.6064
  18548614.647   -19778560.85049 -15393965.98449  18548614.2524   18548619.0914
  18477217.445   -10653542.09249  -8291421.06649  18477217.3294   18477222.2594
  19701883.492   -27359054.492 9 -21291479.710 9  19701883.460    19701888.129
  20225503.880   -22513839.77449 -17524748.67449  20225503.8154   20225509.3114
  19477803.757   -27226297.94049 -21194784.63549  19477803.0484   19477808.4564
 96  9 18 16 58 59.9920000  0  7 22 21 17  6 28 26 23
  21192121.424   -21895898.17249 -17048236.84549  21192120.3204   21192125.0534
  22553514.538    -9678065.89449  -7499832.58549  22553511.8394   22553521.6574
  18526871.178   -19892823.69749 -15483001.96649  18526870.5144   18526875.7574
  18469027.608   -10696579.93549  -8324957.06549  18469027.4184   18469032.3504
  19670222.519   -27525434.251 9 -21421126.260 9  19670222.438    19670226.886
  20202850.526   -22632883.88349 -17617510.29749  20202850.3884   20202856.3874
  19448581.033   -27379864.30149 -21314446.71549  19448580.3584   19448585.7234
 96  9 18 16 59 29.9920000  0  7 22 21 17  6 28 26 23
  21171883.011   -22002250.81649 -17131109.04749  21171882.0814   21171886.9624
  22517956.066    -9864925.63449  -7645437.45549  22517954.5344   22517963.1024
  18505142.225   -20007010.30449 -15571978.54249  18505141.6474   18505146.6634
  18460891.376   -10739335.87549  -8358273.38249  18460890.9014   18460895.9734
  19638577.775   -27691728.653 9 -21550706.299 9  19638577.576    19638582.218
  20180259.572   -22751599.51649 -17710015.97249  20180259.6774   20180265.4104
  19419391.403   -27533256.59749 -21433973.15949  19419390.9154   19419396.4234
 96  9 18 16 59 59.9920000  0  7 22 21 17  6 28 26 23
  21151719.331   -22108210.79249 -17213675.27049  21151718.7004   21151723.7024
  22482387.341   -10051839.56149  -7791084.58749  22482386.7974   22482394.3134
  18483429.854   -20121109.81149 -15660887.25049  18483429.2384   18483434.5394
  18452813.529   -10781784.96949  -8391350.62449  18452813.4434   18452818.5304
  19606954.501   -27857910.223 9 -21680198.420 9  19606954.268    19606958.675
  20157736.812   -22869957.54149 -17802242.99149  20157736.9594   20157742.4284
  19390241.371   -27686441.01449 -21553337.62749  19390240.6264   19390246.3854
 96  9 18 17  0 29.9920000  0  7 22 21 17  6 28 26 23
  21131631.219   -22213774.50849 -17295932.72949  21131630.9564   21131635.7474
  22446809.930   -10238799.65749  -7936767.71049  22446808.9874   22446817.2744
  18461736.290   -20235110.42849 -15749718.89149  18461735.6564   18461740.8234
  18444795.047   -10823922.52649  -8424185.09149  18444795.0744   18444799.7014
  19575354.576   -28023968.931 9 -21809594.801 9  19575354.284    19575358.399
  20135285.258   -22987941.85249 -17894178.79049  20135285.9824   20135290.3684
  19361132.110   -27839411.40649 -21672535.30949  19361131.6774   19361136.9054
 96  9 18 17  0 59.9920000  0  7 22 21 17  6 28 26 23
  21111617.061   -22318948.91549 -17377886.81949  21111615.7934   21111621.8324
  22411223.239   -10425808.08349  -8082488.48049  22411222.6634   22411229.7764
  18440056.774   -20349036.91349 -15838492.77349  18440056.2254   18440061.4034
  18436833.458   -10865761.40949  -8456786.82349  18436833.6064   18436838.2854
  19543776.075   -28189914.986 9 -21938903.400 9  19543775.736    19543780.059
  20112904.233   -23105555.21449 -17985825.53849  20112904.4664   20112908.9444
  19332059.281   -27992190.27049 -21791583.75649  19332058.9444   19332064.2164
 96  9 18 17  1 29.9920000  0  7 22 21 17  6 28 26 23
  21091676.767   -22423737.19249 -17459540.03049  21091677.1064   21091680.9874
  22375629.702   -10612853.16349  -8228237.81549  22375628.9344   22375636.1464
  18418392.060   -20462885.71149 -15927206.11449  18418391.3634   18418396.6004
  18428930.110   -10907294.27549  -8489150.11549  18428930.0874   18428934.8234
  19512220.142   -28355742.376 9 -22068119.533 9  19512219.821    19512224.044
  20090595.303   -23222789.01849 -18077176.52949  20090595.3504   20090599.9774
  19303023.235   -28144775.68149 -21910481.46249  19303022.4264   19303028.1634
 96  9 18 17  1 59.9920000  0  7 22 21 17  6 28 26 23
  21071804.753   -22528165.26349 -17540912.56449  21071804.9734   21071809.5244
  22340025.858   -10799952.95949  -8374029.78349  22340026.5114   22340032.2154
  18396738.688   -20576674.98349 -16015873.07149  18396738.1634   18396743.1754
  18421082.077   -10948536.07349  -8521286.59649  18421081.9404   18421086.5594
  19480684.096   -28521465.484 9 -22197254.403 9  19480683.783    19480688.085
  20068356.816   -23339652.62949 -18168239.05849  20068356.8664   20068362.1414
  19274022.000   -28297178.14249 -22029236.60549  19274021.7324   19274027.2094
 96  9 18 17  2 29.9920000  0  7 22 21 17  6 28 26 23
  21051997.631   -22632252.16749 -17622019.25149  21051997.2064   21052002.4234
  22304408.217   -10987125.71349  -8519878.61449  22304408.1704   22304414.6994
  18375096.828   -20690403.69249 -16104492.83949  18375096.2964   18375101.4464
  18413286.198   -10989503.60749  -8553209.35549  18413285.9874   18413290.7664
  19449167.695   -28687085.190 9 -22326308.709 9  19449167.531    19449171.706
  20046187.755   -23456151.90949 -18259017.70349  20046187.8134   20046192.6354
  19245054.704   -28449402.53849 -22147853.00149  19245054.1964   19245059.8054
 96  9 18 17  2 59.9920000  0  7 22 21 17  6 28 26 23
  21032257.912   -22735985.58149 -17702850.50149  21032257.6414   21032262.6154
  22268777.546   -11174366.31549  -8665780.29849  22268776.9664   22268784.1294
  18353467.336   -20804067.44249 -16193061.98749  18353466.6894   18353471.8094
  18405543.802   -11030189.98149  -8584913.04349  18405543.6374   18405548.7254
  19417673.776   -28852586.997 9 -22455271.139 9  19417673.614    19417677.908
  20024089.818   -23572277.80449 -18349505.40249  20024089.3014   20024094.3234
  19216121.818   -28601445.75649 -22266328.21549  19216121.5564   19216127.0874
 96  9 18 17  3 29.9920000  0  7 22 21 17  6 28 26 23
  21012589.605   -22839343.33949 -17783389.01949  21012589.3974   21012594.7904
  22233136.849   -11361659.46249  -8811722.93649  22233136.7704   22233143.5464
  18331854.278   -20917644.56349 -16281563.63549  18331853.5124   18331858.9434
  18397859.481   -11070571.50949  -8616379.18649  18397859.5674   18397864.2624
  19386207.853   -29017941.565 9 -22584118.841 9  19386207.638    19386211.934
  20002066.082   -23688012.91149 -18439688.58449  20002066.4284   20002071.4454
  19187228.064   -28753283.57149 -22384643.37149  19187227.5594   19187232.9184
 96  9 18 17  3 59.9920000  0  7 22 21 17  6 28 26 23
  20992995.751   -22942310.57649 -17863623.24349  20992994.5424   20992999.9914
  22197487.629   -11548997.61449  -8957700.65149  22197487.5494   22197494.6424
  18310259.230   -21031127.32849 -16369991.75749  18310258.5624   18310263.9264
  18390235.429   -11110636.43149  -8647598.61149  18390235.3054   18390240.1494
  19354773.480   -29183130.198 9 -22712837.242 9  19354773.199    19354777.788
  19980117.496   -23803353.39649 -18529564.27349  19980117.7224   19980122.5804
  19158379.492   -28904883.73149 -22502773.34749  19158379.0104   19158384.3724
 96  9 18 17  4 29.9920000  0  7 22 21 17  6 28 26 23
  20973484.964   -23044839.97049 -17943516.28549  20973483.6894   20973489.8404
  22161838.290   -11736336.52749  -9103678.96149  22161837.7894   22161844.8614
  18288692.165   -21144462.72249 -16458305.04249  18288691.5224   18288697.0834
  18382681.643   -11150331.82149  -8678530.10449  18382681.1954   18382686.5194
  19323381.033   -29348098.539 9 -22841383.988 9  19323380.672    19323385.324
  19958253.419   -23918250.00749 -18619094.09249  19958253.3494   19958259.0674
  19129586.448   -29056192.22749 -22620676.04749  19129585.6834   19129591.3494
 96  9 18 17  4 59.9920000  0  7 22 21 17  6 28 26 23
  20954058.848   -23146925.38749 -18023063.37849  20954057.1084   20954063.5374
  22126192.952   -11923653.87649  -9249640.46449  22126192.7064   22126200.0704
  18267153.480   -21257649.16849 -16546502.26949  18267152.7834   18267158.4314
  18375202.186   -11189636.45349  -8709157.11549  18375202.3024   18375207.2274
  19292031.688   -29512840.121 9 -22969754.042 9  19292031.225    19292036.037
  19936476.494   -24032688.67449 -18708267.07649  19936476.6644   19936481.9704
  19100849.748   -29207204.57049 -22738347.98349  19100849.1374   19100854.5764
 96  9 18 17  5 29.9920000  0  7 22 21 17  6 28 26 23
  20934710.636   -23248601.42949 -18102291.47949  20934710.0624   20934715.3474
  22090550.076   -12110958.39149  -9395591.99549  22090549.3914   22090556.4164
  18245640.671   -21370699.37849 -16634593.33549  18245639.9764   18245645.4114
  18367792.540   -11228574.50349  -8739498.45949  18367792.4224   18367797.6384
  19260720.484   -29677381.278 9 -23097967.918 9  19260720.091    19260724.883
  19914781.811   -24146695.50549 -18797103.56249  19914782.1834   19914787.3124
  19072168.975   -29357923.08849 -22855790.95949  19072168.2934   19072173.9364
 96  9 18 17  5 59.9920000  0  7 22 21 17  6 28 26 23
  20915440.670   -23349864.64249 -18181197.89849  20915439.2834   20915446.3434
  22054916.651   -12298213.02749  -9541504.64949  22054916.1194   22054923.5604
  18224159.047   -21483585.90049 -16722556.85849  18224158.1684   18224163.7524
  18360454.725   -11267135.19349  -8769545.76549  18360454.7324   18360459.5124
  19229449.906   -29841708.900 9 -23226015.409 9  19229449.699    19229454.483
  19893173.109   -24260250.42749 -18885587.90749  19893173.5924   19893177.8904
  19043545.923   -29508337.87949 -22972997.27149  19043545.1584   19043550.8964
 96  9 18 17  6 29.9920000  0  7 22 21 17  6 28 26 23
  20896250.389   -23450709.26949 -18259778.12849  20896249.6574   20896256.1324
  22019297.187   -12485394.22749  -9687360.07949  22019296.4584   22019304.4534
  18202710.832   -21596296.94449 -16810383.63949  18202710.2064   18202715.5734
  18353189.934   -11305312.07249  -8799293.99349  18353189.7714   18353194.5934
  19198221.593   -30005814.837 9 -23353890.157 9  19198221.308    19198226.130
  19871654.857   -24373329.80249 -18973701.68849  19871654.8504   19871659.0224
  19014978.479   -29658460.64149 -23089976.02149  19014977.7854   19014983.5144
 96  9 18 17  6 59.9920000  0  7 22 21 17  6 28 26 23
  20877139.502   -23551138.83249 -18338034.95149  20877139.0574   20877144.9154
  21983693.013   -12672495.50249  -9833153.24249  21983692.3864   21983700.1304
  18181294.499   -21708840.47549 -16898079.89449  18181293.9324   18181299.3234
  18345994.392   -11343125.02049  -8828758.65049  18345994.1834   18345998.9264
  19167033.681   -30169708.369 9 -23481599.395 9  19167033.509    19167038.328
  19850224.765   -24485945.48949 -19061454.16249  19850224.8154   19850229.5714
  18986465.666   -29808296.29349 -23206731.06249  18986464.8244   18986470.7064
 96  9 18 17  7 29.9920000  0  7 22 21 17  6 28 26 23
  20858105.436   -23651164.18549 -18415976.77549  20858105.0844   20858109.8494
  21948100.528   -12859534.96649  -9978898.24849  21948100.1264   21948107.6864
  18159908.272   -21821225.98349 -16985653.01249  18159907.7274   18159913.0364
  18338863.542   -11380598.02149  -8857958.42249  18338863.4694   18338868.4534
  19135884.796   -30333396.986 9 -23609148.960 9  19135884.503    19135889.339
  19828877.717   -24598124.74949 -19148866.55549  19828877.5244   19828882.8214
  18958004.827   -29957858.73349 -23323273.20349  18958004.0874   18958009.8104
 96  9 18 17  7 59.9910000  0  7 22 21 17  6 28 26 23
  20839151.697   -23750767.25149 -18493589.56249  20839151.1264   20839155.5694
  21912517.628   -13046524.39149 -10124604.26049  21912516.8904   21912524.6754
  18138550.954   -21933459.60449 -17073107.77349  18138550.5434   18138555.5144
  18331799.594   -11417719.20749  -8886884.02349  18331799.3994   18331804.5234
  19104777.837   -30496864.878 9 -23736526.521 9  19104777.618    19104782.348
  19807616.408   -24709853.79149 -19235928.14049  19807616.7224   19807621.4704
  18929594.512   -30107155.84549 -23439608.59549  18929594.0154   18929599.2404
 96  9 18 17  8 29.9910000  0  7 22 21 17  6 28 26 23
  20820278.719   -23849946.22549 -18570871.88349  20820277.5724   20820282.8904
  21876933.357   -13233520.43649 -10270315.42549  21876933.2344   21876940.3784
  18117219.252   -22045558.74549 -17160457.74549  18117218.9004   18117223.9354
  18324802.104   -11454491.23949  -8915537.57649  18324802.0934   18324807.2064
  19073709.918   -30660127.909 9 -23863744.459 9  19073709.765    19073714.245
  19786438.206   -24821145.86349 -19322649.23449  19786438.0344   19786443.4644
  18901231.582   -30256203.99449 -23555749.99049  18901231.1304   18901236.3804
 96  9 18 17  8 59.9910000  0  7 22 21 17  6 28 26 23
  20801487.401   -23948695.18349 -18647819.13149  20801486.5514   20801491.8174
  21841347.829   -13420523.22149 -10416031.82449  21841347.4204   21841355.2294
  18095915.292   -22157511.98849 -17247694.03549  18095914.8094   18095919.7644
  18317873.633   -11490900.89049  -8943908.75849  18317873.7704   18317878.4704
  19042684.112   -30823169.663 9 -23990789.968 9  19042683.974    19042688.269
  19765344.540   -24931993.30449 -19409023.86449  19765344.6374   19765349.7584
  18872919.297   -30404986.05249 -23671684.04149  18872918.4604   18872923.9614
 96  9 18 17  9 29.9910000  0  7 22 21 17  6 28 26 23
  20782777.261   -24047016.49749 -18724433.13749  20782776.6534   20782782.2084
  21805757.950   -13607548.38149 -10561765.65549  21805757.0494   21805765.4594
  18074637.856   -22269325.71749 -17334821.60849  18074637.2194   18074642.1524
  18311015.385   -11526941.24549  -8971992.16149  18311015.4484   18311020.1964
  19011700.682   -30985989.003 9 -24117662.166 9  19011700.544    19011704.707
  19744335.646   -25042395.89149 -19495051.83949  19744335.9014   19744340.4154
  18844657.504   -30553502.73949 -23787411.31049  18844656.9354   18844662.0734
 96  9 18 17  9 59.9910000  0  7 22 21 17  6 28 26 23
  20764151.260   -24144896.24149 -18800703.06549  20764149.8284   20764156.0394
  21770166.673   -13794581.23949 -10707505.49349  21770165.6284   21770172.9024
  18053387.812   -22380995.50349 -17421837.01949  18053387.1804   18053392.2194
  18304227.813   -11562610.36249  -8999786.28449  18304227.8774   18304232.4724
  18980760.112   -31148582.970 9 -24244358.748 9  18980760.073    18980763.961
  19723414.957   -25152335.19449 -19580718.81749  19723415.2444   19723419.4374
  18816447.942   -30701745.10949 -23902924.82349  18816447.6044   18816452.6254
 96  9 18 17 10 29.9910000  0  7 22 21 17  6 28 26 23
  20745608.805   -24242336.61549 -18876630.65649  20745607.9644   20745614.3324
  21734579.404   -13981593.89749 -10853229.60049  21734578.2254   21734585.8874
  18032166.209   -22492515.65349 -17508735.83249  18032165.4724   18032170.6924
  18297509.386   -11597916.10449  -9027297.27049  18297509.2284   18297513.9804
  18949862.330   -31310952.156 9 -24370880.176 9  18949862.173    18949865.970
  19702581.020   -25261818.45149 -19666030.44649  19702580.9274   19702586.3434
  18788292.250   -30849704.43749 -24018217.78849  18788291.6964   18788296.7994
 96  9 18 17 10 59.9910000  0  7 22 21 17  6 28 26 23
  20727145.527   -24339362.06549 -18952234.90749  20727144.2274   20727151.0214
  21699000.178   -14168563.64549 -10998920.25749  21698999.3354   21699005.9394
  18010968.076   -22603912.53249 -17595538.59049  18010967.4174   18010972.5104
  18290855.076   -11632884.67449  -9054545.52649  18290855.1844   18290859.8484
  18919004.861   -31473109.513 9 -24497236.541 9  18919004.656    18919008.533
  19681828.367   -25370873.85449 -19751008.68149  19681828.4244   19681833.6884
  18760189.237   -30997386.49049 -24133294.69449  18760188.5824   18760193.8604
 96  9 18 17 11 29.9910000  0  7 22 21 17  6 28 26 23
  20708762.835   -24435962.95149 -19027508.32849  20708762.1224   20708768.6344
  21663429.655   -14355488.18849 -11144575.71249  21663430.0994   21663435.1054
  17989793.159   -22715187.32449 -17682246.21249  17989792.4164   17989797.8144
  18284260.504   -11667539.34549  -9081549.18949  18284260.4404   18284265.3864
  18888186.556   -31635060.802 9 -24623432.332 9  18888186.321    18888190.377
  19661155.045   -25479512.75349 -19835662.36449  19661155.1264   19661160.2274
  18732137.418   -31144799.55649 -24248161.99949  18732136.8224   18732142.2764
 96  9 18 17 11 59.9910000  0  7 22 21 17  6 28 26 23
  20690458.083   -24532154.29049 -19102462.63049  20690457.4844   20690463.2454
  21627866.163   -14542376.10849 -11290202.62949  21627865.9604   21627872.1474
  17968639.693   -22826349.50949 -17768866.09149  17968639.0604   17968644.1514
  18277722.552   -11701896.51449  -9108321.03449  18277722.3564   18277727.5304
  18857405.750   -31796815.258 9 -24749474.753 9  18857405.430    18857409.729
  19640561.037   -25587735.00649 -19919991.38549  19640561.0634   19640565.6044
  18704133.199   -31291962.63349 -24362834.51249  18704132.4594   18704137.9074
 96  9 18 17 12 29.9910000  0  7 22 21 17  6 28 26 23
  20672229.326   -24627947.26249 -19177106.52649  20672228.3344   20672234.2484
  21592307.896   -14729235.96149 -11435807.67749  21592306.8274   21592313.6684
  17947511.535   -22937378.78149 -17855382.40649  17947511.0674   17947516.3574
  18271244.865   -11735936.98449  -9134846.08349  18271245.0104   18271249.8444
  18826665.457   -31958356.347 9 -24875350.913 9  18826665.131    18826669.650
  19620046.087   -25695541.90749 -20003996.75349  19620046.1154   19620050.9944
  18676180.172   -31438856.61749 -24477297.34349  18676179.5104   18676184.7584
 96  9 18 17 12 59.9910000  0  7 22 21 17  6 28 26 23
  20654078.525   -24723331.47749 -19251431.88149  20654077.4904   20654083.0754
  21556753.517   -14916075.51549 -11581396.92849  21556752.4914   21556758.9194
  17926411.895   -23048258.11149 -17941781.87849  17926411.3444   17926416.4804
  18264829.408   -11769650.70749  -9161116.53649  18264829.6024   18264834.3024
  18795968.984   -32119667.166 9 -25001047.642 9  18795968.572    18795973.262
  19599615.115   -25802906.83749 -20087657.73449  19599614.8994   19599620.7804
  18648280.899   -31585468.31249 -24591540.20449  18648280.3144   18648285.6684
 96  9 18 17 13 29.9910000  0  7 22 21 17  6 28 26 23
  20636004.450   -24818311.47049 -19325442.27149  20636004.0524   20636008.9034
  21521199.584   -15102912.71649 -11726984.31149  21521199.4744   21521206.7744
  17905342.552   -23158978.33449 -18028057.37349  17905342.0504   17905347.3144
  18258478.934   -11803023.03049  -9187120.97349  18258478.6484   18258483.6084
  18765317.550   -32280741.030 9 -25126559.736 9  18765317.041    18765322.086
  19579274.834   -25909795.82849 -20170947.85949  19579275.2104   19579280.5624
  18620436.448   -31731791.74949 -24705558.44849  18620436.0104   18620441.3464
 96  9 18 17 13 59.9910000  0  7 22 21 17  6 28 26 23
  20618001.938   -24912915.37049 -19399159.60449  20618001.5754   20618006.6634
  21485644.937   -15289753.37249 -11872574.36649  21485643.2794   21485650.0244
  17884299.787   -23269558.98249 -18114224.11149  17884299.1374   17884304.4914
  18252196.559   -11836036.87949  -9212846.06849  18252196.4374   18252201.2604
  18734710.893   -32441579.863 9 -25251888.687 9  18734710.540    18734715.623
  19559023.550   -26016217.61749 -20253873.92449  19559023.9004   19559028.5134
  18592647.682   -31877822.79949 -24819348.86249  18592647.4084   18592652.4924
 96  9 18 17 14 29.9910000  0  7 22 21 17  6 28 26 23
  20600070.609   -25007145.49249 -19472585.67449  20600069.9084   20600075.5564
  21450091.775   -15476586.10849 -12018158.27049  21450091.1614   21450098.0834
  17863281.543   -23380010.69249 -18200290.37649  17863280.9584   17863286.0874
  18245982.190   -11868693.52649  -9238292.82849  18245982.1894   18245986.9444
  18704148.774   -32602184.634 9 -25377035.258 9  18704148.587    18704153.394
  19538858.850   -26122184.15249 -20336445.23849  19538858.5704   19538863.8874
  18564913.646   -32023566.15149 -24932915.09549  18564913.0684   18564918.4804
 96  9 18 17 14 59.9910000  0  7 22 21 17  6 28 26 23
  20582215.552   -25100973.97849 -19545698.79749  20582214.8994   20582220.9264
  21414544.717   -15663386.70249 -12163717.13949  21414543.9904   21414550.6244
  17842285.903   -23490343.56449 -18286264.04049  17842285.3534   17842290.7194
  18239837.018   -11900986.80049  -9263456.43349  18239837.0444   18239841.9724
  18673633.038   -32762545.965 9 -25501992.131 9  18673632.863    18673637.600
  19518785.043   -26227672.85549 -20418644.21849  19518785.0064   19518789.5914
  18537233.461   -32169026.44949 -25046260.76749  18537232.8114   18537238.4654
 96  9 18 17 15 29.9910000  0  7 22 21 17  6 28 26 23
  20564437.509   -25194398.40049 -19618497.05249  20564436.7874   20564442.8494
  21379006.684   -15850139.78449 -12309238.95249  21379005.9324   21379012.6674
  17821311.247   -23600565.97949 -18372151.63549  17821310.6134   17821315.8664
  18233762.273   -11932910.05449  -9288331.69849  18233762.4094   18233767.1024
  18643164.605   -32922659.050 9 -25626755.569 9  18643164.536    18643168.758
  19498799.926   -26332695.14649 -20500479.76649  19498799.4624   19498804.6604
  18509606.142   -32314208.97349 -25159389.99449  18509605.6174   18509611.1044
 96  9 18 17 15 59.9910000  0  7 22 21 17  6 28 26 23
  20546740.400   -25287396.98449 -19690963.48449  20546739.6484   20546745.6794
  21343480.756   -16036829.61649 -12454711.51249  21343479.8064   21343486.7574
  17800359.355   -23710668.59349 -18457945.88149  17800358.6884   17800364.0174
  18227756.739   -11964469.65849  -9312923.61849  18227756.6374   18227761.6354
  18612744.670   -33082517.196 9 -25751320.344 9  18612744.535    18612748.647
  19478900.357   -26437267.74049 -20581964.89949  19478900.1084   19478905.9694
  18482029.745   -32459124.03149 -25272310.80349  18482029.4474   18482034.9604
 96  9 18 17 16 29.9900000  0  7 22 21 17  6 28 26 23
  20529129.764   -25379941.39749 -19763076.02349  20529129.0904   20529134.5114
  21307969.664   -16223441.32049 -12600123.17249  21307969.3004   21307975.8634
  17779434.770   -23820627.94049 -18543628.48449  17779434.3144   17779439.4104
  18221817.184   -11995682.26249  -9337245.14149  18221816.9994   18221822.3344
  18582376.294   -33242104.223 9 -25875673.856 9  18582376.039    18582380.023
  19459091.427   -26541364.09949 -20663078.95149  19459091.7414   19459096.8084
  18454505.130   -32603767.00349 -25385019.59549  18454504.6924   18454510.0244
 96  9 18 17 16 59.9900000  0  7 22 21 17  6 28 26 23
  20511603.036   -25472045.37049 -19834845.35949  20511602.3534   20511608.8314
  21272470.387   -16409990.96349 -12745486.48149  21272469.3164   21272477.7014
  17758540.020   -23930430.65749 -18629189.04149  17758539.5294   17758544.8354
  18215942.020   -12026556.36449  -9361302.90849  18215942.0264   18215947.1884
  18552058.553   -33401425.083 9 -25999819.965 9  18552058.327    18552062.394
  19439373.236   -26644983.63749 -20743821.44049  19439373.3424   19439378.3234
  18427033.570   -32748130.82549 -25497510.86449  18427033.0904   18427038.3224
 96  9 18 17 17 29.9900000  0  7 22 21 17  6 28 26 23
  20494156.036   -25563729.79849 -19906287.78649  20494155.5714   20494161.8244
  21236981.855   -16596484.16449 -12890805.80449  21236981.2644   21236988.6514
  17737678.757   -24040057.29649 -18714612.39549  17737678.2314   17737683.3234
  18210128.561   -12057106.36849  -9385108.12149  18210128.4504   18210133.8154
  18521791.003   -33560482.079 9 -26123760.468 9  18521790.891    18521794.783
  19419745.672   -26748127.40849 -20824193.21449  19419745.9304   19419750.9014
  18399616.218   -32892209.90149 -25609780.25749  18399615.6614   18399621.0354
 96  9 18 17 17 59.9900000  0  7 22 21 17  6 28 26 23
  20476788.777   -25654996.60449 -19977404.77649  20476787.7554   20476793.6574
  21201502.018   -16782931.48249 -13036089.37149  21201502.0264   21201508.9914
  17716854.144   -24149491.39149 -18799885.71749  17716853.7774   17716858.6644
  18204375.734   -12087337.82949  -9408665.12849  18204375.5834   18204380.4484
  18491573.581   -33719275.850 9 -26247495.863 9  18491573.340    18491577.364
  19400210.870   -26850783.17949 -20904184.71549  19400210.8534   19400216.0804
  18372255.323   -33035991.97249 -25721818.21649  18372254.6234   18372259.9904
 96  9 18 17 18 29.9900000  0  7 22 21 17  6 28 26 23
  20459497.246   -25745863.69049 -20048210.31549  20459496.9854   20459503.0854
  21166030.389   -16969335.97549 -13181339.57949  21166030.2224   21166037.8844
  17696065.810   -24258735.07849 -18885010.66349  17696065.4194   17696070.3264
  18198684.383   -12117246.09149  -9431970.26549  18198684.2934   18198689.4234
  18461405.936   -33877807.933 9 -26371027.350 9  18461405.675    18461410.079
  19380770.315   -26952943.80949 -20983790.39449  19380770.8424   19380776.1704
  18344951.839   -33179472.47549 -25833621.18849  18344951.0254   18344956.7444
 96  9 18 17 18 59.9900000  0  7 22 21 17  6 28 26 23
  20442283.080   -25836325.10149 -20118699.73149  20442283.1124   20442288.2374
  21130565.848   -17155703.15549 -13326560.71849  21130565.4344   21130572.6034
  17675311.637   -24367799.15949 -18969995.65749  17675311.1774   17675315.9864
  18193057.601   -12146814.74349  -9455010.78449  18193057.4284   18193062.1454
  18431287.991   -34036078.595 9 -26494355.124 9  18431287.565    18431292.174
  19361422.612   -27054616.65849 -21063015.98149  19361423.2864   19361427.7384
  18317705.310   -33322653.52149 -25945190.81549  18317704.7474   18317710.2834
 96  9 18 17 19 29.9900000  0  7 22 21 17  6 28 26 23
  20425150.573   -25926358.17049 -20188855.37549  20425149.8234   20425156.2534
  21095109.693   -17342026.34649 -13471747.57249  21095109.1604   21095115.6084
  17654587.363   -24476706.12649 -19054858.22249  17654586.8544   17654591.9494
  18187496.521   -12176038.15149  -9477782.30749  18187496.2184   18187501.1744
  18401220.705   -34194082.905 9 -26617475.353 9  18401220.180    18401224.963
  19342166.766   -27155806.77749 -21141865.42049  19342167.1364   19342171.9104
  18290514.040   -33465544.60349 -26056534.49749  18290513.5414   18290519.1904
 96  9 18 17 19 59.9900000  0  7 22 21 17  6 28 26 23
  20408100.366   -26015957.77549 -20258673.26049  20408099.8464   20408106.1534
  21059663.161   -17528299.24949 -13616895.24849  21059662.1494   21059669.8794
  17633887.479   -24585484.91149 -19139620.91349  17633886.9044   17633891.9004
  18181999.488   -12204925.30249  -9500291.80049  18181999.5244   18182004.3844
  18371204.536   -34351818.454 9 -26740386.161 9  18371204.150    18371208.835
  19322998.997   -27256534.44249 -21220354.49549  19322999.1264   19323004.3664
  18263375.791   -33608157.17149 -26167661.15749  18263375.2784   18263380.7164
 96  9 18 17 20 29.9900000  0  7 22 21 17  6 28 26 23
  20391133.634   -26105118.57049 -20328149.22049  20391133.1824   20391139.1514
  21024230.286   -17714499.67749 -13761986.45449  21024230.0684   21024236.1934
  17613209.040   -24694150.90549 -19224295.71449  17613208.4204   17613213.5804
  18176567.290   -12233472.00249  -9522535.97749  18176567.3144   18176571.8354
  18341241.523   -34509274.955 9 -26863079.527 9  18341241.273    18341245.823
  19303918.001   -27356805.92049 -21298488.11949  19303918.6254   19303922.8094
  18236290.055   -33750493.78549 -26278572.78649  18236289.5694   18236294.9354
 96  9 18 17 20 59.9900000  0  7 22 21 17  6 28 26 23
  20374249.255   -26193846.71049 -20397288.04349  20374248.5114   20374254.1884
  20988810.600   -17900631.19949 -13907023.95949  20988810.2194   20988816.8634
  17592550.947   -24802709.87249 -19308887.11549  17592550.3514   17592555.4224
  18171198.093   -12261687.80649  -9544522.33949  18171198.0614   18171203.1734
  18311332.467   -34666448.248 9 -26985552.215 9  18311332.328    18311336.663
  19284923.313   -27456624.05249 -21376268.47349  19284923.7754   19284927.9654
  18209258.343   -33892546.46449 -26389263.16649  18209257.7934   18209263.1364
 96  9 18 17 21 29.9900000  0  7 22 21 17  6 28 26 23
  20357442.421   -26282167.46549 -20466109.41349  20357441.1274   20357447.1614
  20953404.344   -18086692.80449 -14052006.98949  20953403.9504   20953410.6064
  17571917.176   -24911141.17049 -19393379.03649  17571916.7454   17571921.9584
  18165890.914   -12289577.50149  -9566254.59649  18165890.7764   18165895.8384
  18281478.092   -34823334.150 9 -27107800.964 9  18281478.036    18281482.266
  19266015.337   -27555986.45349 -21453693.71849  19266015.3554   19266020.2104
  18182280.865   -34034314.18249 -26499731.50349  18182280.3394   18182285.6844
 96  9 18 17 21 59.9900000  0  7 22 21 17  6 28 26 23
  20340712.223   -26370085.02549 -20534616.60649  20340711.3894   20340716.8304
  20918011.145   -18272685.55849 -14196936.36849  20918010.5734   20918016.8874
  17551314.024   -25019411.57449 -19477745.58049  17551313.4194   17551318.3664
  18160648.837   -12317124.76549  -9587719.99549  18160648.5754   18160653.8334
  18251679.464   -34979927.131 9 -27229821.457 9  18251679.265    18251683.682
  19247196.427   -27654880.51549 -21530754.02149  19247196.3334   19247201.2814
  18155358.726   -34175791.05349 -26609973.20549  18155358.4074   18155363.5214
 96  9 18 17 22 29.9900000  0  7 22 21 17  6 28 26 23
  20324058.117   -26457603.46049 -20602812.81249  20324057.7384   20324062.6604
  20882625.924   -18458636.11749 -14341832.84949  20882625.3794   20882632.0504
  17530743.132   -25127512.39249 -19561979.97949  17530742.6194   17530747.5254
  18155471.548   -12344331.37449  -9608919.96249  18155471.3994   18155476.4354
  18221935.899   -35136230.472 9 -27351616.255 9  18221935.626    18221940.076
  19228468.260   -27753297.38349 -21607442.48249  19228468.1484   19228473.0984
  18128493.572   -34316968.59249 -26719981.65949  18128493.2854   18128498.3714
 96  9 18 17 22 59.9900000  0  7 22 21 17  6 28 26 23
  20307481.069   -26544716.73549 -20670693.29349  20307480.1744   20307485.6104
  20847248.347   -18644546.15449 -14486697.76149  20847248.3704   20847254.3594
  17510208.553   -25235422.43649 -19646065.72649  17510208.1854   17510213.1024
  18150359.942   -12371193.22149  -9629851.30949  18150359.7574   18150364.9664
  18192248.893   -35292236.693 9 -27473179.534 9  18192248.618    18192253.006
  19209833.868   -27851221.34349 -21683746.86549  19209833.6194   19209839.2844
  18101687.977   -34457833.31849 -26829746.36549  18101687.5824   18101692.4164
 96  9 18 17 23 29.9900000  0  7 22 21 17  6 28 26 23
  20290985.369   -26631402.31949 -20738240.51349  20290984.3644   20290990.5644
  20811883.377   -18830390.92749 -14631511.83049  20811883.5334   20811888.5334
  17489711.568   -25343134.89449 -19729997.50849  17489711.1354   17489716.0424
  18145317.577   -12397691.11949  -9650499.04649  18145317.4884   18145322.3194
  18162619.997   -35447937.497 9 -27594504.821 9  18162619.740    18162624.217
  19191293.084   -27948653.75649 -21759668.20649  19191293.1344   19191298.1234
  18074942.911   -34598379.72749 -26939263.03049  18074942.6484   18074947.3284
 96  9 18 17 23 59.9900000  0  7 22 21 17  6 28 26 23
  20274572.673   -26717651.66149 -20805447.82149  20274572.6454   20274576.9274
  20776533.434   -19016156.39449 -14776264.10749  20776533.2954   20776539.2554
  17469247.304   -25450675.34349 -19813795.25549  17469246.6124   17469251.6304
  18140340.968   -12423843.47049  -9670877.52849  18140340.9334   18140345.8844
  18133048.536   -35603336.613 9 -27715595.034 9  18133048.362    18133052.772
  19172845.049   -28045598.89749 -21835209.86749  19172845.1954   19172850.5054
  18048260.035   -34738599.08149 -27048524.84949  18048259.5304   18048264.6094
 96  9 18 17 24 29.9900000  0  7 22 21 17  6 28 26 23
  20258241.228   -26803474.10149 -20872322.46849  20258240.0124   20258245.3134
  20741201.359   -19201828.08249 -14920943.31249  20741200.8654   20741206.7294
  17448812.989   -25558058.38849 -19897470.35549  17448812.4294   17448817.2694
  18135427.569   -12449663.80249  -9690997.29449  18135427.7254   18135432.7704
  18103535.560   -35758428.400 9 -27836445.773 9  18103535.323    18103539.898
  19154489.657   -28142057.34749 -21910372.29349  19154489.9534   19154495.1514
  18021641.009   -34878482.92949 -27157525.23549  18021640.3584   18021645.3864
 96  9 18 17 24 59.9890000  0  7 22 21 17  6 28 26 23
  20241990.043   -26888873.89849 -20938867.76449  20241989.4324   20241995.2714
  20705894.359   -19387367.59549 -15065519.51049  20705893.4684   20705899.6734
  17428410.516   -25665273.98249 -19981014.97049  17428409.9334   17428414.6364
  18130579.616   -12475140.14849  -9710849.01549  18130579.8714   18130584.4734
  18074083.009   -35913202.364 9 -27957048.857 9  18074082.723    18074087.200
  19136228.384   -28238021.31549 -21985149.40249  19136228.4854   19136233.6024
  17995085.829   -35018031.17549 -27266264.11449  17995085.1624   17995090.4814
 96  9 18 17 25 29.9890000  0  7 22 21 17  6 28 26 23
  20225821.588   -26973839.82349 -21005074.99949  20225820.5764   20225825.4684
  20670610.431   -19572785.60249 -15210001.01449  20670609.4854   20670615.8784
  17408038.814   -25772327.90149 -20064433.60449  17408038.0764   17408042.9604
  18125798.600   -12500264.92449  -9730426.79149  18125798.6314   18125803.5784
  18044691.608   -36067655.074 9 -28077401.611 9  18044691.340    18044695.587
  19118062.219   -28333484.74249 -22059536.47849  19118062.3214   19118067.2364
  17968592.296   -35157255.36349 -27374750.48149  17968591.6634   17968596.7564
 96  9 18 17 25 59.9890000  0  7 22 21 17  6 28 26 23
  20209736.823   -27058365.76249 -21070939.39149  20209735.9014   20209741.4014
  20635347.350   -19758094.27349 -15354397.35749  20635346.6674   20635353.1294
  17387700.882   -25879204.37449 -20147713.97249  17387700.3364   17387705.2114
  18121082.928   -12525046.13749  -9749736.87749  18121082.8954   18121088.0974
  18015364.846   -36221768.292 9 -28197489.826 9  18015364.653    18015368.868
  19099997.281   -28428416.58949 -22133509.34849  19099997.3074   19100002.0214
  17942161.524   -35296149.48849 -27482979.66149  17942160.7014   17942166.3014
 96  9 18 17 26 29.9890000  0  7 22 21 17  6 28 26 23
  20193731.867   -27142471.97349 -21136476.70549  20193731.1814   20193736.3904
  20600098.224   -19943329.56849 -15498736.51649  20600097.4894   20600104.2674
  17367394.778   -25985913.54549 -20230863.96849  17367394.1934   17367399.2004
  18116432.458   -12549484.70649  -9768779.94349  18116432.4554   18116437.5294
  17986100.273   -36375554.487 9 -28317323.221 9  17986100.082    17986104.263
  19082030.878   -28522830.75549 -22207078.81749  19082030.7454   19082036.0314
  17915788.365   -35434740.94649 -27590972.99049  17915787.6884   17915793.3454
 96  9 18 17 26 59.9890000  0  7 22 21 17  6 28 26 23
  20177809.651   -27226144.69849 -21201676.24049  20177808.5744   20177814.2974
  20564859.710   -20128508.44049 -15643031.71149  20564859.4644   20564866.1754
  17347119.691   -26092459.94249 -20313887.13249  17347119.0194   17347123.9334
  18111847.788   -12573577.45849  -9787553.52949  18111847.6994   18111852.9354
  17956897.860   -36529014.514 9 -28436902.457 9  17956897.838    17956901.787
  19064163.352   -28616725.42949 -22280243.48849  19064163.2644   19064168.5024
  17889471.872   -35573034.84749 -27698734.45849  17889471.3074   17889476.8004
 96  9 18 17 27 29.9890000  0  7 22 21 17  6 28 26 23
  20161965.948   -27309403.54749 -21266553.28449  20161965.4724   20161971.1914
  20529626.710   -20313658.40749 -15787304.37349  20529625.2764   20529632.6784
  17326872.585   -26198858.93349 -20396795.43649  17326871.9364   17326877.1234
  18107324.090   -12597349.80149  -9806077.46049  18107324.0704   18107329.0574
  17927754.626   -36682163.352 9 -28556239.209 9  17927754.534    17927758.669
  19046389.256   -28710128.59249 -22353025.17949  19046389.3794   19046394.3384
  17863210.225   -35711040.56049 -27806271.36149  17863209.7574   17863215.1794
 96  9 18 17 27 59.9890000  0  7 22 21 17  6 28 26 23
  20146197.827   -27392265.55349 -21331121.08949  20146196.2694   20146202.1934
  20494403.942   -20498754.55849 -15931535.09649  20494402.8404   20494409.6544
  17306655.781   -26305098.94049 -20479579.85449  17306655.2824   17306660.3934
  18102861.894   -12620798.99649  -9824349.60049  18102861.9894   18102866.6904
  17898670.816   -36835000.081 9 -28675332.762 9  17898670.588    17898674.998
  19028706.168   -28803053.63649 -22425434.30149  19028706.4814   19028711.6904
  17837007.251   -35848738.06349 -27913568.10749  17837006.6974   17837012.0364
 96  9 18 17 28 29.9890000  0  7 22 21 17  6 28 26 23
  20130504.767   -27474732.20149 -21395380.82849  20130503.8424   20130509.9014
  20459197.889   -20683763.25849 -16075697.68849  20459197.8824   20459203.9464
  17286470.977   -26411171.03549 -20562233.43349  17286470.4064   17286475.6384
  18098463.816   -12643911.28449  -9842359.19349  18098463.8844   18098468.6184
  17869647.849   -36987516.863 9 -28794176.997 9  17869647.590    17869652.100
  19011111.560   -28895514.08749 -22497481.40249  19011111.7214   19011116.5284
  17810864.003   -35986121.59149 -28020620.19449  17810863.5964   17810869.3304
 96  9 18 17 28 59.9890000  0  7 22 21 17  6 28 26 23
  20114886.465   -27556805.76249 -21459334.27349  20114885.9444   20114891.5214
  20424011.251   -20868670.35549 -16219781.11449  20424010.9714   20424017.4754
  17266319.669   -26517067.09549 -20644749.84149  17266319.1964   17266324.4444
  18094128.324   -12666694.74449  -9860112.57649  18094128.2864   18094133.0904
  17840686.006   -37139712.156 9 -28912770.725 9  17840685.600    17840690.460
  18993604.368   -28987515.18049 -22569170.54949  18993604.4714   18993609.7484
  17784779.228   -36123197.89449 -28127432.88349  17784778.7144   17784783.9504
 96  9 18 17 29 29.9890000  0  8 22 21 17  3  6 28 26 23
  20099344.818   -27638476.99949 -21522974.22249  20099343.3844   20099349.6884
  20388849.358   -21053447.36549 -16363763.15849  20388848.1344   20388855.6464
  17246206.439   -26622762.99949 -20727110.28849  17246205.9104   17246211.1954
  21466337.013    -6084400.07949  -4707834.99949  21466336.0454   21466341.4424
  18089857.284   -12689139.18549  -9877601.76749  18089857.0834   18089862.1454
  17811788.854   -37291567.469 9 -29031099.530 9  17811788.395    17811793.338
  18976186.975   -29079044.54949 -22640492.12349  18976186.9194   18976191.9204
  17758754.777   -36259957.39649 -28233998.71449  17758754.4504   17758759.8594
 96  9 18 17 29 59.9890000  0  8 22 21 17  3  6 28 26 23
  20083883.596   -27719726.14649 -21586285.26649  20083883.3874   20083889.1954
  20353713.983   -21238084.63949 -16507636.31649  20353713.2974   20353720.6444
  17226130.486   -26728262.85649 -20809317.97049  17226130.0384   17226134.9794
  21427993.128    -6285898.35549  -4864846.60249  21427992.9494   21427999.0414
  18085652.846   -12711233.34949  -9894818.02749  18085652.7634   18085657.8204
  17782958.473   -37443071.746 9 -29149154.804 9  17782958.164    17782962.865
  18958863.343   -29170080.43449 -22711429.16749  18958863.6224   18958868.5514
  17732788.054   -36396413.27049 -28340327.95249  17732787.7174   17732793.0704
 96  9 18 17 30 29.9890000  0  8 22 21 17  3  6 28 26 23
  20068503.368   -27800550.53749 -21649265.33449  20068503.4944   20068508.1924
  20318600.895   -21422604.08449 -16651417.64849  20318600.5564   20318607.3454
  17206090.039   -26833576.25949 -20891380.36149  17206089.5124   17206094.5114
  21389646.287    -6487412.32549  -5021870.45449  21389646.6764   21389652.4874
  18081513.529   -12732985.57849  -9911767.84849  18081513.5594   18081518.3804
  17754194.652   -37594226.516 9 -29266937.736 9  17754194.517    17754198.857
  18941636.820   -29260606.67149 -22781969.09449  18941636.9484   18941641.8904
  17706875.119   -36532586.43949 -28446436.90549  17706874.5264   17706880.1524
 96  9 18 17 30 59.9890000  0  8 22 21 17  3  6 28 26 23
  20053204.917   -27880945.23049 -21711910.56749  20053204.7554   20053210.2084
  20283506.653   -21607024.98949 -16795122.20349  20283506.6414   20283512.7734
  17186083.695   -26938710.42549 -20973303.09049  17186083.3124   17186088.0434
  21351296.697    -6688940.48749  -5178905.35649  21351296.6254   21351302.6594
  18077437.955   -12754402.80349  -9928456.61349  18077438.0004   18077443.1134
  17725496.063   -37745038.812 9 -29384453.804 9  17725495.984    17725500.164
  18924508.833   -29350614.46249 -22852105.02749  18924508.6054   18924513.6964
  17681017.235   -36668470.49349 -28552320.57449  17681016.8274   17681022.1144
 96  9 18 17 31 29.9890000  0  8 22 21 17  3  6 28 26 23
  20037985.642   -27960923.80749 -21774231.54949  20037985.5514   20037991.0784
  20248430.420   -21791351.61349 -16938753.30649  20248429.9044   20248436.6424
  17166107.646   -27043685.42449 -21055101.79349  17166107.2414   17166112.0744
  21312941.750    -6890496.73049  -5335962.17349  21312942.0174   21312947.1794
  18073423.751   -12775497.86049  -9944894.35249  18073423.7794   18073428.8524
  17696862.224   -37895510.840 9 -29501704.728 9  17696862.117    17696866.301
  18907478.943   -29440106.70449 -22921839.24049  18907479.0154   18907483.8644
  17655216.755   -36804052.93249 -28657969.22349  17655216.5384   17655221.6584
 96  9 18 17 31 59.9890000  0  8 22 21 17  3  6 28 26 23
  20022844.574   -28040491.36849 -21836232.25549  20022844.5934   20022849.2064
  20213371.710   -21975586.73649 -17082313.09149  20213370.9744   20213378.0084
  17146161.926   -27148500.89149 -21136776.18149  17146161.4194   17146166.2024
  21274581.176    -7092082.72149  -5493042.14949  21274581.9234   21274586.7304
  18069470.587   -12796271.99549  -9961082.02449  18069470.6564   18069475.8414
  17668294.421   -38045635.717 9 -29618685.142 9  17668294.204    17668298.445
  18890548.876   -29529075.07349 -22991165.24449  18890549.1054   18890554.1184
  17629475.998   -36939321.68849 -28763373.43749  17629475.5784   17629480.6884
 96  9 18 17 32 29.9890000  0  8 22 21 17  3  6 28 26 23
  20007783.592   -28119638.07049 -21897905.03149  20007783.8294   20007788.6064
  20178333.649   -22159713.47449 -17225788.44249  20178333.0014   20178339.8944
  17126249.884   -27253139.37049 -21218312.66149  17126249.4444   17126254.1984
  21236218.335    -7293680.68449  -5650131.46549  21236218.0524   21236223.6544
  18065579.129   -12816722.08049  -9977017.18049  18065579.2304   18065584.2374
  17639795.328   -38195399.327 9 -29735384.049 9  17639795.034    17639799.398
  18873718.684   -29617518.53249 -23060082.22749  18873718.5474   18873723.6964
  17603802.599   -37074236.36549 -28868501.74649  17603802.1614   17603807.3704
 96  9 18 17 32 59.9890000  0  8 22 21 17  3  6 28 26 23
  19992801.280   -28198371.76049 -21959255.97849  19992800.5324   19992805.4344
  20143315.564   -22343734.61549 -17369181.49049  20143315.2334   20143321.9084
  17106369.499   -27357611.49749 -21299719.50949  17106368.9474   17106373.9134
  21197853.460    -7495289.67049  -5807229.36049  21197852.8024   21197858.7724
  18061747.894   -12836855.59549  -9992705.67049  18061747.7624   18061753.0584
  17611364.247   -38344805.470 9 -29851804.411 9  17611364.036    17611368.351
  18856983.896   -29705460.66749 -23128608.57749  18856984.2214   18856989.2414
  17578195.325   -37208803.72349 -28973359.41649  17578194.9394   17578199.8394
 96  9 18 17 33 29.9880000  0  8 22 21 17  3  6 28 26 23
  19977892.891   -28276715.42049 -22020303.01649  19977892.1534   19977897.7884
  20108317.107   -22527652.52349 -17512494.10149  20108316.7124   20108322.9644
  17086518.850   -27461927.32749 -21381004.57249  17086518.3104   17086523.0964
  21159486.326    -7696910.28649  -5964336.32249  21159485.8734   21159491.4914
  18057973.891   -12856688.10649 -10008159.60349  18057973.9454   18057979.1354
  17583001.038   -38493855.420 9 -29967947.224 9  17583000.882    17583005.182
  18840341.995   -29792914.12649 -23196754.13949  18840342.3824   18840347.4214
  17552650.578   -37343042.33149 -29077960.91449  17552650.0134   17552655.2204
 96  9 18 17 33 59.9880000  0  8 22 21 17  3  6 28 26 23
  19963057.047   -28354678.40549 -22081053.40349  19963056.2644   19963061.1514
  20073331.424   -22711503.73449 -17655754.74649  20073331.2924   20073337.3884
  17066698.188   -27566085.57949 -21462166.84449  17066697.5314   17066702.6224
  21121113.508    -7898560.86049  -6121466.61149  21121112.9184   21121117.6044
  18054256.441   -12876223.45649 -10023381.96949  18054256.1594   18054261.3424
  17554701.519   -38642570.534 9 -30083829.130 9  17554701.493    17554705.638
  18823789.968   -29879895.72349 -23264532.00149  18823790.2714   18823795.0114
  17527162.123   -37476984.94349 -29182331.76449  17527161.5694   17527166.8394
 96  9 18 17 34 29.9880000  0  8 22 21 17  3  6 28 26 23
  19948297.182   -28432242.10349 -22141492.67749  19948296.2824   19948301.5944
  20038361.694   -22895271.14249 -17798950.10049  20038360.7424   20038367.1214
  17046910.514   -27670070.30449 -21543193.90449  17046909.9104   17046915.1344
  21082741.583    -8100206.87949  -6278593.35749  21082740.9524   21082746.3064
  18050598.147   -12895447.59649 -10038361.84049  18050597.9714   18050603.2114
  17526468.015   -38790938.826 9 -30199440.788 9  17526467.939    17526472.176
  18807328.803   -29966399.99049 -23331937.92649  18807329.1774   18807334.0584
  17501730.605   -37610628.43849 -29286469.53649  17501730.2044   17501735.4434
 96  9 18 17 34 59.9880000  0  8 22 21 17  3  6 28 26 23
  19933611.706   -28509413.19449 -22201626.01649  19933611.7584   19933616.4964
  20003407.862   -23078954.50549 -17942079.94449  20003406.8304   20003412.9534
  17027159.021   -27773865.05949 -21624072.93149  17027158.2944   17027163.3824
  21044372.891    -8301835.89749  -6435706.86049  21044372.4344   21044378.1734
  18047000.749   -12914352.19049 -10053092.72949  18047000.7314   18047005.8934
  17498302.102   -38938951.806 9 -30314775.573 9  17498301.898    17498306.288
  18790960.900   -30052413.74449 -23398961.62849  18790960.8984   18790965.7624
  17476354.848   -37743978.83949 -29390378.92249  17476354.2424   17476359.3414
 96  9 18 17 35 29.9880000  0  8 22 21 17  3  6 28 26 23
  19919000.356   -28586196.67849 -22261457.32949  19918999.6634   19919004.9774
  19968470.209   -23262552.64449 -18085143.40249  19968469.3464   19968475.0394
  17007443.105   -27877472.77649 -21704806.22249  17007442.3234   17007447.4134
  21006006.197    -8503454.20649  -6592812.01449  21006006.4044   21006011.4454
  18043461.998   -12932948.53749 -10067583.43249  18043462.2214   18043467.1904
  17470203.120   -39086612.833 9 -30429836.110 9  17470202.830    17470207.357
  18774687.714   -30137929.75649 -23465597.49049  18774687.9244   18774692.8744
  17451036.264   -37877029.04349 -29494054.39949  17451035.8994   17451040.6314
 96  9 18 17 35 59.9880000  0  8 22 21 17  3  6 28 26 23
  19904469.857   -28662555.08549 -22320957.41149  19904468.9934   19904475.3194
  19933555.294   -23446031.42849 -18228113.85449  19933555.0974   19933562.1084
  16987767.162   -27980870.23449 -21785375.67049  16987766.4644   16987771.6504
  20967648.446    -8705025.66749  -6749880.66549  20967647.6904   20967654.4484
  18039987.567   -12951206.77549 -10081810.66249  18039987.5664   18039992.5904
  17442176.709   -39233892.631 9 -30544599.578 9  17442176.492    17442180.969
  18758514.638   -30222919.76449 -23531823.47349  18758514.9904   18758519.8824
  17425781.317   -38009744.63849 -29597469.13449  17425780.9634   17425785.7824
 96  9 18 17 36 29.9880000  0  8 22 21 17  3  6 28 26 23
  19890031.891   -28738426.50849 -22380078.01649  19890031.6784   19890037.4924
  19898679.338   -23629305.41649 -18370924.72949  19898678.9214   19898685.1254
  16968140.219   -28084010.34149 -21865744.59049  16968139.5014   16968144.5904
  20929312.010    -8906484.95349  -6906861.90649  20929312.2094   20929317.3894
  18036589.014   -12969066.36949 -10095727.26549  18036588.7894   18036594.2924
  17414236.625   -39380718.858 9 -30659009.622 9  17414236.435    17414240.748
  18742454.606   -30307315.98349 -23597586.77249  18742454.8684   18742459.8524
  17400603.727   -38142053.78149 -29700567.16049  17400603.3734   17400608.2604
 96  9 18 17 36 59.9880000  0  8 22 21 17  3  6 28 26 23
  19875698.793   -28813747.49749 -22438769.72249  19875697.4014   19875704.4034
  19863854.911   -23812308.29349 -18513524.34449  19863854.1604   19863859.8814
  16948574.073   -28186831.39249 -21945864.89449  16948573.5474   16948578.5934
  20891007.814    -9107774.71149  -7063711.05449  20891007.5764   20891013.1174
  18033277.037   -12986471.23749 -10109289.52849  18033276.9824   18033282.3754
  17386397.068   -39527016.751 9 -30773007.979 9  17386396.898    17386401.267
  18726521.619   -30391044.57649 -23662829.84549  18726521.6494   18726527.0724
  17375519.460   -38273872.42549 -29803282.98049  17375518.9294   17375523.9984
 96  9 18 17 37 29.9880000  0  8 22 21 17  3  6 28 26 23
  19861469.121   -28888524.74249 -22497037.72549  19861467.9924   19861474.5674
  19829079.708   -23995053.03849 -18655922.81549  19829079.1644   19829085.8724
  16929063.575   -28289359.93749 -22025757.27249  16929062.9344   16929067.9254
  20852732.422    -9308913.11049  -7220442.25349  20852731.9944   20852737.7294
  18030047.479   -13003442.66849 -10122514.06149  18030047.2584   18030052.6294
  17358655.269   -39672800.896 9 -30886606.014 9  17358654.943    17358659.414
  18710712.537   -30474122.01949 -23727565.53049  18710713.0234   18710718.0234
  17350523.755   -38405225.45349 -29905635.98649  17350523.1634   17350528.4714
 96  9 18 17 37 59.9880000  0  8 22 21 17  3  6 28 26 23
  19847334.340   -28962802.92749 -22554916.85049  19847333.2574   19847339.2374
  19794346.254   -24177578.59249 -18798150.50149  19794345.9594   19794352.6194
  16909602.879   -28391626.62249 -22105445.60449  16909602.4464   16909607.2304
  20814478.816    -9509937.26549  -7377084.42149  20814478.1774   20814483.5574
  18026895.082   -13020008.98149 -10135422.91749  18026895.3904   18026900.4614
  17331003.639   -39818110.719 9 -30999834.442 9  17331003.226    17331007.818
  18695018.158   -30556596.18049 -23791831.12049  18695018.1384   18695023.5744
  17325606.995   -38536163.65349 -30007665.75149  17325606.3924   17325612.1174
 96  9 18 17 38 29.9880000  0  8 22 21 17  3  6 28 26 23
  19833289.380   -29036609.67949 -22612428.64649  19833288.7904   19833294.7764
  19759647.880   -24359919.94649 -18940234.65249  19759647.8604   19759652.8884
  16890190.198   -28493641.19449 -22184937.47949  16890189.7154   16890194.7094
  20776239.872    -9710884.14949  -7533666.41249  20776239.1694   20776244.9124
  18023813.506   -13036203.23449 -10148041.84249  18023813.6734   18023818.5214
  17303437.531   -39962971.140 9 -31112712.684 9  17303437.160    17303441.949
  18679432.404   -30638499.88349 -23855652.20149  18679432.6184   18679438.0364
  17300763.104   -38666719.09049 -30109397.24949  17300762.6214   17300768.1154
 96  9 18 17 38 59.9880000  0  8 22 21 17  3  6 28 26 23
  19819333.239   -29109950.27149 -22669577.18149  19819333.3314   19819338.7434
  19724981.631   -24542092.17649 -19082187.00349  19724981.6594   19724987.7044
  16870825.369   -28595404.33049 -22264233.43549  16870824.9814   16870829.7474
  20738015.507    -9911754.20749  -7690188.52349  20738015.5414   20738019.1114
  18020801.567   -13052031.13649 -10160375.29649  18020801.8094   18020806.6224
  17275955.089   -40107392.407 9 -31225248.733 9  17275954.945    17275959.480
  18663952.731   -30719846.05249 -23919038.83449  18663952.9844   18663958.0254
  17275989.562   -38796904.93449 -30210840.75849  17275989.3614   17275994.3574
 96  9 18 17 39 29.9880000  0  8 22 21 17  3  6 28 26 23
  19805462.358   -29182842.30249 -22726376.19449  19805461.7844   19805467.9114
  19690348.185   -24724092.15549 -19224005.13249  19690347.5964   19690354.5824
  16851508.439   -28696915.75349 -22343333.24749  16851507.9444   16851512.7144
  20699806.274   -10112544.60149  -7846648.53249  20699805.7934   20699811.7944
  18017860.917   -13067484.59649 -10172416.98349  18017860.7854   18017866.0364
  17248555.106   -40251380.549 9 -31337447.281 9  17248555.024    17248559.486
  18648575.912   -30800651.69649 -23982004.27749  18648576.5694   18648581.5574
  17251282.935   -38926739.42749 -30312010.48449  17251282.6264   17251287.5644
 96  9 18 17 39 59.9880000  0  8 22 21 17  3  6 28 26 23
  19791672.233   -29255309.83449 -22782844.42949  19791671.9914   19791677.9834
  19655745.283   -24905931.33949 -19365697.97149  19655744.1714   19655751.2294
  16832236.509   -28798190.58249 -22422248.70149  16832235.9664   16832240.8874
  20661611.277   -10313260.42849  -8003050.46349  20661610.4654   20661616.6604
  18014988.381   -13082579.78949 -10184179.50749  18014988.0534   18014993.5454
  17221234.642   -40394950.650 9 -31449320.084 9  17221234.368    17221238.926
  18633297.264   -30880941.97049 -24044568.13149  18633297.7364   18633302.5794
  17226643.349   -39056221.53049 -30412905.62449  17226643.0734   17226647.9474
 96  9 18 17 40 29.9880000  0  8 22 21 17  3  6 28 26 23
  19777961.895   -29327358.69249 -22838986.42049  19777961.5824   19777967.5884
  19621172.062   -25087614.70349 -19507269.40049  19621170.8764   19621177.4604
  16813007.209   -28899241.29149 -22500989.51749  16813006.7084   16813011.6404
  20623431.922   -10513894.17949  -8159388.45249  20623432.2554   20623438.3924
  18012179.967   -13097337.67749 -10195679.18849  18012179.7474   18012184.9384
  17193994.262   -40538099.552 9 -31560864.679 9  17193993.936    17193998.496
  18618116.083   -30960719.83249 -24106732.70849  18618116.0664   18618121.7344
  17202071.465   -39185347.94349 -30513523.60649  17202071.2444   17202076.1624
 96  9 18 17 40 59.9880000  0  8 22 21 17  3  6 28 26 23
  19764329.583   -29398997.12649 -22894808.59949  19764329.3304   19764335.0864
  19586628.946   -25269140.04549 -19648717.69749  19586628.6694   19586634.4644
  16793817.545   -29000083.43549 -22579567.81349  16793817.0224   16793821.9384
  20585270.521   -10714433.83249  -8315653.11549  20585270.4444   20585275.2514
  18009436.127   -13111756.79549 -10206914.89849  18009436.0474   18009441.2654
  17166834.963   -40680822.359 9 -31672077.252 9  17166834.718    17166839.158
  18603033.663   -31039978.43649 -24168492.67049  18603033.5984   18603039.0534
  17177569.058   -39314109.41149 -30613857.21149  17177568.7274   17177573.4504
 96  9 18 17 41 29.9870000  0  8 22 21 17  3  6 28 26 23
  19750774.297   -29470231.60949 -22950316.02649  19750774.0044   19750780.5674
  19552114.019   -25450517.45349 -19790050.70949  19552113.4144   19552119.9574
  16774666.789   -29100721.30349 -22657986.92549  16774666.1004   16774671.3654
  20547125.252   -10914888.44049  -8471851.48949  20547125.0614   20547130.3274
  18006754.461   -13125849.29649 -10217896.09249  18006754.4634   18006759.9284
  17139756.208   -40823122.339 9 -31782960.350 9  17139756.204    17139760.217
  18588049.707   -31118719.63749 -24229849.45549  18588050.1814   18588055.2724
  17153135.756   -39442507.40049 -30713907.58049  17153135.2224   17153140.1734
 96  9 18 17 41 59.9870000  0  8 22 21 17  3  6 28 26 23
  19737297.632   -29541051.89449 -23005500.69049  19737296.7444   19737304.4574
  19517624.954   -25631758.65949 -19931277.58949  19517624.0604   19517630.5194
  16755553.294   -29201163.05149 -22736253.22749  16755552.6224   16755557.8904
  20508994.634   -11115265.95949  -8627989.80049  20508993.0804   20508999.2304
  18004133.354   -13139623.54149 -10228629.29549  18004133.7084   18004138.6274
  17112756.970   -40965004.681 9 -31893518.020 9  17112757.015    17112760.951
  18573165.639   -31196936.02349 -24290797.29949  18573166.0254   18573170.8724
  17128770.045   -39570549.95949 -30813680.99249  17128769.4404   17128774.6124
 96  9 18 17 42 29.9870000  0  8 22 21 17  3  6 28 26 23
  19723904.604   -29611432.98049 -23060343.12749  19723903.6364   19723909.9264
  19483164.080   -25812851.27849 -20072388.69449  19483163.1274   19483169.9224
  16736479.846   -29301394.43749 -22814355.61149  16736479.4364   16736484.5624
  20470881.691   -11315550.57949  -8784055.70349  20470881.5144   20470887.7924
  18001575.309   -13153066.73349 -10239104.54049  18001575.6094   18001580.5884
  17085841.508   -41106446.697 9 -32003732.578 9  17085841.438    17085845.438
  18558386.091   -31274602.86149 -24351316.92449  18558386.5564   18558391.7844
  17104473.067   -39698231.20349 -30913172.86549  17104472.3104   17104477.6534
 96  9 18 17 42 59.9870000  0  8 22 21 17  3  6 28 26 23
  19710599.051   -29681353.25349 -23114826.49449  19710598.6964   19710605.1134
  19448734.137   -25993781.48949 -20213373.25049  19448733.8524   19448740.4324
  16717449.066   -29401401.74949 -22892283.38749  16717448.6114   16717453.6564
  20432787.089   -11515738.84049  -8940046.54849  20432786.5564   20432793.0574
  17999083.991   -13166159.27049 -10249306.54749  17999084.0634   17999089.3534
  17059011.601   -41247438.986 9 -32113596.694 9  17059011.392    17059015.608
  18543712.407   -31351713.90049 -24411403.44049  18543712.9154   18543717.4814
  17080245.811   -39825545.85149 -31012379.07349  17080245.1224   17080250.3924
 96  9 18 17 43 29.9870000  0  8 22 21 17  3  6 28 26 23
  19697380.812   -29750816.21149 -23168953.50649  19697379.9484   19697387.2274
  19414339.292   -26174527.42749 -20354214.22549  19414338.5434   19414345.0954
  16698463.679   -29501170.89549 -22970025.58049  16698463.3844   16698468.2364
  20394712.481   -11715822.17749  -9095955.61949  20394711.8054   20394717.6524
  17996658.622   -13178904.87849 -10259238.23049  17996658.5034   17996664.0354
  17032268.049   -41387977.058 9 -32223106.877 9  17032267.686    17032272.162
  18529144.998   -31428266.51949 -24471054.83149  18529145.2504   18529150.2114
  17056086.501   -39952503.61249 -31111307.19249  17056085.8374   17056091.0554
 96  9 18 17 43 59.9870000  0  8 22 21 17  3  6 28 26 23
  19684247.344   -29819834.19249 -23222733.79549  19684247.0894   19684252.7814
  19379981.132   -26355080.68849 -20494905.05549  19379980.8884   19379987.4584
  16679523.874   -29600700.49049 -23047581.11149  16679523.4864   16679528.2984
  20356658.171   -11915799.02449  -9251781.71449  20356657.3794   20356662.8124
  17994295.872   -13191321.41749 -10268913.49349  17994295.6584   17994301.0734
  17005611.550   -41528057.846 9 -32332260.733 9  17005611.190    17005615.721
  18514682.859   -31504266.01049 -24530275.21649  18514683.2324   18514688.0504
  17031994.921   -40079105.62649 -31209958.10249  17031994.3064   17031999.4484
 96  9 18 17 44 29.9870000  0  8 22 21 17  3  6 28 26 23
  19671194.955   -29888426.22049 -23276182.16749  19671194.1564   19671200.6044
  19345655.836   -26535461.65549 -20635461.63049  19345655.4314   19345661.9914
  16660628.886   -29699994.66949 -23124953.20349  16660628.4674   16660633.3564
  20318619.207   -12115695.05049  -9407544.82849  20318619.5624   20318624.5124
  17991992.335   -13203426.56849 -10278346.11649  17991991.9034   17991997.3224
  16979039.612   -41667694.120 9 -32441068.223 9  16979039.206    16979043.936
  18500322.593   -31579729.62649 -24589078.04349  18500322.4534   18500327.6994
  17007969.551   -40205359.75249 -31308337.93449  17007969.0584   17007974.0744
 96  9 18 17 44 59.9870000  0  8 22 21 17  3  6 28 26 23
  19658217.747   -29956622.10949 -23329321.86749  19658217.9094   19658223.1884
  19311365.255   -26715659.81049 -20775875.75849  19311365.0804   19311370.5914
  16641780.656   -29799042.93349 -23202133.67349  16641780.1254   16641785.2034
  20280594.063   -12315518.55549  -9563251.42049  20280594.3974   20280599.2594
  17989747.371   -13215223.37049 -10287538.47149  17989747.0874   17989752.4104
  16952552.116   -41806886.561 9 -32549529.865 9  16952551.823    16952556.453
  18486063.665   -31654660.78649 -24647465.96849  18486063.7544   18486069.0794
  16984009.414   -40331271.03549 -31406450.61549  16984008.7454   16984013.8334
 96  9 18 17 45 29.9870000  0  8 22 21 17  3  6 28 26 23
  19645311.695   -30024444.05749 -23382170.15949  19645311.1844   19645317.4084
  19277108.135   -26895682.15249 -20916152.88349  19277107.7964   19277113.9084
  16622978.530   -29897848.74249 -23279125.21649  16622977.8024   16622982.9544
  20242581.979   -12515273.39349  -9718904.51449  20242581.9124   20242586.7204
  17987559.693   -13226719.51149 -10296496.53249  17987559.7424   17987565.0394
  16926148.838   -41945636.493 9 -32657646.696 9  16926148.651    16926153.164
  18471907.080   -31729053.64149 -24705434.43549  18471907.1054   18471912.1764
  16960115.349   -40456834.90449 -31504292.58449  16960114.8374   16960119.8524
 96  9 18 17 45 59.9870000  0  8 22 21 17  3  6 28 26 23
  19632481.144   -30091867.86449 -23434708.23649  19632480.8164   19632487.0334
  19242881.425   -27075544.96849 -21056305.70849  19242881.2114   19242887.3804
  16604222.857   -29996410.27149 -23355926.41849  16604222.1264   16604227.0764
  20204584.330   -12714952.65549  -9874498.71649  20204584.3574   20204589.6514
  17985435.117   -13237884.67449 -10305196.69549  17985435.1424   17985439.9664
  16899831.725   -42083933.855 9 -32765410.879 9  16899831.580    16899836.117
  18457853.982   -31802903.14449 -24762979.51649  18457854.4234   18457859.2624
  16936291.450   -40582030.38249 -31601847.49949  16936290.9004   16936296.0274
 96  9 18 17 46 29.9870000  0  8 22 21 17  3  6 28 26 23
  19619727.044   -30158891.05249 -23486934.12249  19619726.1464   19619732.3144
  19208683.917   -27255254.26549 -21196338.91049  19208683.5854   19208689.0274
  16585510.943   -30094741.81749 -23432548.40749  16585510.3104   16585515.3004
  20166603.048   -12914545.91749 -10030025.91849  20166602.0924   20166608.4394
  17983376.302   -13248704.66549 -10313627.89049  17983377.1274   17983381.3394
  16873599.988   -42221782.616 9 -32872825.495 9  16873599.920    16873604.238
  18443902.820   -31876217.49449 -24820107.57649  18443903.6714   18443907.7144
  16912535.876   -40706866.74649 -31699122.57649  16912535.4654   16912540.7844
 96  9 18 17 46 59.9870000  0  8 22 21 17  3  6 28 26 23
  19607054.058   -30225487.18149 -23538827.24649  19607053.4094   19607059.1624
  19174523.489   -27434768.07349 -21336219.77149  19174523.4644   19174529.2574
  16566846.939   -30192821.89849 -23508974.45749  16566846.3114   16566851.2064
  20128647.840   -13114002.01249 -10185446.22849  20128646.9284   20128652.2084
  17981389.381   -13259146.74749 -10321764.62149  17981389.7134   17981394.4714
  16847460.001   -42359149.513 9 -32979864.637 9  16847460.026    16847464.229
  18430057.591   -31948975.00249 -24876801.74449  18430057.9364   18430062.9254
  16888854.665   -40831312.28949 -31796093.12649  16888854.1104   16888859.5954
 96  9 18 17 47 29.9870000  0  8 22 21 17  3  6 28 26 23
  19594479.698   -30291566.04949 -23590317.31249  19594480.0544   19594484.5184
  19140411.060   -27614030.25149 -21475904.57149  19140410.7094   19140417.6674
  16548240.376   -30290599.88949 -23585165.10649  16548239.7524   16548244.7324
  20090734.628   -13313236.88249 -10340694.15449  20090734.1544   20090739.3924
  17979486.498   -13269146.67849 -10329556.81949  17979486.5104   17979492.1184
  16821423.651   -42495971.813 9 -33086479.418 9  16821423.591    16821427.690
  18416329.303   -32021118.04549 -24933017.10349  18416329.7804   18416334.4034
  16865262.036   -40955292.54849 -31892701.11349  16865261.7024   16865266.6464
 96  9 18 17 47 59.9870000  0  8 22 21 17  3  6 28 26 23
  19581999.994   -30357147.53849 -23641419.79049  19581998.6744   19582005.2064
  19106342.297   -27793062.64649 -21615410.31949  19106342.3244   19106348.4034
  16529686.891   -30388099.06549 -23661138.49449  16529686.4364   16529691.3844
  20052860.902   -13512264.81249 -10495780.84249  20052860.6834   20052866.3764
  17977659.808   -13278746.10649 -10337036.92849  17977659.4854   17977665.0454
  16795485.844   -42632276.023 9 -33192690.490 9  16795485.697    16795489.921
  18402711.681   -32092678.71649 -24988778.67449  18402711.9484   18402716.9284
  16841749.437   -41078852.15349 -31988981.31149  16841748.9804   16841754.2104
 96  9 18 17 48 29.9870000  0  8 22 21 17  3  6 28 26 23
  19569607.584   -30422269.42249 -23692164.15449  19569607.5334   19569612.6144
  19072318.265   -27971859.87049 -21754732.81549  19072317.4994   19072323.9014
  16511184.819   -30485328.18849 -23736901.44849  16511184.2654   16511189.3814
  20015022.378   -13711107.82249 -10650723.43049  20015022.9784   20015028.7634
  17975898.401   -13288002.08549 -10344249.40049  17975898.0254   17975903.6644
  16769642.771   -42768082.184 9 -33298513.476 9  16769642.568    16769646.791
  18389201.634   -32163674.57249 -25044100.12949  18389201.9504   18389206.7764
  16818310.400   -41202024.89149 -32084960.06249  16818309.9764   16818315.2784
 96  9 18 17 48 59.9870000  0  8 22 21 17  3  6 28 26 23
  19557297.975   -30486958.77849 -23742571.48449  19557297.2154   19557302.6734
  19038336.047   -28150437.55549 -21893884.24549  19038335.6944   19038341.5984
  16492731.046   -30582303.48449 -23812466.61749  16492730.4804   16492735.7024
  19977213.654   -13909794.29249 -10805544.04949  19977213.0634   19977219.2874
  17974196.382   -13296945.77649 -10351218.54549  17974196.3734   17974202.0614
  16743891.711   -42903404.903 9 -33403959.757 9  16743891.595    16743895.863
  18375797.908   -32234111.68549 -25098986.19049  18375797.9004   18375803.4654
  16794943.130   -41324820.58049 -32180645.01249  16794942.5634   16794948.0364
 96  9 18 17 49 29.9870000  0  8 22 21 17  3  6 28 26 23
  19545068.213   -30551226.70749 -23792650.43349  19545068.2014   19545073.7854
  19004393.299   -28328807.93349 -22032874.13149  19004392.5334   19004399.3184
  16474322.380   -30679041.73249 -23887847.07249  16474321.8144   16474326.9964
  19939432.371   -14108336.31849 -10960252.11149  19939433.0684   19939437.3464
  17972552.182   -13305586.46449 -10357951.59449  17972552.6414   17972557.1384
  16718232.004   -43038247.425 9 -33509031.859 9  16718231.729    16718236.083
  18362502.696   -32303978.67349 -25153428.00649  18362502.4344   18362508.3794
  16771644.227   -41447257.05349 -32276050.05249  16771643.7134   16771649.1954
 96  9 18 17 49 59.9860000  0  8 22 21 17  3  6 28 26 23
  19532914.545   -30615094.54149 -23842417.59749  19532913.3854   19532920.5924
  18970490.885   -28506966.38349 -22171698.88149  18970490.8924   18970496.0434
  16455957.844   -30775547.94249 -23963046.71949  16455957.1884   16455962.5164
  19901676.533   -14306744.53449 -11114855.88549  19901676.3364   19901682.4524
  17970962.501   -13313940.70949 -10364461.43349  17970963.1114   17970967.6994
  16692664.665   -43172604.539 9 -33613725.715 9  16692664.409    16692668.681
  18349316.815   -32373270.93449 -25207421.98649  18349316.7824   18349321.8784
  16748411.877   -41569343.95449 -32371182.70149  16748411.3864   16748416.6184
 96  9 18 17 50 29.9860000  0  8 22 21 17  3  6 28 26 23
  19520831.125   -30678594.13349 -23891897.83449  19520831.1504   19520836.5004
  18936622.669   -28684944.99049 -22310383.48949  18936622.7694   18936628.5084
  16437631.776   -30871851.96449 -24038088.81749  16437631.2054   16437636.4594
  19863938.934   -14505057.18949 -11269385.21549  19863938.7614   19863943.0434
  17969426.500   -13322013.11549 -10370751.66649  17969426.6754   17969431.5554
  16667185.603   -43306497.888 9 -33718058.197 9  16667185.408    16667189.592
  18336234.447   -32442018.77149 -25260991.74049  18336234.4994   18336239.6314
  16725246.052   -41691081.01049 -32466042.74549  16725245.6734   16725250.6974
 96  9 18 17 50 59.9860000  0  8 22 21 17  3  6 28 26 23
  19508814.897   -30741741.16349 -23941103.36149  19508813.4894   19508820.1974
  18902785.451   -28862760.90849 -22448941.32449  18902785.4644   18902791.1424
  16419340.629   -30967972.52649 -24112987.96049  16419340.0874   16419345.3644
  19826219.548   -14703274.16349 -11423839.97849  19826218.6044   19826224.3284
  17967946.047   -13329793.28949 -10376814.17449  17967946.1504   17967951.0574
  16641794.196   -43439930.638 9 -33822031.767 9  16641794.096    16641798.367
  18323251.827   -32510242.56549 -25314153.15249  18323251.8374   18323256.4904
  16702145.832   -41812473.51749 -32560634.30249  16702145.1064   16702150.3134
 96  9 18 17 51 29.9860000  0  8 22 21 17  3  6 28 26 23
  19496867.507   -30804525.35449 -23990026.14349  19496865.3814   19496872.8644
  18868979.530   -29040411.95849 -22587370.70449  18868978.6784   18868985.5594
  16401087.859   -31063891.65249 -24187730.14549  16401087.3734   16401092.6204
  19788521.651   -14901377.99249 -11578206.56549  19788522.1014   19788526.2504
  17966522.354   -13337274.93549 -10382644.06749  17966522.0464   17966527.0594
  16616492.182   -43572893.739 9 -33925639.380 9  16616492.092    16616496.383
  18310366.682   -32577954.84049 -25366915.97249  18310366.8774   18310371.6044
  16679110.702   -41933523.75349 -32654959.16049  16679110.2524   16679115.6294
 96  9 18 17 51 59.9860000  0  8 22 21 17  3  6 28 26 23
  19484992.604   -30866928.41149 -24038651.94249  19484991.7114   19484997.8024
  18835206.611   -29217889.61349 -22725664.95549  18835206.5484   18835212.2364
  16382880.724   -31159571.04949 -24262285.52549  16382880.2584   16382885.2654
  19750847.189   -15099358.27049 -11732476.89849  19750845.5344   19750852.2764
  17965156.733   -13344451.18949 -10388236.00449  17965156.3114   17965162.0154
  16591281.226   -43705378.376 9 -34028874.163 9  16591281.015    16591285.369
  18297575.165   -32645175.01349 -25419295.34549  18297575.5424   18297580.3684
  16656145.605   -42054206.31149 -32748997.51249  16656145.2814   16656150.5014
 96  9 18 17 52 29.9860000  0  8 22 21 17  3  6 28 26 23
  19473191.530   -30928943.13749 -24086975.14849  19473190.8904   19473196.8604
  18801467.191   -29395191.17449 -22863821.99949  18801466.1064   18801472.9464
  16364723.482   -31254988.19449 -24336636.55349  16364723.0584   16364728.0854
  19713198.556   -15297203.12549 -11886641.70549  19713198.1074   19713203.0044
  17963851.391   -13351310.50849 -10393580.97149  17963850.7454   17963856.2874
  16566160.856   -43837386.627 9 -34131737.738 9  16566160.596    16566165.070
  18284874.510   -32711917.80349 -25471302.72549  18284874.6554   18284879.8644
  16633250.712   -42174519.73749 -32842748.22949  16633250.1614   16633255.6304
 96  9 18 17 52 59.9860000  0  8 22 21 17  3  6 28 26 23
  19461467.199   -30990555.03149 -24134984.47049  19461466.6074   19461472.1124
  18767761.566   -29572315.38349 -23001840.83249  18767761.0394   18767767.7404
  16346615.864   -31350144.66249 -24410784.45849  16346615.4744   16346620.3994
  19675577.697   -15494901.88349 -12040692.67149  19675577.8414   19675583.4324
  17962606.705   -13357851.03849 -10398677.52349  17962606.5764   17962612.1224
  16541131.387   -43968917.365 9 -34234229.223 9  16541131.283    16541135.559
  18272267.381   -32778169.09849 -25522927.12449  18272267.3034   18272272.0174
  16610423.292   -42294478.59449 -32936222.65949  16610422.7044   16610428.1174
 96  9 18 17 53 29.9860000  0  8 22 21 17  3  6 28 26 23
  19449821.877   -31051751.93149 -24182670.38949  19449821.4094   19449827.0754
  18734089.137   -29749265.43349 -23139723.96649  18734088.4704   18734094.7234
  16328557.521   -31445042.08449 -24484730.50649  16328556.9954   16328561.8934
  19637984.163   -15692457.24149 -12194631.88849  19637983.8074   19637989.6684
  17961420.367   -13364085.54049 -10403535.61649  17961420.3274   17961426.3004
  16516191.684   -44099976.624 9 -34336353.328 9  16516191.578    16516195.790
  18259754.404   -32843925.04149 -25574165.52749  18259754.3854   18259759.4914
  16587664.717   -42414075.58949 -33029415.11749  16587664.1994   16587669.4504
 96  9 18 17 53 59.9860000  0  8 22 21 17  3  6 28 26 23
  19438254.747   -31112538.26849 -24230036.40249  19438253.7974   19438259.8874
  18700452.500   -29926027.19449 -23277460.38649  18700452.0564   18700458.3824
  16310546.744   -31539689.02349 -24558481.37449  16310546.0944   16310551.2184
  19600419.637   -15889859.83649 -12348452.08549  19600419.0924   19600424.5764
  17960291.770   -13370016.61949 -10408157.27649  17960292.1184   17960297.3674
  16491342.809   -44230558.624 9 -34438105.545 9  16491342.681    16491346.844
  18247338.003   -32909173.76649 -25625008.70749  18247337.6114   18247342.7844
  16564976.719   -42533301.90249 -33122318.72849  16564976.2364   16564981.5794
 96  9 18 17 54 29.9860000  0  8 22 21 17  3  6 28 26 23
  19426763.097   -31172927.74949 -24277093.17249  19426762.3024   19426767.8894
  18666852.053   -30102598.78049 -23415048.61949  18666851.5284   18666857.7654
  16292579.294   -31634108.51049 -24632055.00149  16292578.5734   16292583.9264
  19562884.963   -16087105.52549 -12502149.99549  19562884.4774   19562890.5694
  17959219.488   -13375652.25249 -10412548.72149  17959219.7614   17959224.9834
  16466585.289   -44360660.152 9 -34539483.362 9  16466585.040    16466589.369
  18235023.144   -32973888.44449 -25675435.72949  18235022.6764   18235028.3894
  16542355.454   -42652177.56449 -33214949.10249  16542355.0064   16542360.5214
 96  9 18 17 54 59.9860000  0  8 22 21 17  3  6 28 26 23
  19415345.308   -31232928.96449 -24323847.39249  19415345.6664   19415350.8704
  18633285.297   -30278993.29549 -23552498.85849  18633285.1754   18633290.5654
  16274651.872   -31728317.57549 -24705464.67049  16274651.2534   16274656.3774
  19525379.818   -16284195.92049 -12655726.88849  19525379.4514   19525385.5424
  17958200.027   -13381010.20749 -10416723.80349  17958200.1974   17958205.0824
  16441919.302   -44490280.633 9 -34640486.336 9  16441919.046    16441923.515
  18222810.366   -33038066.76349 -25725444.82149  18222810.5714   18222815.5204
  16519799.276   -42770711.10449 -33307312.89149  16519798.7414   16519804.0294
 96  9 18 17 55 29.9860000  0  8 22 21 17  3  6 28 26 23
  19403999.162   -31292553.28849 -24370307.91849  19403997.6224   19404004.3414
  18599752.343   -30455209.97049 -23689810.54049  18599751.8604   18599758.1454
  16256766.269   -31822307.03649 -24778703.21849  16256765.8454   16256770.7364
  19487904.136   -16481131.40549 -12809183.08749  19487903.7754   19487909.5154
  17957228.597   -13386115.21949 -10420701.78149  17957228.2104   17957233.4804
  16417344.528   -44619421.680 9 -34741115.722 9  16417344.279    16417348.803
  18210697.141   -33101722.22749 -25775046.48749  18210697.0074   18210702.2664
  16497307.056   -42888908.24549 -33399414.54749  16497306.6024   16497311.6424
 96  9 18 17 55 59.9860000  0  8 22 21 17  3  6 28 26 23
  19392723.252   -31351808.16149 -24416480.57349  19392723.2974   19392729.6394
  18566253.848   -30631245.31649 -23826980.92249  18566253.2004   18566259.7274
  16238925.159   -31916062.85449 -24851759.70949  16238924.7464   16238929.6484
  19450459.134   -16677905.79649 -12962513.75949  19450457.8084   19450464.7374
  17956307.533   -13390955.23949 -10424473.26449  17956307.0674   17956312.6004
  16392863.624   -44748069.927 9 -34841361.115 9  16392863.587    16392867.611
  18198685.334   -33164844.78949 -25824232.92149  18198685.4024   18198690.8164
  16474878.953   -43006768.49849 -33491253.70249  16474878.3794   16474883.7374
 96  9 18 17 56 29.9860000  0  8 22 21 17  3  6 28 26 23
  19381518.597   -31410688.67049 -24462361.53649  19381518.9144   19381524.3624
  18532787.617   -30807111.04349 -23964019.13349  18532787.0684   18532793.0994
  16221130.652   -32009573.68949 -24924625.29649  16221130.3254   16221134.9044
  19413041.849   -16874534.27349 -13115730.74049  19413041.2814   19413047.2454
  17955438.637   -13395520.71749 -10428030.82349  17955437.7894   17955444.1064
  16368475.590   -44876230.293 9 -34941226.344 9  16368475.530    16368479.392
  18186773.706   -33227440.84749 -25873009.08449  18186774.0784   18186778.9684
  16452513.258   -43124300.76049 -33582837.28149  16452512.7524   16452518.0194
 96  9 18 17 56 59.9860000  0  8 22 21 17  3  6 28 26 23
  19370384.739   -31469197.31549 -24507952.71449  19370384.0224   19370390.6224
  18499354.775   -30982801.53449 -24100920.80149  18499354.6934   18499360.3494
  16203382.060   -32102843.45349 -24997303.03649  16203381.4424   16203386.5114
  19375651.192   -17071023.35649 -13268839.08249  19375650.4164   19375657.0324
  17954622.575   -13399808.53849 -10431372.01949  17954622.2644   17954628.0974
  16344179.879   -45003905.302 9 -35040713.367 9  16344179.810    16344183.850
  18174959.111   -33289527.55649 -25921388.34849  18174959.4674   18174964.1634
  16430212.473   -43241492.11649 -33674155.22049  16430212.0614   16430217.5314
 96  9 18 17 57 29.9860000  0  8 22 21 17  3  6 28 26 23
  19359318.120   -31527352.55649 -24553268.51649  19359317.0344   19359323.9074
  18465955.745   -31158314.53249 -24237684.14649  18465955.4754   18465961.5244
  16185678.303   -32195877.56949 -25069797.15349  16185677.8284   16185682.8074
  19338283.839   -17267389.97949 -13421852.01549  19338282.7554   19338289.3294
  17953860.417   -13403813.60349 -10434492.90049  17953860.3414   17953866.5544
  16319975.752   -45131098.870 9 -35139825.237 9  16319975.436    16319979.838
  18163240.364   -33351110.23849 -25969374.86349  18163240.6704   18163245.6504
  16407975.004   -43358350.92549 -33765214.03149  16407974.7754   16407979.9774
 96  9 18 17 57 59.9850000  0  8 22 21 17  3  6 28 26 23
  19348316.114   -31585168.05149 -24598319.58949  19348315.4304   19348321.6434
  18432590.324   -31333651.07349 -24374310.00349  18432590.5834   18432595.9474
  16168017.392   -32288686.06549 -25142115.46649  16168016.7854   16168021.9474
  19300940.899   -17463628.09349 -13574764.80949  19300940.9374   19300947.3714
  17953154.292   -13407524.60649 -10437384.63949  17953154.4204   17953160.4234
  16295863.641   -45257808.751 9 -35238560.209 9  16295863.399    16295867.888
  18151618.122   -33412185.34549 -26016965.87849  18151617.9864   18151623.3384
  16385798.833   -43474887.84049 -33856022.01349  16385798.4084   16385803.6564
 96  9 18 17 58 29.9850000  0  8 22 21 17  3  6 28 26 23
  19337379.877   -31642638.97249 -24643102.15749  19337379.6014   19337385.3374
  18399258.330   -31508812.29149 -24510799.23749  18399258.1294   18399263.7424
  16150397.424   -32381279.53649 -25214266.22549  16150396.8434   16150401.9194
  19263624.261   -17659728.45249 -13727570.27749  19263624.4504   19263630.1444
  17952504.057   -13410942.28649 -10440047.81749  17952504.3504   17952510.0774
  16271843.351   -45384036.142 9 -35336919.214 9  16271843.187    16271847.652
  18140092.975   -33472750.35049 -26064159.39749  18140092.8854   18140098.0624
  16363682.693   -43591109.02349 -33946583.97349  16363682.2394   16363687.4284
 96  9 18 17 58 59.9850000  0  8 22 21 17  3  6 28 26 23
  19326507.487   -31699774.89749 -24687623.69049  19326507.6874   19326513.3254
  18365962.514   -31683783.25549 -24647140.23149  18365962.3994   18365968.0584
  16132817.224   -32473663.93849 -25286254.08049  16132816.7734   16132821.9654
  19226339.133   -17855663.30449 -13880246.76149  19226339.1724   19226344.4274
  17951906.779   -13414081.95149 -10442494.36249  17951907.4334   17951912.6224
  16247916.706   -45509771.683 9 -35434894.964 9  16247916.481    16247920.876
  18128665.405   -33532802.98149 -26110953.66149  18128665.6064   18128670.4244
  16341627.189   -43707011.60749 -34036897.67749  16341626.8674   16341632.1304
 96  9 18 17 59 29.9850000  0  8 22 21 17  3  6 28 26 23
  19315700.671   -31756565.61549 -24731876.22049  19315699.9894   19315705.4864
  18332702.656   -31858564.76149 -24783333.58649  18332702.3744   18332708.3474
  16115279.952   -32565822.90049 -25358066.26249  16115279.1844   16115284.2684
  19189090.723   -18051405.06549 -14032772.79449  19189091.1294   19189096.7444
  17951363.097   -13416939.61449 -10444721.15349  17951363.7894   17951368.8654
  16224086.199   -45635001.862 9 -35532476.927 9  16224086.039    16224090.354
  18117336.497   -33592337.08349 -26157343.88049  18117336.3594   18117341.5684
  16319633.990   -43822586.60449 -34126956.11249  16319633.5834   16319638.6474
 96  9 18 17 59 59.9850000  0  8 22 21 17  3  6 28 26 23
  19304961.899   -31812998.92749 -24775850.25349  19304961.6634   19304967.1194
  18299480.016   -32033150.90949 -24919374.72149  18299479.6144   18299486.1224
  16097786.735   -32657750.52349 -25429698.18149  16097786.3544   16097791.0204
  19151881.817   -18246939.17849 -14185137.02149  19151881.7884   19151887.5864
  17950870.369   -13419529.50449 -10446739.29249  17950870.6314   17950876.1484
  16200351.219   -45759730.017 9 -35629667.701 9  16200351.020    16200355.095
  18106104.889   -33651359.24749 -26203335.19349  18106104.9944   18106109.7634
  16297707.342   -43937812.00549 -34216742.13849  16297706.9124   16297712.0564
 96  9 18 18  0 29.9850000  0  8 22 21 17  3  6 28 26 23
  19294294.467   -31869057.24149 -24819532.08649  19294293.1294   19294299.1274
  18266298.040   -32207523.67249 -25055249.57649  18266298.1354   18266303.6854
  16080340.718   -32749430.22649 -25501136.91449  16080340.3224   16080345.0274
  19114712.845   -18442263.97549 -14337338.13849  19114712.7104   19114718.1674
  17950426.884   -13421860.45049 -10448555.65449  17950426.9084   17950432.2604
  16176713.145   -45883949.076 9 -35726461.776 9  16176712.925    16176717.098
  18094971.153   -33709867.30549 -26248925.90249  18094971.0024   18094976.5664
  16275852.955   -44052657.42549 -34306232.07149  16275852.4324   16275857.8124
 96  9 18 18  0 59.9850000  0  8 22 21 17  3  6 28 26 23
  19283700.313   -31924730.21449 -24862913.65549  19283699.8724   19283706.0354
  18233160.128   -32381664.76849 -25190943.90849  18233159.5864   18233165.6894
  16062945.169   -32840844.72149 -25572368.99449  16062944.8654   16062949.6844
  19077583.099   -18637382.40549 -14489378.47149  19077583.7144   19077589.1974
  17950032.697   -13423931.83749 -10450169.77749  17950032.7114   17950037.8474
  16153174.048   -46007647.758 9 -35822850.363 9  16153173.910    16153178.017
  18083934.678   -33767864.14249 -26294118.25549  18083934.9524   18083939.7134
  16254075.085   -44167100.89449 -34395408.79649  16254074.6384   16254079.9164
 96  9 18 18  1 29.9850000  0  8 22 21 17  3  6 28 26 23
  19273184.757   -31979989.72049 -24905973.04949  19273184.5924   19273189.8894
  18200069.559   -32555556.80649 -25326444.16849  18200069.0944   18200075.1124
  16045605.496   -32931965.74349 -25643372.39449  16045604.9894   16045610.0154
  19040497.141   -18832270.98849 -14641239.67749  19040497.9784   19040502.9194
  17949693.900   -13425711.78649 -10451556.80549  17949693.7664   17949699.4964
  16129738.976   -46130799.810 9 -35918813.002 9  16129738.864    16129742.929
  18073001.920   -33825316.56149 -26338886.36949  18073001.8814   18073006.9014
  16232379.286   -44281113.06149 -34484249.43649  16232378.7184   16232384.1044
 96  9 18 18  1 59.9850000  0  8 22 21 17  3  6 28 26 23
  19262753.204   -32034807.64149 -24948688.34749  19262751.9044   19262758.8874
  18167033.629   -32729161.43849 -25461720.47549  18167033.3754   18167039.2284
  16028329.335   -33022752.64849 -25714115.44449  16028328.7594   16028333.8514
  19003458.712   -19026910.16749 -14792906.57749  19003458.8594   19003464.4434
  17949417.419   -13427164.35249 -10452688.73549  17949417.2974   17949422.8814
  16106414.978   -46253368.389 9 -36014320.992 9  16106414.891    16106418.977
  18062181.041   -33882180.88449 -26383196.23649  18062181.3224   18062185.7024
  16210770.092   -44394669.93349 -34572735.30749  16210769.5584   16210774.8984
 96  9 18 18  2 29.9850000  0  8 22 21 17  3  6 28 26 23
  19252398.750   -32089220.30949 -24991087.86149  19252398.1824   19252405.2114
  18134043.655   -32902524.34249 -25596808.42649  18134043.0134   18134049.1644
  16011108.276   -33113249.76949 -25784632.69049  16011107.6014   16011112.8424
  18966462.713   -19221325.69549 -14944399.17149  18966462.6114   18966468.8114
  17949199.620   -13428308.05149 -10453579.98649  17949199.4984   17949205.2024
  16083198.167   -46375373.479 9 -36109389.902 9  16083197.974    16083202.197
  18051466.550   -33938485.57549 -26427070.03449  18051467.0994   18051472.0744
  16189237.217   -44507825.97649 -34660908.84349  16189236.9344   16189242.2174
 96  9 18 18  2 59.9850000  0  8 22 21 17  3  6 28 26 23
  19242117.561   -32143247.99949 -25033187.39249  19242115.9304   19242123.0244
  18101095.314   -33075668.88549 -25731726.23149  18101095.0134   18101100.5744
  15993939.303   -33203472.98149 -25854936.50449  15993938.6974   15993943.8914
  18929509.038   -19415518.93549 -15095718.56149  18929508.6944   18929514.0604
  17949039.699   -13429148.49549 -10454234.94649  17949039.8884   17949045.6664
  16060086.989   -46496823.557 9 -36204026.336 9  16060086.793    16060091.012
  18040856.086   -33994244.04649 -26470518.20449  18040856.5154   18040861.3984
  16167775.279   -44620609.17749 -34748791.85149  16167774.9424   16167780.0694
 96  9 18 18  3 29.9850000  0  8 22 21 17  3  6 28 26 23
  19231906.158   -32196908.49449 -25075000.81349  19231904.9694   19231912.1054
  18068185.266   -33248612.11149 -25866487.16749  18068184.6664   18068190.5474
  15976820.344   -33293433.63949 -25925035.73149  15976819.8284   15976825.0584
  18892596.639   -19609494.86849 -15246868.62449  18892596.5084   18892602.3354
  17948936.526   -13429691.00449 -10454657.74149  17948936.4604   17948942.5514
  16037079.696   -46617727.762 9 -36298237.417 9  16037079.491    16037083.893
  18030349.526   -34049456.24949 -26513540.72349  18030349.6894   18030354.8954
  16146380.000   -44733042.01349 -34836401.85449  16146379.5944   16146384.7434
 96  9 18 18  3 59.9850000  0  8 22 21 17  3  6 28 26 23
  19221766.347   -32250192.92149 -25116521.17949  19221765.8384   19221772.0474
  18035314.644   -33421348.35449 -26001086.82349  18035314.5524   18035320.7154
  15959751.216   -33383132.52349 -25994930.96849  15959750.7844   15959755.9284
  18855725.021   -19803255.96249 -15397851.28549  18855724.8234   18855730.6804
  17948888.120   -13429945.79349 -10454856.32649  17948888.2834   17948893.9864
  16014175.966   -46738087.494 9 -36392024.228 9  16014175.797    16014180.291
  18019943.856   -34104138.30349 -26556150.13449  18019943.7434   18019948.8684
  16125051.952   -44845121.69349 -34923736.66649  16125051.5194   16125056.7024
 96  9 18 18  4 29.9850000  0  8 22 21 17  3  6 28 26 23
  19211698.782   -32303097.83349 -25157745.84349  19211698.8684   19211704.5904
  18002485.402   -33593866.92149 -26135516.86549  18002485.4194   18002490.7204
  15942734.311   -33472557.22749 -26064612.56249  15942733.8154   15942738.6894
  18818898.140   -19996782.43349 -15548651.11649  18818898.4384   18818903.2174
  17948892.147   -13429925.12549 -10454840.27449  17948892.6604   17948898.4794
  15991376.015   -46857902.058 9 -36485386.231 9  15991376.041    15991380.384
  18009636.487   -34158303.97749 -26598357.17049  18009636.3084   18009641.2574
  16103791.971   -44956843.85649 -35010792.90249  16103791.4974   16103796.3644
 96  9 18 18  4 59.9850000  0  8 22 21 17  3  6 28 26 23
  19201702.708   -32355628.62549 -25198678.96049  19201702.0484   19201708.3564
  17969701.998   -33766144.90549 -26269759.44249  17969701.8844   17969707.6014
  15925771.858   -33561695.51449 -26134070.97049  15925771.3784   15925776.3494
  18782117.048   -20190068.39049 -15699263.53449  18782116.9914   18782121.8034
  17948947.212   -13429636.51149 -10454615.44549  17948947.5824   17948953.2364
  15968680.059   -46977170.378 9 -36578322.591 9  15968680.193    15968684.279
  17999427.279   -34211953.35449 -26640161.89349  17999427.5064   17999432.4304
  16082601.975   -45068198.09649 -35097562.44049  16082601.6574   16082606.5584
 96  9 18 18  5 29.9850000  0  8 22 21 17  3  6 28 26 23
  19191777.703   -32407785.44249 -25239320.66349  19191777.2394   19191783.9134
  17936965.237   -33938177.99849 -26403811.19249  17936965.0574   17936970.7304
  15908864.622   -33650543.81449 -26203303.41149  15908864.0134   15908869.1534
  18745381.558   -20383114.34849 -15849688.92349  18745381.6824   18745386.7584
  17949054.772   -13429071.93949 -10454175.57749  17949054.7284   17949060.6874
  15946087.277   -47095896.758 9 -36670836.658 9  15946087.323    15946091.352
  17989313.590   -34265101.56849 -26681576.08449  17989314.0674   17989318.2614
  16061481.383   -45179187.72549 -35184047.86349  16061481.1584   16061485.8594
 96  9 18 18  5 59.9840000  0  8 22 21 17  3  6 28 26 23
  19181920.812   -32459584.20749 -25279683.38149  19181920.2134   19181926.8304
  17904276.342   -34109959.55449 -26537666.93549  17904276.0184   17904281.8694
  15892013.290   -33739098.02949 -26272306.70149  15892012.7684   15892017.7334
  18708694.776   -20575904.12249 -15999914.69049  18708694.7004   18708699.3774
  17949214.442   -13428233.33749 -10453522.18549  17949214.6974   17949220.6674
  15923597.877   -47214079.664 9 -36762927.238 9  15923597.613    15923601.932
  17979291.687   -34317767.60949 -26722614.57449  17979291.9754   17979296.6794
  16040429.757   -45289815.02749 -35270250.95949  16040429.5224   16040434.1974
 96  9 18 18  6 29.9840000  0  8 22 21 17  3  6 28 26 23
  19172126.122   -32511056.07749 -25319791.36849  19172125.3944   19172132.0534
  17871633.036   -34281501.24449 -26671335.76349  17871632.7564   17871638.2724
  15875215.382   -33827371.54549 -26341091.26649  15875214.9174   15875220.0644
  18672054.597   -20768449.30749 -16149949.88349  18672054.4564   18672060.6054
  17949425.849   -13427122.59449 -10452656.73149  17949425.6914   17949432.0204
  15901210.363   -47331726.535 9 -36854600.125 9  15901209.891    15901214.426
  17969360.524   -34369956.56149 -26763281.30149  17969360.7504   17969365.9484
  16019443.390   -45400099.45249 -35356186.86949  16019442.8214   16019448.0194
 96  9 18 18  6 59.9840000  0  8 22 21 17  3  6 28 26 23
  19162395.304   -32562192.20349 -25359637.72949  19162395.6304   19162400.7094
  17839035.470   -34452802.23749 -26804817.04149  17839035.1834   17839040.6984
  15858468.493   -33915377.03149 -26409666.97749  15858468.1214   15858472.9784
  18635460.542   -20960752.19949 -16299796.27349  18635460.4994   18635464.7744
  17949692.312   -13425722.20549 -10451565.57749  17949692.1474   17949698.4524
  15878926.557   -47448828.146 9 -36945848.135 9  15878926.258    15878930.851
  17959523.186   -34421652.44649 -26803563.82949  17959523.0914   17959528.0004
  15998523.899   -45510032.03149 -35441848.61649  15998523.2434   15998528.4634
 96  9 18 18  7 29.9840000  0  8 22 21 17  3  6 28 26 23
  19152728.774   -32612990.93549 -25399221.20849  19152727.8924   19152734.2594
  17806483.456   -34623863.88349 -26938111.81049  17806482.8184   17806488.3224
  15841774.225   -34003106.02449 -26478027.24049  15841773.7584   15841778.8934
  18598912.084   -21152815.62449 -16449456.06249  18598911.9614   18598916.8774
  17950014.518   -13424028.52949 -10450245.88949  17950013.8544   17950020.5614
  15856747.427   -47565380.260 9 -37036667.969 9  15856747.402    15856751.757
  17949782.463   -34472840.21549 -26843450.41949  17949782.6244   17949788.0154
  15977673.414   -45619601.95549 -35527227.77749  15977672.7674   15977677.9984
 96  9 18 18  7 59.9840000  0  8 22 21 17  3  6 28 26 23
  19143126.144   -32663453.46249 -25438542.68849  19143126.4094   19143131.2934
  17773976.434   -34794689.01549 -27071222.28649  17773976.2024   17773981.9194
  15825131.781   -34090562.87649 -26546175.44449  15825131.3804   15825136.2154
  18562408.352   -21344643.81949 -16598932.56149  18562408.3324   18562413.1364
  17950386.853   -13422071.38449 -10448720.89749  17950386.5564   17950393.0524
  15834673.641   -47681379.166 9 -37127056.737 9  15834673.684    15834677.828
  17940140.687   -34523507.91749 -26882931.76249  17940140.9394   17940145.5854
  15956894.195   -45728797.00649 -35612314.82949  15956893.5824   15956898.7884
 96  9 18 18  8 29.9840000  0  8 22 21 17  3  6 28 26 23
  19133591.495   -32713558.98249 -25477585.98249  19133591.0614   19133595.3434
  17741512.436   -34965288.25349 -27204156.73649  17741512.1274   17741517.7354
  15808538.464   -34177761.35149 -26614122.31549  15808538.1074   15808542.9724
  18525945.923   -21536255.00449 -16748239.95149  18525945.4154   18525950.9424
  17950806.328   -13419866.47949 -10447002.85749  17950805.5764   17950812.7714
  15812704.177   -47796829.855 9 -37217018.322 9  15812704.143    15812708.267
  17930600.587   -34573641.40549 -26921996.81249  17930600.5244   17930605.7624
  15936187.193   -45837612.95549 -35697106.47749  15936186.6184   15936191.8484
 96  9 18 18  8 59.9840000  0  8 22 21 17  3  6 28 26 23
  19124125.901   -32763301.65049 -25516346.53249  19124125.2944   19124130.3664
  17709090.680   -35135665.76649 -27336918.42049  17709090.2924   17709095.9224
  15791996.090   -34264692.32449 -26681860.74049  15791995.5894   15792000.6324
  18489525.821   -21727644.30149 -16897374.47349  18489526.0874   18489530.3924
  17951272.346   -13417417.64849 -10445094.74449  17951272.9824   17951278.8134
  15790838.702   -47911733.819 9 -37306553.881 9  15790838.510    15790842.840
  17921162.941   -34623236.57149 -26960642.40249  17921163.0574   17921168.5034
  15915553.191   -45946045.28749 -35781599.20449  15915552.7724   15915557.9224
 96  9 18 18  9 29.9840000  0  8 22 21 17  3  6 28 26 23
  19114725.665   -32812700.58649 -25554839.25849  19114725.5114   19114729.9984
  17676707.931   -35305838.37749 -27469520.43549  17676707.8204   17676713.0484
  15775503.222   -34351362.97949 -26749396.32349  15775502.6874   15775507.7304
  18453148.019   -21918811.29649 -17046335.73249  18453146.9324   18453152.9154
  17951778.546   -13414758.66449 -10443022.87949  17951779.0324   17951784.9464
  15769074.505   -48026105.373 9 -37395674.578 9  15769074.267    15769078.726
  17911821.463   -34672326.48849 -26998894.29749  17911821.7944   17911826.9294
  15894988.520   -46054113.26349 -35865808.01749  15894988.2394   15894993.2354
 96  9 18 18  9 59.9840000  0  8 22 21 17  3  6 28 26 23
  19105386.563   -32861778.25449 -25593081.61749  19105385.8074   19105390.7594
  17644357.783   -35475839.54549 -27601988.86149  17644357.6354   17644363.2814
  15759053.938   -34437804.47549 -26816753.33949  15759053.4044   15759058.6324
  18416809.872   -22109769.90349 -17195134.66849  18416810.7974   18416814.5384
  17952319.489   -13411917.10049 -10440808.74649  17952319.7084   17952325.4624
  15747408.512   -48139960.957 9 -37484393.221 9  15747408.416    15747412.743
  17902569.213   -34720947.55849 -27036780.86049  17902568.9394   17902574.3904
  15874486.219   -46161853.66749 -35949761.57749  15874485.8224   15874490.9604
 96  9 18 18 10 29.9840000  0  8 22 21 17  3  6 28 26 23
  19096105.796   -32910549.16349 -25631084.95949  19096104.2624   19096110.1684
  17612040.970   -35645665.28649 -27734320.58349  17612040.4284   17612046.6764
  15742646.329   -34524026.81749 -26883939.58749  15742645.5534   15742651.0534
  18380513.974   -22300506.31749 -17343760.41849  18380513.7254   18380518.4194
  17952898.800   -13408873.84849 -10438437.44749  17952899.4464   17952904.1314
  15725840.841   -48253300.233 9 -37572709.550 9  15725840.777    15725844.961
  17893406.060   -34769100.26749 -27074302.47049  17893406.2634   17893411.5344
  15854042.095   -46269288.59849 -36033477.10449  15854041.9254   15854046.6804
 96  9 18 18 10 59.9840000  0  8 22 21 17  3  6 28 26 23
  19086882.471   -32959018.03249 -25668852.94449  19086881.1774   19086886.6194
  17579760.662   -35815299.52949 -27866503.09149  17579760.6054   17579766.0034
  15726283.390   -34610014.32249 -26950942.84549  15726282.8814   15726287.9134
  18344266.415   -22490988.64149 -17492188.22149  18344266.8984   18344270.9424
  17953520.707   -13405607.17549 -10435892.04849  17953521.9654   17953526.2824
  15704374.643   -48366105.869 9 -37660610.057 9  15704374.408    15704378.659
  17884332.107   -34816784.61349 -27111459.12949  17884332.5044   17884336.8074
  15833655.125   -46376422.97249 -36116958.42849  15833654.8094   15833659.6764
 96  9 18 18 11 29.9840000  0  8 22 21 17  3  6 28 26 23
  19077715.929   -33007188.85049 -25706388.68849  19077715.8624   19077720.1634
  17547517.022   -35984740.71649 -27998535.15949  17547516.7574   17547522.7734
  15709962.713   -34695780.27149 -27017773.45549  15709962.2394   15709967.4144
  18308066.638   -22681219.34149 -17640419.90549  18308065.4304   18308071.3314
  17954184.809   -13402118.54649 -10433173.70449  17954184.6874   17954190.2694
  15683010.235   -48478376.321 9 -37748093.528 9  15683009.848    15683014.162
  17875347.252   -34864000.44349 -27148250.68549  17875347.9944   17875352.2364
  15813324.381   -46483262.00949 -36200209.61949  15813323.9944   15813329.1844
 96  9 18 18 11 59.9840000  0  8 22 21 17  3  6 28 26 23
  19068603.539   -33055074.60249 -25743702.29949  19068601.8124   19068608.5384
  17515312.298   -36153977.52149 -28130407.97049  17515311.7924   17515317.8674
  15693682.793   -34781331.58149 -27084436.82149  15693682.2504   15693687.5374
  18271915.488   -22871194.22949 -17788452.27249  18271915.0464   18271920.9574
  17954892.882   -13398398.14049 -10430274.76049  17954892.9764   17954898.1144
  15661747.174   -48590114.194 9 -37835162.006 9  15661746.828    15661751.364
  17866453.092   -34910739.40749 -27184670.66349  17866453.3624   17866457.9904
  15793050.246   -46589803.37849 -36283228.86549  15793049.5994   15793054.8024
 96  9 18 18 12 29.9840000  0  8 22 21 17  3  6 28 26 23
  19059546.589   -33102669.21849 -25780789.04749  19059545.7714   19059552.0354
  17483151.596   -36322982.92749 -28262100.46849  17483151.3164   17483156.9754
  15677447.142   -34866650.75949 -27150919.30649  15677446.8394   15677451.7334
  18235815.984   -23060897.48649 -17936272.96549  18235815.4784   18235820.9624
  17955646.617   -13394437.30649 -10427188.46649  17955646.7444   17955651.9094
  15640585.394   -48701319.974 9 -37921815.866 9  15640585.288    15640589.722
  17857650.392   -34956998.11949 -27220716.41549  17857650.8264   17857655.1694
  15772837.305   -46696022.93949 -36365997.35649  15772836.8424   15772841.9054
 96  9 18 18 12 59.9840000  0  8 22 21 17  3  6 28 26 23
  19050547.353   -33149961.08649 -25817639.86449  19050546.5414   19050552.3814
  17451035.668   -36491753.01349 -28393609.60649  17451035.5104   17451041.1974
  15661259.555   -34951717.26649 -27217204.90649  15661259.3064   15661264.3134
  18199767.146   -23250334.87449 -18083886.49149  18199766.7844   18199771.7274
  17956443.911   -13390246.91649 -10423923.29749  17956443.5934   17956450.0024
  15619525.584   -48811990.152 9 -38008052.374 9  15619525.468    15619530.013
  17848937.218   -35002786.52849 -27256395.70849  17848937.2984   17848942.3234
  15752690.831   -46801893.36949 -36448493.79249  15752690.2494   15752695.4484
 96  9 18 18 13 29.9840000  0  8 22 21 17  3  6 28 26 23
  19041605.170   -33196952.74249 -25854256.79149  19041605.7414   19041608.2434
  17418967.721   -36660271.24349 -28524922.49449  17418967.4604   17418973.4994
  15645122.737   -35036516.85849 -27283282.52149  15645122.3174   15645127.1684
  18163770.313   -23439498.73149 -18231286.88349  18163770.3734   18163775.6214
  17957284.220   -13385830.20949 -10420481.77749  17957283.8214   17957290.6994
  15598569.500   -48922115.369 9 -38093864.244 9  15598569.315    15598573.897
  17840313.593   -35048103.94249 -27291708.00149  17840313.6484   17840318.9144
  15732617.539   -46907378.91049 -36530690.32249  15732616.9264   15732621.9094
 96  9 18 18 13 59.9830000  0  8 22 21 17  3  6 28 26 23
  19032719.735   -33243646.38049 -25890641.47049  19032718.5734   19032723.6204
  17386948.544   -36828533.65549 -28656036.04349  17386948.4864   17386953.9404
  15629038.691   -35121039.15249 -27349144.05949  15629038.2724   15629043.4524
  18127827.139   -23628380.95949 -18378467.82849  18127827.1164   18127832.0334
  17958166.469   -13381193.29949 -10416868.65449  17958166.1104   17958173.0354
  15577717.354   -49031693.983 9 -38179250.183 9  15577717.071    15577721.648
  17831778.369   -35092956.74749 -27326658.25249  17831778.7364   17831783.5384
  15712618.073   -47012476.52349 -36612584.56549  15712617.2914   15712622.7864
 96  9 18 18 14 29.9830000  0  8 22 21 17  3  6 28 26 23
  19023889.345   -33290050.19849 -25926800.32249  19023888.8164   19023894.1794
  17354973.291   -36996564.97649 -28786969.52949  17354972.9524   17354978.8054
  15613007.384   -35205284.15549 -27414789.52749  15613006.8104   15613011.7384
  18091931.757   -23817012.15049 -18525453.15749  18091931.3774   18091937.6674
  17959088.142   -13376349.17249 -10413094.07049  17959087.8524   17959094.4034
  15556967.857   -49140733.064 9 -38264215.713 9  15556967.715    15556972.143
  17823330.829   -35137348.61949 -27361249.34149  17823331.3044   17823336.3904
  15692687.592   -47117211.69249 -36694196.38749  15692687.2094   15692692.3814
 96  9 18 18 14 59.9830000  0  8 22 21 17  3  6 28 26 23
  19015110.900   -33336181.41149 -25962746.74449  19015108.9744   19015117.2294
  17323039.218   -37164379.35849 -28917733.96349  17323038.5804   17323044.3834
  15597027.310   -35289259.85349 -27480225.14549  15597026.7334   15597031.9494
  18056082.761   -24005399.83149 -18672248.73849  18056083.3944   18056088.3374
  17960047.835   -13371305.92649 -10409164.32449  17960048.6574   17960053.6784
  15536321.335   -49249231.513 9 -38348759.970 9  15536321.399    15536325.626
  17814969.879   -35181285.82249 -27395486.13749  17814970.2134   17814975.1874
  15672821.936   -47221606.32549 -36775542.85549  15672821.5814   15672826.6484
 96  9 18 18 15 29.9830000  0  8 22 21 17  3  6 28 26 23
  19006382.446   -33382048.93549 -25998487.72349  19006381.9264   19006388.1004
  17291145.379   -37331982.23549 -29048333.58549  17291144.9794   17291151.0014
  15581096.742   -35372975.44049 -27545458.07549  15581096.3314   15581101.6494
  18020281.979   -24193534.53649 -18818847.19949  18020282.0584   18020287.0504
  17961045.351   -13366065.07849 -10405080.60949  17961045.7374   17961051.7094
  15515777.138   -49357192.377 9 -38432885.329 9  15515777.221    15515781.415
  17806696.454   -35224762.79149 -27429364.29549  17806696.3314   17806701.7924
  15653015.977   -47325687.40349 -36856644.99549  15653015.4934   15653020.6364
 96  9 18 18 15 59.9830000  0  8 22 21 17  3  6 28 26 23
  18997706.239   -33427643.20549 -26034015.76349  18997706.1124   18997711.8644
  17259287.344   -37499397.28549 -29178786.86549  17259287.0244   17259292.5784
  15565213.651   -35456441.60149 -27610496.65249  15565213.1174   15565218.2664
  17984526.138   -24381433.06749 -18965261.64449  17984526.9814   17984531.2994
  17962078.837   -13360635.60249 -10400849.92349  17962080.2314   17962084.2904
  15495333.540   -49464624.572 9 -38516598.734 9  15495333.504    15495337.756
  17798511.574   -35267774.57149 -27462879.98449  17798511.6074   17798516.9484
  15633263.294   -47429488.63949 -36937529.08249  15633262.8274   15633267.7404
 96  9 18 18 16 29.9830000  0  8 22 21 17  3  6 28 26 23
  18989084.197   -33472952.64949 -26069321.85949  18989083.3914   18989091.1134
  17227463.388   -37666633.12849 -29309100.49549  17227463.0364   17227468.2734
  15549377.248   -35539662.44349 -27675344.06549  15549376.7014   15549382.0894
  17948815.781   -24569093.08049 -19111490.21349  17948816.0334   17948820.9324
  17963148.590   -13355015.65049 -10396470.80749  17963149.7104   17963154.1894
  15474991.666   -49571521.936 9 -38599895.388 9  15474991.416    15474995.908
  17790414.159   -35310326.34949 -27496037.24049  17790414.2724   17790419.5294
  15613564.978   -47533004.15249 -37018190.52449  15613564.6644   15613569.6004
 96  9 18 18 16 59.9830000  0  8 22 21 17  3  6 28 26 23
  18980522.196   -33517946.83949 -26104382.30449  18980521.1094   18980528.5494
  17195677.102   -37833671.40049 -29439260.17549  17195677.0604   17195682.1184
  15533591.386   -35622617.72349 -27739984.55249  15533591.0094   15533596.3084
  17913157.953   -24756477.12449 -19257503.76649  17913157.8494   17913162.4504
  17964258.324   -13349185.39849 -10391927.81249  17964258.8524   17964263.7224
  15454755.774   -49677862.063 9 -38682757.835 9  15454755.515    15454759.947
  17782406.445   -35352406.94649 -27528827.31949  17782406.3664   17782411.5484
  15593927.284   -47636201.07849 -37098603.71549  15593926.9094   15593931.8304
 96  9 18 18 17 29.9830000  0  8 22 21 17  3  6 28 26 23
  18972021.607   -33562617.98449 -26139191.04349  18972020.6134   18972026.9384
  17163928.766   -38000510.17749 -29569264.40049  17163928.6194   17163933.9954
  15517855.119   -35705312.64249 -27804422.16349  15517854.6034   15517859.9914
  17877551.036   -24943593.49949 -19403308.73149  17877551.2294   17877555.8904
  17965406.098   -13343154.55349 -10387228.53149  17965406.0684   17965411.2484
  15434625.884   -49783645.274 9 -38765186.323 9  15434625.651    15434630.133
  17774488.534   -35394016.12849 -27561250.07749  17774488.6384   17774494.1654
  15574350.977   -47739075.32849 -37178765.47549  15574350.6714   15574355.4784
 96  9 18 18 17 59.9830000  0  8 22 21 17  3  6 28 26 23
  18963578.456   -33606987.47149 -26173764.71449  18963576.8694   18963585.1304
  17132216.487   -38167159.68249 -29699121.13849  17132216.0944   17132221.3894
  15502165.522   -35787762.16449 -27868668.55449  15502165.0844   15502170.3574
  17841991.096   -25130462.81949 -19548921.18749  17841990.7774   17841994.9954
  17966589.422   -13336936.80549 -10382383.59649  17966589.8294   17966593.6224
  15414599.455   -49888884.810 9 -38847191.166 9  15414599.215    15414603.734
  17766654.398   -35435184.83649 -27593329.60549  17766654.9114   17766659.8614
  15554836.371   -47841625.33849 -37258674.57149  15554835.9814   15554840.8944
 96  9 18 18 18 29.9830000  0  8 22 21 17  3  6 28 26 23
  18955192.272   -33651056.84749 -26208104.54449  18955192.7534   18955198.0024
  17100547.923   -38333578.98449 -29828798.48949  17100547.2774   17100553.2034
  15486526.473   -35869946.09149 -27932707.98849  15486525.8414   15486531.1864
  17806484.164   -25317053.18549 -19694316.26049  17806484.0184   17806488.5034
  17967811.448   -13330515.35949 -10377379.94049  17967810.3444   17967816.4614
  15394679.839   -49993563.160 9 -38928758.722 9  15394679.715    15394684.131
  17758903.580   -35475916.09849 -27625068.26049  17758904.0774   17758908.6714
  15535387.279   -47943830.89149 -37338315.25949  15535386.6164   15535391.8054
 96  9 18 18 18 59.9830000  0  8 22 21 17  3  6 28 26 23
  18946862.215   -33694831.33049 -26242214.58749  18946860.6514   18946867.0494
  17068928.963   -38499737.19749 -29958272.40449  17068928.6174   17068934.3144
  15470941.288   -35951846.71449 -27996526.66849  15470940.8314   15470945.8884
  17771034.696   -25503341.22749 -19839475.77149  17771034.5494   17771038.4944
  17969074.871   -13323875.14449 -10372205.83049  17969073.9394   17969080.1954
  15374869.156   -50097669.218 9 -39009880.335 9  15374869.070    15374873.547
  17751239.285   -35516192.44049 -27656452.43349  17751239.9124   17751244.1144
  15516004.815   -48045686.06749 -37417682.93249  15516004.2844   15516009.2964
 96  9 18 18 19 29.9830000  0  8 22 21 17  3  6 28 26 23
  18938589.169   -33738305.80049 -26276090.85449  18938588.6284   18938595.4064
  17037362.917   -38665617.56549 -30087529.81749  17037362.3004   17037368.4764
  15455411.278   -36033457.53949 -28060119.52749  15455411.0124   15455416.0074
  17735645.099   -25689314.75349 -19984390.17549  17735645.0684   17735649.1324
  17970381.596   -13317007.21749 -10366854.28149  17970380.5844   17970387.4904
  15355169.303   -50201192.742 9 -39090548.026 9  15355169.198    15355173.653
  17743663.405   -35556004.10949 -27687474.51949  17743663.9774   17743668.1244
  15496691.402   -48147178.78549 -37496768.16849  15496690.8444   15496696.0474
 96  9 18 18 19 59.9830000  0  8 22 21 17  3  6 28 26 23
  18930375.364   -33781469.84449 -26309725.22649  18930375.0044   18930381.8354
  17005850.139   -38831217.76949 -30216568.92449  17005849.8554   17005855.8194
  15439938.330   -36114768.69749 -28123478.87949  15439937.9734   15439942.8844
  17700320.997   -25874944.21749 -20129036.50549  17700321.3334   17700325.4474
  17971732.679   -13309905.81249 -10361320.79449  17971731.7794   17971738.8694
  15335582.235   -50304123.521 9 -39170753.842 9  15335582.077    15335586.606
  17736176.139   -35595349.90949 -27718133.60949  17736176.3614   17736181.5134
  15477449.022   -48248298.16349 -37575562.49249  15477448.5454   15477453.7384
 96  9 18 18 20 29.9830000  0  8 22 21 17  3  6 28 26 23
  18922225.221   -33824299.52849 -26343099.07149  18922224.1874   18922232.2334
  16974393.196   -38996525.03949 -30345379.76749  16974392.8724   16974398.5254
  15424526.602   -36195758.22849 -28186587.61549  15424526.4534   15424531.1224
  17665067.758   -26060201.33749 -20273392.67649  17665067.6584   17665072.6544
  17973130.762   -13302557.28049 -10355594.76849  17973130.8204   17973137.6134
  15316111.938   -50406440.637 9 -39250481.479 9  15316111.726    15316116.220
  17728784.927   -35634191.25849 -27748399.61549  17728785.2474   17728790.3064
  15458279.305   -48349035.64849 -37654059.23849  15458278.8864   15458284.0094
 96  9 18 18 20 59.9830000  0  8 22 21 17  3  6 28 26 23
  18914141.745   -33866777.99449 -26376199.23349  18914140.6134   18914147.7274
  16942991.751   -39161540.61549 -30473963.31749  16942991.5014   16942997.3494
  15409178.601   -36276412.62749 -28249435.20949  15409178.0384   15409183.1234
  17629887.743   -26245073.54149 -20417448.92849  17629887.7634   17629892.6974
  17974578.226   -13294950.11349 -10349667.17749  17974578.7584   17974585.2024
  15296761.240   -50508129.064 9 -39329719.231 9  15296761.053    15296765.535
  17721495.016   -35672500.55449 -27778251.03749  17721495.4044   17721500.2564
  15439187.196   -48449365.21949 -37732238.13049  15439186.8734   15439192.0354
 96  9 18 18 21 29.9830000  0  8 22 21 17  3  6 28 26 23
  18906119.623   -33908934.22949 -26409048.29349  18906119.1564   18906126.3634
  16911638.395   -39326303.80849 -30602350.21049  16911638.2764   16911644.0334
  15393887.282   -36356768.85349 -28312050.46249  15393886.5544   15393892.0474
  17594773.157   -26429601.94649 -20561237.28249  17594772.5924   17594777.8004
  17976066.157   -13287131.25549 -10343574.64449  17976066.9584   17976073.1284
  15277524.392   -50609219.348 9 -39408490.896 9  15277524.360    15277528.745
  17714299.474   -35710313.85449 -27807715.96849  17714299.6664   17714304.6374
  15420165.936   -48549322.69149 -37810127.07549  15420165.5824   15420170.7944
 96  9 18 18 21 59.9820000  0  8 22 21 17  3  6 28 26 23
  18898155.062   -33950788.12149 -26441661.77349  18898154.0904   18898161.7594
  16880332.421   -39490818.07549 -30730543.12849  16880332.2094   16880338.3854
  15378651.437   -36436833.56949 -28374438.56649  15378650.8024   15378656.2344
  17559722.283   -26613795.47949 -20704764.71049  17559722.3574   17559727.1914
  17977591.374   -13279116.90549 -10337329.77649  17977591.9724   17977598.4594
  15258399.953   -50709719.413 9 -39486802.645 9  15258400.029    15258404.175
  17707197.323   -35747635.86649 -27836798.07449  17707197.2524   17707202.4984
  15401210.842   -48648932.67949 -37887745.25549  15401210.7244   15401215.7154
 96  9 18 18 22 29.9820000  0  8 22 21 17  3  6 28 26 23
  18890242.846   -33992366.87349 -26474060.87149  18890242.7774   18890249.3724
  16849072.250   -39655091.48649 -30858548.37249  16849071.9204   16849077.5504
  15363469.054   -36516617.43549 -28436607.82349  15363468.6824   15363474.1414
  17524730.263   -26797679.62049 -20848051.04749  17524730.0724   17524734.7154
  17979153.150   -13270911.20349 -10330935.81249  17979153.8314   17979160.3444
  15239384.557   -50809646.365 9 -39564667.812 9  15239384.554    15239388.587
  17700187.844   -35784470.82149 -27865500.66649  17700188.2254   17700192.6474
  15382316.630   -48748222.88449 -37965114.24949  15382316.3344   15382321.4454
 96  9 18 18 22 59.9820000  0  8 22 21 17  3  6 28 26 23
  18882382.875   -34033671.80249 -26506246.59149  18882382.9984   18882388.8894
  16817862.151   -39819101.47449 -30986348.34849  16817861.8764   16817867.7364
  15348340.952   -36596115.97049 -28498554.73849  15348340.6454   15348345.6814
  17489800.311   -26981237.23649 -20991082.94749  17489800.0534   17489804.9914
  17980752.585   -13262507.98949 -10324387.94049  17980754.3334   17980760.3304
  15220480.622   -50908987.461 9 -39642076.465 9  15220480.511    15220484.623
  17693269.340   -35820827.84149 -27893830.81949  17693269.3454   17693274.6174
  15363484.511   -48847186.48449 -38042228.74849  15363484.0914   15363489.2134
 96  9 18 18 23 29.9820000  0  8 22 21 17  3  6 28 26 23
  18874575.714   -34074699.39549 -26538216.20149  18874575.3234   18874581.9134
  16786704.911   -39982833.65649 -31113931.85549  16786704.7164   16786710.3134
  15333269.232   -36675318.53049 -28560271.02849  15333268.8494   15333274.2354
  17454935.219   -27164454.27449 -21133849.46249  17454934.9104   17454940.4964
  17982390.201   -13253904.30449 -10317683.84749  17982391.2904   17982397.0434
  15201689.454   -51007735.595 9 -39719023.068 9  15201689.160    15201693.618
  17686440.797   -35856711.86949 -27921792.42649  17686440.7024   17686445.6814
  15344714.061   -48945825.92749 -38119090.65749  15344713.6064   15344718.3624
 96  9 18 18 23 59.9820000  0  8 22 21 17  3  6 28 26 23
  18866818.196   -34115466.75149 -26569983.02749  18866818.2544   18866824.7554
  16755599.290   -40146294.69349 -31241304.07749  16755598.7304   16755604.7124
  15318254.294   -36754222.69349 -28621754.80849  15318254.0434   15318259.2964
  17420137.034   -27347319.49749 -21276341.84049  17420136.4404   17420141.8354
  17984066.212   -13245098.79649 -10310822.51049  17984067.4294   17984073.0214
  15183009.702   -51105898.335 9 -39795513.531 9  15183009.571    15183013.960
  17679699.701   -35892136.54249 -27949396.07849  17679699.8684   17679704.9704
  15326005.689   -49044138.96149 -38195698.21949  15326005.2674   15326010.3264
 96  9 18 18 24 29.9820000  0  8 22 21 17  3  6 28 26 23
  18859109.937   -34155974.54049 -26601547.59349  18859109.8104   18859115.8074
  16724544.996   -40309486.10449 -31368466.20349  16724544.7594   16724550.7154
  15303296.838   -36832824.99349 -28683003.36249  15303296.4084   15303301.4234
  17385407.731   -27529822.92149 -21418552.29349  17385407.5534   17385412.3264
  17985780.558   -13236091.01549 -10303803.53549  17985781.7324   17985787.0654
  15164442.269   -51203470.931 9 -39871544.141 9  15164442.105    15164446.617
  17673044.189   -35927111.48649 -27976649.30749  17673044.3564   17673048.8704
  15307363.228   -49142105.78649 -38272036.01049  15307362.7334   15307367.8484
 96  9 18 18 24 59.9820000  0  8 22 21 17  3  6 28 26 23
  18851452.580   -34196214.84949 -26632903.73649  18851452.3314   18851458.6914
  16693540.807   -40472414.36149 -31495423.27149  16693540.4924   16693546.1914
  15288397.409   -36911122.12449 -28744014.12849  15288396.8434   15288402.2024
  17350746.322   -27711969.58449 -21560484.75949  17350746.2684   17350751.0204
  17987532.586   -13226884.93849 -10296630.04649  17987533.2104   17987538.5014
  15145987.373   -51300452.038 9 -39947113.852 9  15145987.121    15145991.575
  17666471.775   -35961649.68549 -28003562.19649  17666472.1264   17666476.7274
  15288789.889   -49239709.06049 -38348090.51449  15288789.3614   15288794.3274
 96  9 18 18 25 29.9820000  0  8 22 21 17  3  6 28 26 23
  18843840.935   -34236215.18549 -26664072.89249  18843840.5114   18843846.9014
  16662580.762   -40635110.55149 -31622199.50949  16662580.4464   16662586.1414
  15273552.962   -36989130.12349 -28804799.59449  15273552.5304   15273557.7184
  17316146.448   -27893793.37849 -21702165.63549  17316145.7824   17316151.1244
  17989316.198   -13217512.20849 -10289326.71049  17989316.6754   17989321.4934
  15127640.144   -51396866.979 9 -40022242.393 9  15127639.823    15127644.458
  17659977.730   -35995776.22849 -28030154.31949  17659978.0824   17659983.0524
  15270281.553   -49336970.80449 -38423878.89449  15270281.1644   15270286.1334
 96  9 18 18 25 59.9820000  0  8 22 21 17  3  6 28 26 23
  18836272.896   -34275985.76949 -26695063.01749  18836271.8904   18836278.8894
  16631663.072   -40797584.28149 -31748802.40049  16631662.5504   16631668.1704
  15258761.807   -37066858.29949 -28865367.01049  15258761.2494   15258766.4884
  17281605.121   -28075309.38349 -21843606.67249  17281604.6844   17281609.2664
  17991130.485   -13207977.91449 -10281897.46949  17991129.1904   17991136.2714
  15109400.405   -51492717.333 9 -40096930.991 9  15109400.180    15109404.584
  17653562.197   -36029490.54249 -28056425.22949  17653562.9134   17653566.9284
  15251837.819   -49433893.40649 -38499403.00149  15251837.5434   15251842.5074
 96  9 18 18 26 29.9820000  0  8 22 21 17  3  6 28 26 23
  18828758.114   -34315476.64249 -26725835.19549  18828758.7924   18828764.7404
  16600797.743   -40959782.58749 -31875190.67949  16600797.2974   16600803.1584
  15244031.723   -37144265.46149 -28925684.29049  15244031.3674   15244036.5514
  17247129.448   -28256480.27349 -21984778.80849  17247129.4814   17247134.1314
  17992984.818   -13198232.56149 -10274303.76949  17992983.8864   17992990.4994
  15091276.618   -51587958.447 9 -40171144.863 9  15091276.497    15091280.816
  17647234.052   -36062745.52149 -28082338.22049  17647234.7144   17647238.9764
  15233465.256   -49530441.87649 -38574635.57949  15233464.7624   15233469.8414
 96  9 18 18 27  0.0000000  0  8 22 21 17  3  6 28 26 23
  24217595.470   -34354505.61949 -26756247.43849  24217594.6134   24217602.2434
  21966286.724   -41121506.88749 -32001209.60949  21966286.4444   21966291.9914
  20625662.835   -37221164.16349 -28985605.37249  20625662.1264   20625667.6154
  22609021.930   -28437105.22549 -22125525.51549  22609021.6344   22609026.2674
  23391179.692   -13188080.93449 -10266393.50949  23391180.1384   23391186.7814
  20469568.858   -51682403.924 9 -40244738.758 9  20469568.713    20469572.868
  23037294.046   -36095352.56749 -28107746.33049  23037293.7004   23037298.7764
  20611461.466   -49626441.73249 -38649440.66649  20611460.9764   20611465.8354
 96  9 18 18 27 30.0000000  0  8 22 21 17  3  6 28 26 23
  24210223.208   -34393244.28149 -26786433.46049  24210223.8464   24210230.0014
  21935572.522   -41282912.02249 -32126979.83449  21935572.0934   21935577.6264
  20611093.542   -37297724.73749 -29045262.97549  20611093.0134   20611098.1744
  22574726.695   -28617327.68849 -22265958.59949  22574726.6784   22574731.1124
  23393158.334   -13177683.83249 -10258291.96049  23393157.6224   23393165.5994
  20451717.021   -51776216.298 9 -40317839.322 9  20451716.716    20451721.125
  23031182.119   -36127467.04749 -28132770.64249  23031182.5934   23031187.5294
  20593264.504   -49722068.35649 -38723954.92249  20593264.0304   20593268.8424
 96  9 18 18 28  0.0000000  0  8 22 21 17  3  6 28 26 23
  24202845.649   -34432018.81149 -26816647.43049  24202844.3464   24202850.8044
  21904854.893   -41444333.32649 -32252762.65749  21904854.4664   21904860.0354
  20596523.848   -37374289.63549 -29104923.94949  20596523.3704   20596528.6314
  22540447.296   -28797465.49949 -22406325.70849  22540446.9504   22540452.6464
  23395120.303   -13167374.18949 -10250258.58049  23395121.1874   23395126.7694
  20433921.095   -51869733.835 9 -40390710.141 9  20433920.857    20433925.245
  23025100.712   -36159423.33049 -28157671.66849  23025101.6134   23025106.6224
  20575074.879   -49817654.83149 -38798437.89449  20575074.5334   20575079.5184
 96  9 18 18 28 30.0000000  0  8 22 21 17  3  6 28 26 23
  24195488.700   -34470676.45849 -26846770.34349  24195488.2374   24195493.9964
  21874161.569   -41605627.88049 -32378446.71349  21874161.0524   21874167.0594
  20581979.790   -37450719.11449 -29164479.39849  20581979.3124   20581984.7404
  22506214.440   -28977361.08349 -22546504.07149  22506214.1034   22506219.5664
  23397091.325   -13157016.00449 -10242187.35049  23397091.7214   23397098.4814
  20416208.263   -51962814.743 9 -40463240.729 9  20416208.054    20416212.515
  23019075.463   -36191088.26249 -28182345.67749  23019075.8814   23019080.7774
  20556919.268   -49913062.92449 -38872781.86649  20556918.9354   20556924.0454
 96  9 18 18 29  0.0000000  0  8 22 21 17  3  6 28 26 23
  24188175.445   -34509107.60649 -26876716.74549  24188174.5694   24188182.4664
  21843509.523   -41766705.87949 -32503962.01649  21843509.2844   21843514.6534
  20567482.307   -37526904.18349 -29223844.39849  20567481.5034   20567487.1224
  22472047.698   -29156908.15949 -22686410.86649  22472047.7084   22472052.6814
  23399088.756   -13146519.42749 -10234008.29849  23399087.9804   23399095.4494
  20398599.365   -52055350.477 9 -40535346.508 9  20398599.239    20398603.441
  23013125.539   -36222356.10549 -28206710.24949  23013125.3674   23013130.9124
  20538817.922   -50008186.58249 -38946904.20349  20538817.5084   20538822.3674
 96  9 18 18 29 30.0000000  0  9 22 21  1 17  3  6 28 26 23
  24180911.387   -34547281.58949 -26906462.75549  24180910.6874   24180918.2184
  21812899.763   -41927560.26649 -32629303.08249  21812899.5464   21812905.0884
  24616114.313    -7348012.72859  -5703021.98159  24616114.0904   24616121.9814
  20553038.592   -37602806.44249 -29282989.02549  20553038.2254   20553043.5544
  22437950.435   -29336090.72949 -22826033.62849  22437950.1424   22437956.4564
  23401115.082   -13135874.33849 -10225713.51449  23401115.2284   23401122.2894
  20381100.133   -52147309.580 9 -40607002.966 9  20381100.006    20381104.241
  23007257.574   -36253192.59149 -28230738.70049  23007257.9154   23007262.9534
  20520778.212   -50102984.92449 -39020773.04749  20520777.7924   20520782.7404
 96  9 18 18 29 59.9990000  0  9 22 21  1 17  3  6 28 26 23
  24173693.666   -34585209.91749 -26936017.35449  24173694.0974   24173700.6494
  21782328.997   -42088211.18549 -32754485.60149  21782328.8134   21782334.3334
  24575749.940    -7560128.09549  -5868306.53549  24575749.0674   24575758.2814
  20538649.404   -37678423.30449 -29341911.26449  20538648.8484   20538654.2194
  22403920.441   -29514920.62249 -22965381.58249  22403920.3224   22403925.3634
  23403163.702   -13125112.60849 -10217327.83749  23403163.2824   23403170.1444
  20363708.971   -52238700.745 9 -40678216.877 9  20363708.797    20363713.148
  23001468.016   -36283618.03449 -28254446.85549  23001468.7614   23001472.8714
  20502799.545   -50197464.06249 -39094393.16249  20502799.1754   20502804.1854
 96  9 18 18 30 29.9990000  0  9 22 21  1 17  3  6 28 26 23
  24166515.168   -34622935.48449 -26965413.99349  24166514.0954   24166521.6924
  21751789.864   -42248695.57649 -32879538.35649  21751789.8424   21751795.0854
  24535375.686    -7772294.78949  -6033631.07849  24535376.0984   24535383.7254
  20524310.038   -37753776.99249 -29400628.43749  20524309.5884   20524315.0614
  22369949.475   -29693439.28149 -23104487.02549  22369948.9614   22369954.3894
  23405228.778   -13114260.25749 -10208871.56949  23405228.5454   23405235.0914
  20346419.785   -52329556.338 9 -40749013.458 9  20346419.617    20346424.020
  22995750.785   -36313661.58649 -28277857.42849  22995750.8074   22995755.6934
  20484874.723   -50291659.74949 -39167792.40449  20484874.1204   20484879.3004
 96  9 18 18 30 59.9990000  0  9 22 21  1 17  3  6 28 26 23
  24159373.377   -34660467.49849 -26994659.77349  24159373.1124   24159379.8644
  21721285.447   -42408997.26049 -33004448.73849  21721285.0634   21721290.9314
  24494993.525    -7984505.62949  -6198989.99149  24494992.8764   24495001.4794
  20510023.129   -37828854.26149 -29459130.21249  20510022.5564   20510027.9664
  22336039.678   -29871637.58449 -23243342.83749  22336039.2644   22336043.8194
  23407312.773   -13103312.62349 -10200341.04349  23407312.7664   23407318.6514
  20329234.384   -52419866.308 9 -40819384.873 9  20329234.122    20329238.640
  22990107.650   -36343315.63249 -28300964.50849  22990108.3224   22990113.1114
  20467005.512   -50385562.65349 -39240963.50149  20467005.1444   20467010.2564
 96  9 18 18 31 29.9990000  0  9 22 21  1 17  3  6 28 26 23
  24152269.374   -34697801.94549 -27023751.61149  24152268.0744   24152275.8464
  21690821.880   -42569084.24649 -33129191.83049  21690821.6354   21690827.2684
  24454604.747    -8196751.95749  -6364376.59049  24454604.1454   24454611.8644
  20495787.885   -37903661.21349 -29517421.35249  20495787.1684   20495792.6334
  22302193.375   -30049501.25549 -23381937.89649  22302193.2014   22302198.0534
  23409415.217   -13092266.78749 -10191733.99149  23409414.6564   23409420.5944
  20312154.703   -52509620.431 9 -40889323.168 9  20312154.595    20312158.960
  22984538.711   -36372581.51049 -28323769.10849  22984539.4344   22984543.9554
  20449195.931   -50479153.51049 -39313891.44649  20449195.3584   20449200.6044
 96  9 18 18 31 59.9990000  0  9 22 21  1 17  3  6 28 26 23
  24145203.831   -34734930.14149 -27052682.76249  24145203.1974   24145209.8034
  21660404.367   -42728928.87549 -33253746.07449  21660404.2194   21660409.8814
  24414211.024    -8409020.69449  -6529780.69149  24414210.2344   24414218.3184
  20481601.496   -37978211.65749 -29575512.62149  20481600.6764   20481606.3334
  22268412.987   -30227018.55849 -23520263.06749  22268412.9244   22268417.1344
  23411539.171   -13081107.48049 -10183038.53349  23411538.7574   23411544.4724
  20295181.621   -52598815.488 9 -40958825.829 9  20295181.431    20295185.693
  22979042.919   -36401463.51049 -28346274.56949  22979042.7414   22979048.0554
  20431443.272   -50572444.68349 -39386585.87249  20431442.7854   20431447.7554
 96  9 18 18 32 29.9990000  0  9 22 21  1 17  3  6 28 26 23
  24138176.393   -34771858.07949 -27081457.84549  24138175.9314   24138183.5904
  21630035.298   -42888518.74149 -33378101.79849  21630034.8524   21630040.9864
  24373815.417    -8621301.85549  -6695194.45849  24373814.8974   24373822.5674
  20467461.374   -38052516.59049 -29633412.57949  20467461.0164   20467466.4144
  22234698.600   -30404189.32349 -23658318.20349  22234698.7814   22234702.7084
  23413688.036   -13069814.97149 -10174239.24549  23413687.2224   23413693.3874
  20278315.947   -52687445.745 9 -41027888.382 9  20278315.656    20278319.994
  22973620.912   -36429954.61949 -28368475.44949  22973621.2124   22973626.2584
  20413747.023   -50665438.20549 -39459048.35749  20413746.6544   20413751.6514
 96  9 18 18 32 59.9990000  0  9 22 21  1 17  3  6 28 26 23
  24131182.464   -34808610.51549 -27110096.19949  24131181.8144   24131189.2274
  21599709.647   -43047881.82949 -33502280.81249  21599709.4164   21599715.1154
  24333411.704    -8833625.66549  -6860641.47849  24333410.9824   24333418.7974
  20453362.483   -38126608.85949 -29691146.82949  20453361.7464   20453367.2244
  22201044.977   -30581038.88449 -23796123.05049  22201044.5334   22201049.3644
  23415856.009   -13058421.54649 -10165361.34249  23415855.8824   23415861.0364
  20261553.236   -52775533.391 9 -41096528.120 9  20261553.042    20261557.438
  22968269.582   -36458072.04149 -28390385.17249  22968270.5504   22968275.6594
  20396104.319   -50758152.01349 -39531292.88949  20396103.7234   20396108.8034
 96  9 18 18 33 29.9990000  0  9 22 21  1 17  3  6 28 26 23
  24124230.373   -34845146.99249 -27138566.24749  24124229.7594   24124236.4674
  21569431.802   -43206992.32449 -33626263.01249  21569431.5724   21569437.0094
  24293005.560    -9045957.66549  -7026094.89549  24293005.6494   24293012.3804
  20439311.175   -38200449.41949 -29748684.94149  20439310.5044   20439315.6614
  22167459.634   -30757529.31449 -23933648.05449  22167459.3584   22167464.1504
  23418051.714   -13046883.17749 -10156370.50149  23418051.2464   23418056.1834
  20244899.961   -52863046.647 9 -41164720.285 9  20244899.817    20244904.306
  22962997.705   -36485781.83449 -28411977.22549  22962997.2524   22963003.4344
  20378519.788   -50850559.43249 -39603298.67449  20378519.3194   20378524.2514
 96  9 18 18 33 59.9990000  0  9 22 21  1 17  3  6 28 26 23
  24117325.663   -34881431.66649 -27166840.09949  24117324.8244   24117331.9384
  21539206.364   -43365828.54749 -33750031.48749  21539206.1414   21539211.7724
  24252607.314    -9258250.70249  -7191517.92349  24252606.4484   24252614.9254
  20425323.182   -38273956.19249 -29805962.95949  20425322.6234   20425327.9504
  22133953.808   -30933602.51749 -24070847.94449  22133953.6094   22133958.9884
  23420286.922   -13035134.77749 -10147215.98949  23420287.0464   23420292.7124
  20228365.197   -52949937.766 9 -41232427.663 9  20228364.951    20228369.385
  22957812.150   -36513033.03049 -28433211.95949  22957811.7194   22957816.9304
  20361000.125   -50942625.86549 -39675038.75349  20360999.6474   20361004.7594
 96  9 18 18 34 29.9990000  0  9 22 21  1 17  3  6 28 26 23
  24110476.870   -34917422.34349 -27194884.84949  24110476.6974   24110482.7674
  21509039.998   -43524354.35549 -33873558.08249  21509039.8784   21509045.3664
  24212223.216    -9470471.31549  -7356884.52349  24212222.8984   24212230.6814
  20411410.291   -38347068.72449 -29862933.77549  20411409.9384   20411415.5574
  22100538.337   -31109201.37049 -24207678.21749  22100538.3814   22100543.8774
  23422571.167   -13023132.79449 -10137863.88749  23422571.3694   23422577.3364
  20211957.762   -53036159.310 9 -41299613.299 9  20211957.650    20211962.029
  22952721.039   -36539785.00549 -28454057.70649  22952720.7014   22952726.2654
  20343557.646   -51034286.01049 -39746462.24449  20343557.0874   20343562.2934
 96  9 18 18 34 59.9990000  0  9 22 21  1 17  3  6 28 26 23
  24103678.253   -34953152.42049 -27222726.53749  24103677.3414   24103683.6664
  21478925.399   -43682607.95149 -33996872.56249  21478924.8624   21478930.6214
  24171840.831    -9682681.89149  -7522243.32949  24171840.4244   24171847.8284
  20397565.264   -38419824.63349 -29919626.70249  20397564.7324   20397570.3044
  22067206.848   -31284359.56149 -24344165.10449  22067206.7454   22067212.3834
  23424894.634   -13010923.13549 -10128349.95249  23424894.2744   23424901.3244
  20195668.625   -53121759.804 9 -41366314.998 9  20195668.504    20195672.807
  22947714.776   -36566097.42249 -28474560.91549  22947713.9914   22947719.9834
  20326184.797   -51125581.71449 -39817601.75749  20326184.2574   20326189.4564
 96  9 18 18 35 29.9990000  0  9 22 21  1 17  3  6 28 26 23
  24096924.620   -34988642.98649 -27250381.60549  24096923.9794   24096930.0634
  21448863.392   -43840584.89849 -34119971.47849  21448863.0314   21448868.5554
  24131459.547    -9894885.47249  -7687596.68049  24131458.9654   24131466.2884
  20383788.369   -38492222.85749 -29976040.91649  20383787.9294   20383793.4534
  22033959.465   -31459074.90049 -24480306.92249  22033959.3454   22033965.0724
  23427255.332   -12998514.55549 -10118681.03149  23427254.7694   23427262.0604
  20179495.583   -53206749.720 9 -41432540.929 9  20179495.410    20179499.815
  22942783.684   -36592004.50649 -28494748.31749  22942785.1354   22942789.1114
  20308875.297   -51216543.01549 -39888480.70149  20308874.7914   20308879.9114
 96  9 18 18 35 59.9990000  0  9 22 21  1 17  3  6 28 26 23
  24090216.603   -35023892.93649 -27277849.19049  24090216.4954   24090223.2714
  21418858.652   -43998259.47949 -34242834.78249  21418858.5234   21418864.1744
  24091082.261   -10107067.58249  -7852933.29849  24091081.9194   24091090.0364
  20370079.723   -38564261.85049 -30032175.21649  20370079.4684   20370085.0404
  22000799.559   -31633332.95949 -24616092.42049  22000799.6344   22000805.0474
  23429653.342   -12985913.87449 -10108862.41549  23429653.0404   23429660.7744
  20163441.559   -53291115.093 9 -41498280.202 9  20163441.407    20163445.646
  22937935.138   -36617486.38749 -28514604.33049  22937935.9464   22937940.1454
  20291633.005   -51307152.69149 -39959085.65049  20291632.4174   20291637.6074
 96  9 18 18 36 29.9990000  0  9 22 21  1 17  3  6 28 26 23
  24083545.809   -35058945.31949 -27305162.81249  24083545.4974   24083552.3894
  21388906.173   -44155660.16149 -34365484.65849  21388906.0524   21388911.7314
  24050700.013   -10319276.83149  -8018291.03849  24050699.9574   24050707.3464
  20356425.286   -38636016.74849 -30088088.13749  20356424.9974   20356430.6184
  21967714.647   -31807196.55649 -24751570.54349  21967714.7604   21967719.5344
  23432075.060   -12973188.38649 -10098946.55349  23432074.6254   23432081.7514
  20147496.372   -53374907.024 9 -41563572.634 9  20147496.232    20147500.478
  22933157.344   -36642593.42449 -28534168.29349  22933157.8374   22933162.3164
  20274447.762   -51397461.56249 -40029456.20849  20274447.3764   20274452.4034
 96  9 18 18 36 59.9990000  0  9 22 21  1 17  3  6 28 26 23
  24076920.667   -35093761.88349 -27332292.69249  24076919.9924   24076927.1974
  21359016.102   -44312733.51649 -34487879.47449  21359015.8674   21359021.5064
  24010325.843   -10531444.87849  -8183616.70949  24010325.7244   24010332.0494
  20342836.161   -38707428.88749 -30143733.97949  20342835.6584   20342841.0534
  21934712.643   -31980624.27749 -24886709.02549  21934712.9044   21934717.2984
  23434528.173   -12960296.34649 -10088900.91449  23434528.0024   23434535.1074
  20131670.199   -53458072.972 9 -41628377.285 9  20131670.031    20131674.505
  22928461.516   -36667268.78949 -28553395.86849  22928462.3594   22928467.0124
  20257325.127   -51487441.97549 -40099570.82249  20257324.5474   20257329.6044
 96  9 18 18 37 29.9980000  0  9 22 21  1 17  3  6 28 26 23
  24070332.946   -35128380.78149 -27359268.53149  24070332.8744   24070338.7894
  21329182.335   -44469510.42049 -34610043.28449  21329182.0374   21329187.8104
  23969963.334   -10743551.22849  -8348894.28649  23969963.4174   23969970.4224
  20329309.106   -38778515.94349 -30199126.49949  20329308.4114   20329313.8004
  21901789.643   -32153637.94349 -25021524.86549  21901789.1624   21901794.5204
  23437003.793   -12947287.21849 -10078764.02849  23437004.0784   23437010.3454
  20115959.180   -53540634.756 9 -41692711.156 9  20115959.116    20115963.491
  22923843.192   -36691537.04549 -28572306.22049  22923844.0154   22923849.1214
  20240257.787   -51577130.71849 -40169458.15349  20240257.4034   20240262.3774
 96  9 18 18 37 59.9980000  0  9 22 21  1 17  3  6 28 26 23
  24063786.041   -35162786.01949 -27386077.90049  24063785.2974   24063792.2294
  21299401.096   -44626012.55749 -34731992.99349  21299400.6734   21299406.7104
  23929612.567   -10955594.94649  -8514123.04849  23929611.8684   23929620.0134
  20315841.497   -38849287.62049 -30254273.27749  20315841.0234   20315846.3744
  21868942.356   -32326251.07849 -25156028.61149  21868942.1424   21868947.1834
  23439500.616   -12934166.97749 -10068540.57449  23439500.5084   23439507.4494
  20100363.476   -53622592.653 9 -41756574.472 9  20100363.275    20100367.566
  22919304.499   -36715389.96949 -28590892.92249  22919304.8424   22919310.0134
  20223249.322   -51666511.17849 -40239105.27049  20223248.9584   20223254.0004
 96  9 18 18 38 29.9980000  0  9 22 21  1 17  3  6 28 26 23
  24057276.710   -35196991.56649 -27412731.65349  24057275.8934   24057282.7324
  21269669.163   -44782256.05449 -34853741.17049  21269668.8474   21269674.3824
  23889272.332   -11167584.32549  -8679309.47249  23889272.6334   23889280.3314
  20302434.449   -38919740.90849 -30309171.95749  20302433.9804   20302439.4394
  21836171.327   -32498464.97049 -25290221.24749  21836171.0314   21836175.9074
  23442016.375   -12920947.46949 -10058239.77449  23442016.2814   23442023.7414
  20084880.190   -53703958.355 9 -41819976.339 9  20084880.009    20084884.319
  22914838.256   -36738861.49049 -28609182.45349  22914838.3334   22914843.2754
  20206297.448   -51755593.69949 -40308520.22849  20206296.8334   20206301.8864
 96  9 18 18 38 59.9980000  0  9 22 21  1 17  3  6 28 26 23
  24050802.924   -35231013.04649 -27439241.97949  24050802.4904   24050809.4344
  21239983.108   -44938256.73349 -34975300.13249  21239982.6364   21239988.8654
  23848942.332   -11379520.66549  -8844454.57149  23848942.3604   23848950.1784
  20289087.341   -38989881.26349 -30363826.79649  20289086.8634   20289092.1814
  21803479.293   -32670261.35449 -25424088.55649  21803479.1504   21803484.3304
  23444549.029   -12907637.17749 -10047868.22649  23444548.7044   23444555.7014
  20069508.263   -53784738.139 9 -41882921.645 9  20069508.055    20069512.449
  22910443.052   -36761957.40349 -28627179.29949  22910442.9564   22910449.2604
  20189401.648   -51844381.55549 -40377705.57549  20189401.3134   20189406.2934
 96  9 18 18 39 29.9980000  0  9 22 21  1 17  3  6 28 26 23
  24044364.669   -35264845.02649 -27465604.66649  24044363.9774   24044369.5944
  21210342.780   -45094016.86949 -35096671.65849  21210342.5614   21210348.6124
  23808619.388   -11591419.55449  -9009570.50849  23808618.3324   23808626.4754
  20275794.509   -39059735.69449 -30418258.83649  20275793.9944   20275799.5084
  21770868.266   -32841633.11449 -25557624.98649  21770867.6844   21770872.9824
  23447099.725   -12894235.15249 -10037425.19749  23447099.4134   23447106.7914
  20054246.582   -53864938.358 9 -41945415.342 9  20054246.333    20054250.923
  22906119.729   -36784679.10149 -28644884.53349  22906119.5394   22906124.9514
  20172565.396   -51932856.21549 -40446646.87649  20172565.1224   20172570.1764
 96  9 18 18 39 59.9980000  0  9 22 21  1 17  3  6 28 26 23
  24037955.783   -35298527.24949 -27491850.64249  24037955.0784   24037962.3254
  21180740.075   -45249580.48249 -35217890.04449  21180739.7984   21180745.7744
  23768288.602   -11803356.61249  -9174716.16249  23768288.3044   23768296.5974
  20262544.317   -39129365.20649 -30472515.61749  20262543.8934   20262549.3834
  21738329.553   -33012623.26349 -25690864.05849  21738329.6954   21738334.4424
  23449662.459   -12880769.38949 -10026932.51849  23449662.1984   23449669.1154
  20039086.330   -53944605.385 9 -42007493.568 9  20039086.194    20039090.720
  22901861.752   -36807055.35149 -28662320.61749  22901861.5504   22901866.8644
  20155784.646   -52021040.45349 -40515361.87549  20155784.2084   20155789.1544
 96  9 18 18 40 29.9980000  0  9 22 21  1 17  3  6 28 26 23
  24031575.617   -35332053.46449 -27517975.03849  24031574.4114   24031582.7714
  21151178.980   -45404924.42849 -35338937.26649  21151178.8394   21151184.6404
  23727954.048   -12015317.55949  -9339880.45849  23727953.4424   23727960.8394
  20249340.522   -39198751.62049 -30526582.96849  20249339.9534   20249345.3374
  21705867.845   -33183210.23549 -25823788.96249  21705867.8174   21705872.9114
  23452240.805   -12867221.05249 -10016375.47049  23452240.4574   23452247.3644
  20024030.533   -54023725.077 9 -42069145.297 9  20024030.327    20024034.732
  22897673.039   -36829067.63849 -28679473.06549  22897672.8374   22897678.9334
  20139060.352   -52108926.52349 -40583844.53549  20139059.8074   20139065.1144
 96  9 18 18 40 59.9980000  0  9 22 21  1 17  3  6 28 26 23
  24025226.382   -35365420.41349 -27543975.35949  24025225.9494   24025231.9924
  21121661.565   -45560039.50049 -35459806.13849  21121661.2614   21121667.4644
  23687617.854   -12227286.29249  -9505050.84049  23687617.5874   23687624.8004
  20236181.092   -39267905.39849 -30580469.04149  20236180.5594   20236186.2064
  21673483.413   -33353389.78649 -25956396.40249  21673483.4414   21673488.5814
  23454834.514   -12853589.96449 -10005753.95549  23454834.1374   23454840.9644
  20009079.458   -54102294.125 9 -42130367.955 9  20009079.311    20009083.646
  22893555.337   -36850705.63149 -28696333.87849  22893555.8874   22893560.5164
  20122393.704   -52196511.00249 -40652092.19249  20122393.3074   20122398.3524
 96  9 18 18 41 29.9980000  0  9 22 21  1 17  3  6 28 26 23
  24018913.770   -35398591.85549 -27569823.33249  24018913.6114   24018920.0214
  21092195.662   -45714883.74249 -35580463.97649  21092195.1584   21092201.3684
  23647286.903   -12439226.20149  -9670198.76049  23647286.3294   23647293.6194
  20223072.362   -39336791.91349 -30634146.85949  20223071.8764   20223077.5054
  21641180.428   -33523143.93649 -26088672.36149  21641180.0704   21641185.5284
  23457450.705   -12839841.75249  -9995041.15849  23457450.5444   23457457.8994
  19994238.753   -54180282.589 9 -42191138.209 9  19994238.498    19994242.939
  22889513.023   -36871946.59749 -28712885.29749  22889514.0474   22889518.5414
  20105788.894   -52283770.46949 -40720086.59149  20105788.3314   20105793.3954
 96  9 18 18 41 59.9980000  0  9 22 21  1 17  3  6 28 26 23
  24012630.288   -35431612.86949 -27595554.09449  24012631.1244   24012636.8954
  21062776.465   -45869482.39449 -35700930.44549  21062776.1474   21062782.2104
  23606958.141   -12651154.72349  -9835337.82749  23606957.9034   23606964.8144
  20210012.603   -39405421.94249 -30687624.81949  20210012.0894   20210017.7984
  21608952.750   -33692503.01249 -26220640.46049  21608952.4704   21608957.3924
  23460080.843   -12826021.30849  -9984272.08249  23460080.4734   23460087.6594
  19979502.795   -54257719.615 9 -42251478.771 9  19979502.625    19979507.124
  22885538.140   -36892836.91249 -28729163.48349  22885538.6904   22885543.7784
  20089237.977   -52370746.70849 -40787860.29649  20089237.5274   20089242.6554
 96  9 18 18 42 29.9980000  0  9 22 21  1 17  3  6 28 26 23
  24006370.206   -35464509.98849 -27621188.29349  24006369.1144   24006376.9284
  21033403.120   -46023840.85449 -35821209.76249  21033402.8784   21033408.7144
  23566633.037   -12863065.05549 -10000462.70349  23566632.2754   23566640.3574
  20197001.403   -39473796.25749 -30740903.52849  20197000.7234   20197006.7374
  21576798.136   -33861476.74749 -26352308.31049  21576797.9054   21576802.8324
  23462721.074   -12812146.77449  -9973460.84949  23462720.9594   23462726.7054
  19964870.322   -54334613.650 9 -42311396.223 9  19964870.185    19964874.595
  22881622.729   -36913409.80049 -28745194.33149  22881623.0334   22881627.7684
  20072735.630   -52457467.03049 -40855434.58649  20072735.1354   20072740.1464
 96  9 18 18 42 59.9980000  0  9 22 21  1 17  3  6 28 26 23
  24000129.387   -35497307.07349 -27646744.58449  24000127.7704   24000136.1564
  21004073.565   -46177970.14149 -35941310.49449  21004073.2414   21004078.8924
  23526307.826   -13074974.39049 -10165586.79649  23526308.0584   23526314.8464
  20184035.240   -39541933.47649 -30793997.48649  20184034.5594   20184040.3824
  21544712.362   -34030088.39949 -26483694.01049  21544712.1834   21544717.2584
  23465370.704   -12798222.69649  -9962611.01849  23465369.7504   23465377.4784
  19950337.726   -54410983.156 9 -42370904.950 9  19950337.601    19950341.832
  22877765.660   -36933682.84649 -28760991.51649  22877765.1174   22877770.5164
  20056278.049   -52543951.79349 -40922825.32149  20056277.5844   20056282.6904
 96  9 18 18 43 29.9980000  0  9 22 21  1 17  3  6 28 26 23
  23993903.022   -35530027.57449 -27672241.16849  23993902.3944   23993910.1934
  20974782.434   -46331896.51949 -36061253.11649  20974782.0674   20974787.8024
  23485979.505   -13286902.08949 -10330725.21949  23485979.3914   23485986.4674
  20171113.294   -39609839.84049 -30846911.56049  20171112.9004   20171118.1444
  21512690.515   -34198365.47149 -26614819.00549  21512690.2614   21512695.5064
  23468027.509   -12784263.33949  -9951733.72049  23468027.1224   23468033.1604
  19935900.927   -54486850.050 9 -42430022.030 9  19935900.712    19935904.984
  22873958.632   -36953684.99649 -28776577.65449  22873959.2724   22873964.5024
  20039862.109   -52630218.17549 -40990045.88749  20039861.4384   20039866.7144
 96  9 18 18 43 59.9980000  0  9 22 21  1 17  3  6 28 26 23
  23987695.711   -35562646.82749 -27697658.84649  23987694.7164   23987702.7164
  20945532.964   -46485603.97249 -36181025.15649  20945532.3614   20945538.0254
  23445652.157   -13498822.66949 -10495858.10449  23445651.7244   23445658.8144
  20158242.180   -39677478.52149 -30899617.04649  20158241.8064   20158247.0364
  21480738.745   -34366272.41649 -26745655.58449  21480738.8054   21480743.4404
  23470696.995   -12770234.30349  -9940802.10449  23470696.7224   23470703.9014
  19921565.694   -54562182.429 9 -42488722.608 9  19921565.526    19921569.821
  22870209.229   -36973391.59549 -28791933.45849  22870209.9024   22870213.0274
  20023494.488   -52716230.14849 -41057068.21449  20023494.0254   20023499.1724
 96  9 18 18 44 29.9980000  0  9 22 21  1 17  3  6 28 26 23
  23981506.107   -35595173.85149 -27723004.67049  23981504.9024   23981512.9504
  20916321.921   -46639109.45949 -36300639.80449  20916321.5004   20916327.1604
  23405324.309   -13710745.72549 -10660992.88949  23405323.7604   23405331.0054
  20145420.341   -39744857.38249 -30952120.06749  20145419.8414   20145424.9914
  21448856.823   -34533812.83749 -26876206.55449  21448856.8204   21448862.1494
  23473380.144   -12756130.91149  -9929812.55149  23473380.3214   23473386.8364
  19907329.715   -54636992.599 9 -42547016.261 9  19907329.588    19907334.052
  22866514.601   -36992805.00149 -28807060.81249  22866515.1954   22866520.4314
  20007170.899   -52802011.18949 -41123910.58549  20007170.4364   20007175.5384
 96  9 18 18 44 59.9980000  0  9 22 21  1 17  3  6 28 26 23
  23975336.866   -35627594.49849 -27748267.59349  23975336.1124   23975342.6764
  20887149.349   -46792411.82549 -36420096.18949  20887148.9374   20887154.5744
  23364998.315   -13922659.99149 -10826120.83449  23364997.7844   23365005.8694
  20132649.592   -39811966.33549 -31004412.77549  20132649.2134   20132654.9374
  21417048.783   -34700966.10449 -27006455.85649  21417048.6394   21417053.5824
  23476077.657   -12741956.40949  -9918767.60649  23476077.4984   23476084.3414
  19893193.399   -54711279.271 9 -42604902.002 9  19893193.187    19893197.808
  22862878.101   -37011915.25949 -28821951.95749  22862878.2884   22862883.7364
  19990893.822   -52887547.70449 -41190562.42449  19990893.3894   19990898.6534
 96  9 18 18 45 29.9970000  0  9 22 21  1 17  3  6 28 26 23
  23969192.470   -35659883.42549 -27773427.88749  23969191.9974   23969199.2404
  20858014.717   -46945514.09249 -36539396.64849  20858014.5504   20858020.0644
  23324677.692   -14134545.11249 -10991226.05349  23324676.6234   23324685.2584
  20119934.372   -39878784.41449 -31056478.82649  20119934.0914   20119939.9584
  21385321.761   -34867692.53549 -27136372.55249  21385321.6134   21385326.5394
  23478787.122   -12727719.81049  -9907674.26949  23478787.0524   23478795.5664
  19879160.085   -54785024.988 9 -42662366.215 9  19879159.884    19879164.472
  22859299.072   -37030722.01349 -28836606.59749  22859299.6634   22859303.9384
  19974665.535   -52972827.63849 -41257014.32849  19974664.9684   19974670.3924
 96  9 18 18 45 59.9970000  0  9 22 21  1 17  3  6 28 26 23
  23963070.523   -35692055.73149 -27798497.31249  23963069.5144   23963076.4244
  20828914.682   -47098436.66049 -36658557.07349  20828914.3344   20828919.8734
  23284357.989   -14346424.46849 -11156326.79649  23284358.4044   23284365.7774
  20107270.682   -39945334.00949 -31108335.67749  20107270.1014   20107275.7834
  21353675.332   -35033995.57849 -27265959.33349  21353675.0944   21353680.1834
  23481503.912   -12713444.92849  -9896551.10949  23481503.4654   23481511.0024
  19865227.263   -54858242.994 9 -42719419.231 9  19865227.024    19865231.581
  22855777.944   -37049228.02549 -28851026.88949  22855778.7924   22855783.0914
  19958482.083   -53057872.02949 -41323282.69449  19958481.5454   19958486.8304
 96  9 18 18 46 29.9970000  0  9 22 21  1 17  3  6 28 26 23
  23956970.880   -35724108.32649 -27823473.45149  23956970.9264   23956977.7274
  20799851.487   -47251164.09249 -36777565.45449  20799851.0344   20799856.5344
  23244043.821   -14558276.29149 -11321406.04949  23244042.7844   23244052.4304
  20094658.474   -40011612.25549 -31159981.08449  20094657.8014   20094663.4854
  21322111.105   -35199866.42849 -27395209.34749  21322111.0234   21322115.8024
  23484224.661   -12699145.63349  -9885408.93249  23484224.5034   23484232.1824
  19851395.477   -54930929.980 9 -42776058.467 9  19851395.245    19851399.588
  22852315.116   -37067424.70149 -28865206.12649  22852316.3154   22852321.3964
  19942346.504   -53142665.44449 -41389355.49449  19942346.1104   19942351.2994
 96  9 18 18 46 59.9970000  0  9 22 21  1 17  3  6 28 26 23
  23950898.375   -35756022.45449 -27848341.67749  23950897.5404   23950904.0814
  20770827.454   -47403686.67249 -36896414.20849  20770827.1594   20770832.8724
  23203738.572   -14770082.66249 -11486449.92349  23203737.7854   23203746.6194
  20082098.645   -40077614.18849 -31211411.18549  20082098.1904   20082103.8164
  21290630.427   -35365299.92749 -27524118.56449  21290630.2774   21290635.0644
  23486950.612   -12684821.80549  -9874247.62349  23486950.3974   23486959.3324
  19837666.984   -55003073.794 9 -42832274.448 9  19837666.783    19837671.210
  22848910.808   -37085314.83549 -28879146.50349  22848912.3074   22848916.7254
  19926262.308   -53227188.94349 -41455217.96349  19926261.9224   19926267.0794
 96  9 18 18 47 29.9970000  0  9 22 21  1 17  3  6 28 26 23
  23944849.178   -35787812.96649 -27873113.60849  23944848.0874   23944855.7294
  20741844.155   -47555994.23649 -37015095.41749  20741843.8054   20741849.3924
  23163440.978   -14981846.25749 -11651460.45449  23163441.1954   23163449.9164
  20069591.653   -40143339.86949 -31262626.01949  20069590.8184   20069596.9304
  21259230.891   -35530305.11949 -27652694.03449  21259231.0254   21259235.4014
  23489681.280   -12670472.99049  -9863066.87249  23489681.3054   23489689.2574
  19824042.486   -55074670.193 9 -42888063.869 9  19824042.310    19824046.784
  22845563.888   -37102905.53149 -28892853.52349  22845564.3734   22845568.3954
  19910227.728   -53311451.35649 -41520876.99049  19910227.4274   19910232.3784
 96  9 18 18 47 59.9970000  0  9 22 21  1 17  3  6 28 26 23
  23938820.748   -35819492.51349 -27897799.06549  23938819.8454   23938827.0684
  20712908.456   -47708053.04649 -37133582.79349  20712908.1164   20712913.5834
  23123156.840   -15193543.35949 -11816419.18249  23123156.8414   23123164.5064
  20057138.011   -40208783.52449 -31313621.09249  20057137.4184   20057143.3764
  21227913.367   -35694880.27549 -27780934.40949  21227913.3484   21227917.6214
  23492419.597   -12656087.29749  -9851857.34249  23492418.7924   23492426.8144
  19810524.218   -55145708.755 9 -42943418.616 9  19810524.120    19810528.679
  22842275.373   -37120183.42649 -28906316.83949  22842276.0754   22842279.7094
  19894246.099   -53395436.03049 -41586319.59749  19894245.6374   19894250.7344
 96  9 18 18 48 29.9970000  0  9 22 21  1 17  3  6 28 26 23
  23932816.029   -35851047.70849 -27922387.62849  23932815.4134   23932822.5924
  20684024.219   -47859840.41449 -37251858.65249  20684023.8034   20684029.1294
  23082889.086   -15405149.74549 -11981307.23949  23082889.3454   23082896.3344
  20044741.358   -40273928.87749 -31364383.71649  20044740.7114   20044746.6594
  21196679.881   -35859013.00649 -27908830.03649  21196679.8314   21196684.5434
  23495168.845   -12641638.50449  -9840598.66349  23495169.1894   23495176.1334
  19797116.223   -55216169.144 9 -42998322.836 9  19797116.060    19797120.506
  22839048.651   -37137139.70149 -28919529.54149  22839048.2504   22839055.4164
  19878318.635   -53479136.16649 -41651540.48749  19878318.0484   19878323.2154
 96  9 18 18 48 59.9970000  0  9 22 21  1 17  3  6 28 26 23
  23926835.921   -35882473.37149 -27946875.25349  23926835.6234   23926843.3224
  20655196.891   -48011327.76949 -37369900.74349  20655196.4394   20655202.0144
  23042641.491   -15616648.90049 -12146111.71449  23042641.8424   23042650.2714
  20032405.339   -40338753.80649 -31414896.66549  20032404.8204   20032410.7564
  21165536.409   -36022672.86249 -28036357.19449  21165536.0704   21165540.8034
  23497935.526   -12627101.39049  -9829271.14649  23497935.3654   23497942.4684
  19783822.439   -55286028.623 9 -43052758.823 9  19783822.229    19783826.756
  22835886.958   -37153754.48249 -28932476.15549  22835885.9714   22835892.6664
  19862446.776   -53562542.57349 -41716532.50249  19862446.2684   19862451.3954
 96  9 18 18 49 29.9970000  0  9 22 21  1 17  3  6 28 26 23
  23920875.632   -35913796.84349 -27971283.26249  23920873.9394   23920883.1104
  20626426.318   -48162518.08249 -37487711.37149  20626426.2144   20626431.3864
  23002411.834   -15828063.02549 -12310849.94349  23002411.6934   23002419.2934
  20020127.748   -40403273.87149 -31465172.05649  20020127.4314   20020132.9314
  21134481.169   -36185868.99549 -28163523.01449  21134481.3654   21134485.8484
  23500716.105   -12612490.10049  -9817885.84749  23500716.4764   23500723.5424
  19770639.390   -55355305.893 9 -43106741.138 9  19770639.304    19770643.833
  22832789.560   -37170033.35549 -28945161.03349  22832789.4374   22832795.9224
  19846629.098   -53645664.74149 -41781303.03149  19846628.5654   19846633.7254
 96  9 18 18 49 59.9970000  0  9 22 21  1 17  3  6 28 26 23
  23914942.296   -35944974.11349 -27995577.34749  23914942.2514   23914950.0764
  20597716.228   -48313391.14049 -37605274.78549  20597715.9344   20597721.2814
  22962201.686   -16039370.44049 -12475505.04349  22962201.6264   22962208.5794
  20007913.037   -40467463.71749 -31515190.13649  20007912.6254   20007917.8264
  21103518.821   -36348577.31149 -28290308.72049  21103518.8694   21103523.6224
  23503517.596   -12597766.39549  -9806412.94049  23503517.7724   23503525.0274
  19757571.221   -55423980.806 9 -43160254.079 9  19757570.899    19757575.322
  22829763.038   -37185936.74749 -28957553.32349  22829762.6074   22829768.7074
  19830869.143   -53728484.60849 -41845838.00049  19830868.6244   19830873.7444
 96  9 18 18 50 29.9970000  0  9 22 21  1 17  3  6 28 26 23
  23909031.931   -35976034.06149 -28019779.98649  23909030.8564   23909039.7304
  20569056.393   -48464000.25149 -37722632.52749  20569055.9134   20569061.4204
  22922001.257   -16250623.19949 -12640117.53949  22922000.8814   22922008.6484
  19995756.372   -40531347.84849 -31564969.99649  19995755.9354   19995761.1984
  21072642.667   -36510831.14949 -28416740.28349  21072642.7434   21072647.4554
  23506334.436   -12582965.80649  -9794880.13449  23506334.3714   23506341.3714
  19744608.810   -55492097.890 9 -43213332.351 9  19744608.584    19744613.131
  22826800.704   -37201504.58449 -28969684.14249  22826801.2034   22826805.6794
  19815159.180   -53811038.98849 -41910166.09649  19815158.8054   19815164.1554
 96  9 18 18 50 59.9970000  0  9 22 21  1 17  3  6 28 26 23
  23903151.943   -36006933.70149 -28043857.71349  23903151.4904   23903160.1064
  20540453.041   -48614311.10949 -37839757.85749  20540452.7024   20540457.8694
  22881818.665   -16461787.83349 -12804661.37449  22881818.1334   22881824.5934
  19983665.708   -40594884.78049 -31614479.31549  19983665.1454   19983670.3664
  21041861.986   -36672585.03249 -28542782.27549  21041861.8004   21041867.0894
  23509169.682   -12568066.55349  -9783270.44549  23509169.8294   23509177.1334
  19731758.486   -55559626.852 9 -43265952.348 9  19731758.403    19731762.816
  22823908.115   -37216704.72049 -28981528.45549  22823907.4584   22823914.3614
  19799508.717   -53893282.94049 -41974252.30349  19799508.4004   19799513.6714
 96  9 18 18 51 29.9970000  0  9 22 21  1 17  3  6 28 26 23
  23897305.381   -36037658.19349 -28067798.98449  23897304.7674   23897312.7914
  20511903.665   -48764338.68649 -37956662.45949  20511903.4464   20511908.7054
  22841653.212   -16672858.32549 -12969131.84149  22841652.5044   22841659.9394
  19971640.894   -40658073.99749 -31663717.68749  19971640.6364   19971646.1344
  21011176.640   -36833835.69849 -28668432.15049  21011176.4244   21011182.1104
  23512024.131   -12553068.66149  -9771583.90049  23512023.6684   23512030.7974
  19719020.950   -55626563.601 9 -43318110.881 9  19719020.771    19719025.326
  22821084.397   -37231542.16849 -28993090.15249  22821085.9444   22821089.6934
  19783917.316   -53975216.00649 -42038096.25949  19783916.9634   19783922.4624
 96  9 18 18 51 59.9970000  0  9 22 21  1 17  3  6 28 26 23
  23891484.714   -36068249.37449 -28091636.37649  23891483.3194   23891491.7444
  20483398.336   -48914135.66449 -38073387.37249  20483397.9274   20483403.3384
  22801501.315   -16883856.62449 -13133546.05049  22801501.2244   22801507.4004
  19959677.674   -40720941.69049 -31712705.52249  19959677.2414   19959682.9534
  20980582.358   -36994609.59649 -28793710.51249  20980582.3864   20980587.7224
  23514887.884   -12538020.36049  -9759858.08649  23514887.1214   23514894.7844
  19706390.224   -55692937.911 9 -43369831.152 9  19706390.135    19706394.809
  22818322.245   -37246057.43349 -29004400.80549  22818322.0774   22818327.8434
  19768379.463   -54056868.57249 -42101721.64549  19768378.9734   19768384.1764
 96  9 18 18 52 29.9970000  0  9 22 21  1 17  3  6 28 26 23
  23885685.271   -36098724.17249 -28115383.09049  23885684.9944   23885692.8574
  20454938.639   -49063692.73949 -38189925.34149  20454938.2814   20454943.5624
  22761368.521   -17094756.03149 -13297883.20149  22761368.0344   22761374.7144
  19947776.268   -40783484.86949 -31761440.48049  19947775.6664   19947781.3104
  20950081.932   -37154892.26549 -28918606.09549  20950081.7604   20950087.4324
  23517757.328   -12522941.00749  -9748108.09349  23517756.1394   23517764.4214
  19693868.869   -55758737.962 9 -43421103.943 9  19693868.761    19693873.523
  22815621.454   -37260252.99749 -29015462.29049  22815621.1854   22815626.2254
  19752899.213   -54138219.60349 -42165112.06649  19752898.7614   19752903.6434
 96  9 18 18 52 59.9970000  0  9 22 21  1 17  3  6 28 26 23
  23879906.585   -36129091.85049 -28139046.35549  23879905.6454   23879913.7604
  20426526.584   -49212999.84349 -38306268.53349  20426526.2224   20426531.2734
  22721255.574   -17305550.77349 -13462138.81849  22721255.2904   22721262.1134
  19935929.649   -40845739.46149 -31809950.56549  19935929.2034   19935934.8354
  20919672.980   -37314692.46749 -29043125.72949  20919672.5914   20919678.1834
  23520630.448   -12507841.91649  -9736342.71649  23520630.4904   23520638.4324
  19681456.203   -55823967.161 9 -43471931.920 9  19681455.961    19681460.817
  22812980.020   -37274135.18149 -29026279.56349  22812980.1444   22812985.2154
  19737471.934   -54219289.45849 -42228283.39249  19737471.4894   19737476.5244
 96  9 18 18 53 29.9960000  0  9 22 21  1 17  3  6 28 26 23
  23874149.793   -36159343.24749 -28162618.98649  23874148.8034   23874157.5564
  20398168.410   -49362023.07249 -38422390.52349  20398168.0894   20398173.0764
  22681168.774   -17516206.25349 -13626285.89449  22681168.0104   22681174.4114
  19924142.278   -40907683.00449 -31858218.27349  19924141.8544   19924147.1624
  20889360.413   -37473987.03749 -29167251.36049  20889360.5034   20889365.1394
  23523512.164   -12492699.69749  -9724543.73849  23523512.4354   23523519.2314
  19669155.968   -55888605.053 9 -43522299.136 9  19669155.798    19669160.673
  22810402.778   -37287681.36649 -29036835.03449  22810403.1314   22810406.8194
  19722102.436   -54300057.80049 -42291219.76749  19722101.9794   19722106.8404
 96  9 18 18 53 59.9960000  0  9 22 21  1 17  3  6 28 26 23
  23868418.664   -36189460.36749 -28186086.97749  23868418.9424   23868426.1424
  20369870.990   -49510727.50549 -38538264.10149  20369870.6084   20369875.8404
  22641113.808   -17726696.69049 -13790304.36349  22641113.4234   22641121.1634
  19912417.878   -40969295.93249 -31906228.36649  19912417.1944   19912422.8194
  20859147.337   -37632758.98149 -29290969.75549  20859147.0324   20859152.0214
  23526405.710   -12477493.71949  -9712695.11449  23526405.6464   23526413.4704
  19656971.678   -55952636.288 9 -43572193.634 9  19656971.291    19656976.035
  22807894.619   -37300861.98149 -29047105.66549  22807894.6724   22807897.4174
  19706792.651   -54380510.59549 -42353910.26249  19706792.3354   19706797.3074
 96  9 18 18 54 29.9960000  0  9 22 21  1 17  3  6 28 26 23
  23862710.933   -36219456.87249 -28209460.99549  23862709.9514   23862717.3944
  20341631.772   -49659124.13549 -38653897.82849  20341631.4294   20341636.7214
  22601086.472   -17937042.83949 -13954210.37849  22601085.3774   22601092.7954
  19900747.353   -41030624.01749 -31954016.50349  19900746.7664   19900752.1714
  20829028.816   -37791033.54749 -29414300.58749  20829028.5934   20829033.3574
  23529306.328   -12462251.27849  -9700818.05849  23529306.9834   23529315.0424
  19644896.088   -56016094.378 9 -43621641.523 9  19644895.865    19644900.256
  22805449.715   -37313708.64949 -29057116.07049  22805450.1814   22805454.2454
  19691533.800   -54460696.73149 -42416392.96949  19691533.2644   19691538.2324
 96  9 18 18 54 59.9960000  0  7 21  1 17  3 28 26 23
  20313454.540   -49807195.77949 -38769278.32549  20313454.2294   20313459.6064
  22561090.117   -18147223.75549 -14117987.65549  22561089.4584   22561097.1534
  19889139.158   -41091626.38449 -32001550.83449  19889138.5294   19889143.9114
  20799010.461   -37948780.55249 -29537220.32849  20799010.1464   20799014.6714
  19632934.477   -56078952.621 9 -43670621.998 9  19632934.263    19632938.733
  22803071.636   -37326203.93349 -29066852.68349  22803072.8074   22803077.7124
  19676330.661   -54540589.82249 -42478647.33349  19676330.1414   19676335.2774
 96  9 18 18 55 29.9960000  0  7 21  1 17  3 28 26 23
  20285333.137   -49954975.32649 -38884431.21349  20285332.9664   20285338.2074
  22521125.978   -18357234.71849 -14281632.49849  22521125.4544   22521132.0014
  19877597.314   -41152278.15949 -32048811.97749  19877596.7024   19877602.0584
  20769091.365   -38106004.59549 -29659732.57049  20769091.5694   20769096.1944
  19621086.024   -56141215.812 9 -43719138.793 9  19621085.873    19621090.489
  22800757.925   -37338363.92149 -29076328.04949  22800759.2514   22800763.5634
  19661184.976   -54620180.66849 -42540666.17949  19661184.4574   19661189.6354
 96  9 18 18 55 59.9960000  0  7 21  1 17  3 28 26 23
  20257260.010   -50102501.22349 -38999386.44749  20257259.6644   20257265.0274
  22481190.632   -18567095.32849 -14445160.20049  22481191.4314   22481197.5904
  19866117.630   -41212604.02849 -32095819.16649  19866117.2394   19866122.6244
  20739267.375   -38262731.27549 -29781857.25449  20739267.3254   20739272.2004
  19609347.485   -56202902.557 9 -43767206.408 9  19609347.192    19609351.977
  22798501.245   -37350217.36149 -29085564.51649  22798499.2074   22798509.3584
  19646092.916   -54699490.31049 -42602465.90449  19646092.5044   19646097.4354
 96  9 18 18 56 29.9960000  0  7 21  1 17  3 28 26 23
  20229234.163   -50249776.89849 -39114146.70549  20229233.7524   20229239.3114
  22441282.154   -18776815.72349 -14608578.63349  22441282.0104   22441288.4764
  19854700.293   -41272601.82549 -32142570.71049  19854699.9444   19854705.6084
  20709539.537   -38418952.36149 -29903587.96449  20709539.4544   20709544.4204
  19597718.761   -56264011.398 9 -43814823.708 9  19597718.596    19597723.402
  22796299.742   -37361791.82149 -29094583.60449  22796301.0734   22796306.0264
  19631057.230   -54778503.31349 -42664034.47949  19631056.7064   19631061.8384
 96  9 18 18 56 59.9960000  0  7 21  1 17  3 28 26 23
  20201257.630   -50396794.49549 -39228705.86949  20201257.3934   20201263.0074
  22401402.724   -18986384.68149 -14771879.07349  22401402.6074   22401409.5494
  19843349.520   -41332250.55849 -32189050.25449  19843349.2384   19843355.0094
  20679911.059   -38574650.37649 -30024911.09349  20679910.9194   20679915.9634
  19586202.348   -56324531.065 9 -43861981.921 9  19586202.161    19586206.987
  22794149.956   -37373086.45049 -29103384.65549  22794150.5364   22794156.8684
  19616082.899   -54857192.89149 -42725351.04549  19616082.5324   19616087.6854
 96  9 18 18 57 29.9960000  0  7 21  1 17  3 28 26 23
  20173329.766   -50543555.98949 -39343065.46649  20173329.2924   20173335.2024
  22361547.964   -19195824.65049 -14935079.00349  22361547.7314   22361554.1464
  19832059.185   -41391582.28249 -32235282.78449  19832058.6174   19832064.4824
  20650380.322   -38729834.47549 -30145833.76449  20650380.1614   20650385.6094
  19574793.618   -56384484.995 9 -43908699.295 9  19574793.341    19574798.233
  22792050.657   -37384121.70149 -29111983.55549  22792050.5934   22792058.5204
  19601164.244   -54935591.18249 -42786440.63049  19601163.8624   19601169.0484
 96  9 18 18 57 59.9960000  0  7 21  1 17  3 28 26 23
  20145461.046   -50690007.01749 -39457183.14249  20145460.8174   20145466.2784
  22321720.030   -19405123.55349 -15098169.01349  22321719.7394   22321725.7234
  19820832.550   -41450579.85649 -32281254.93849  19820831.9824   19820837.7014
  20620956.677   -38884457.37649 -30266319.14449  20620956.7564   20620961.7964
  19563497.654   -56443844.756 9 -43954953.682 9  19563497.460    19563502.466
  22790005.544   -37394864.63549 -29120354.71449  22790006.2394   22790011.9544
  19586302.986   -55013688.38849 -42847295.60649  19586302.4594   19586307.3134
 96  9 18 18 58 29.9960000  0  7 21  1 17  3 28 26 23
  20117655.682   -50836125.95449 -39571042.04749  20117655.3924   20117660.8584
  22281919.591   -19614278.06949 -15261146.51649  22281919.3444   22281925.5354
  19809674.048   -41509219.15649 -32326947.91449  19809673.7294   19809678.9964
  20591642.290   -39038505.86449 -30386356.93049  20591642.1474   20591647.2604
  19552316.632   -56502602.019 9 -44000738.584 9  19552316.421    19552321.270
  22788020.892   -37405297.12649 -29128483.92149  22788020.2634   22788025.5954
  19571499.470   -55091481.38349 -42907913.52849  19571498.9114   19571504.1814
 96  9 18 18 58 59.9960000  0  7 21  1 17  3 28 26 23
  20089908.620   -50981938.59449 -39684662.28249  20089908.1414   20089913.4684
  22242143.062   -19823305.04349 -15424024.63449  22242142.5584   22242148.8674
  19798583.209   -41567502.67749 -32372363.67049  19798582.5684   19798587.6784
  20562431.462   -39192010.95549 -30505971.28449  20562431.3884   20562436.1764
  19541246.531   -56560776.495 9 -44046069.365 9  19541246.364    19541250.904
  22786098.336   -37415399.42749 -29136355.88149  22786098.3454   22786103.6924
  19556747.263   -55169005.16649 -42968321.68149  19556746.7404   19556751.5264
 96  9 18 18 59 29.9960000  0  7 21  1 17  3 28 26 23
  20062219.369   -51127447.56349 -39798045.88849  20062219.0044   20062224.2164
  22202390.086   -20032208.43849 -15586806.46649  22202389.1794   22202395.6454
  19787558.110   -41625438.65549 -32417508.60749  19787557.2824   19787562.8774
  20533321.586   -39344983.58249 -30625170.74249  20533321.3674   20533325.9514
  19530285.152   -56618379.622 9 -44090954.946 9  19530284.978    19530289.396
  22784238.143   -37425177.11549 -29143974.88949  22784238.3554   22784242.2114
  19542042.880   -55246276.84949 -43028533.38949  19542042.3214   19542047.5174
 96  9 18 18 59 59.9960000  0  7 21  1 17  3 28 26 23
  20034585.424   -51272664.14849 -39911201.66349  20034585.1094   20034590.1644
  22162661.387   -20240980.42049 -15749485.89249  22162661.1874   22162667.6674
  19776598.222   -41683030.94849 -32462385.73949  19776598.1804   19776603.6274
  20504310.157   -39497439.61349 -30743967.64849  20504310.0344   20504314.6054
  19519431.467   -56675416.739 9 -44135399.478 9  19519431.243    19519435.617
  22782437.870   -37434631.90949 -29151342.32649  22782435.8084   22782442.8314
  19527385.796   -55323301.28849 -43088552.44049  19527385.2614   19527390.2224
 96  9 18 19  0 29.9960000  0  7 21  1 17  3 28 26 23
  20007004.348   -51417603.61549 -40024141.49249  20007004.0254   20007009.2394
  22122961.240   -20449605.02549 -15912050.47649  22122960.9354   22122967.7264
  19765702.782   -41740287.90049 -32507001.55949  19765702.4634   19765708.0034
  20475393.625   -39649396.53949 -30862375.64549  20475393.4794   20475398.4344
  19508682.735   -56731900.745 9 -44179413.013 9  19508682.473    19508687.048
  22780700.803   -37443769.16449 -29158462.27549  22780702.1594   22780704.3364
  19512778.054   -55400065.33749 -43148368.58749  19512777.5414   19512782.5634
 96  9 18 19  0 59.9950000  0  7 21  1 17  3 28 26 23
  19979466.835   -51562313.86549 -40136902.71949  19979466.4234   19979471.5904
  22083286.949   -20658090.98049 -16074507.01349  22083287.3784   22083294.0834
  19754860.694   -41797264.87249 -32551399.22149  19754860.2984   19754865.6674
  20446566.873   -39800882.87549 -30980416.94549  20446566.8424   20446571.6224
  19498031.654   -56787871.776 9 -44223026.833 9  19498031.474    19498036.275
  22779011.465   -37452642.08749 -29165376.30649  22779011.3554   22779015.5514
  19498214.941   -55476595.12649 -43208002.19849  19498214.4754   19498219.4224
 96  9 18 19  1 29.9950000  0  7 21  1 17  3 28 26 23
  19951970.666   -51706807.62549 -40249495.25249  19951970.2984   19951975.8164
  22043640.080   -20866438.66649 -16236855.80149  22043639.9554   22043646.4824
  19744067.495   -41853984.59549 -32595596.42249  19744066.9104   19744072.4624
  20417829.928   -39951896.83449 -31098090.15849  20417829.9204   20417834.6684
  19487477.462   -56843335.075 9 -44266245.016 9  19487477.181    19487481.850
  22777367.072   -37461280.65749 -29172107.69649  22777367.4284   22777373.0254
  19483695.929   -55552892.92649 -43267455.03249  19483695.4024   19483700.6154
 96  9 18 19  1 59.9950000  0  8 21  1 17  3 28 26 23 31
  19924520.753   -51851058.21749 -40361898.29649  19924520.3324   19924525.6784
  22004027.653   -21074605.38049 -16399063.58049  22004026.7834   22004033.4334
  19733330.191   -41910407.99749 -32639562.72449  19733329.7474   19733335.4184
  20389189.355   -40102404.29649 -31215368.69849  20389189.2004   20389194.1964
  19477026.429   -56898254.816 9 -44309039.648 9  19477026.307    19477031.196
  22775776.345   -37469646.95749 -29178626.86749  22775776.2784   22775780.7354
  19469228.034   -55628922.06449 -43326698.52049  19469227.5364   19469232.5074
  23282925.211    -7884072.06759  -5629114.67959  23282924.4424   23282929.7014
 96  9 18 19  2 29.9950000  0  8 21  1 17  3 28 26 23 31
  19897120.516   -51995048.03049 -40474098.13549  19897120.0684   19897125.0834
  21964454.544   -21282562.30249 -16561107.87549  21964454.0234   21964461.5204
  19722655.551   -41966504.69449 -32683274.45149  19722654.9094   19722660.7224
  20360651.085   -40252374.40049 -31332228.51649  20360650.7854   20360655.7614
  19466683.396   -56952608.786 9 -44351393.423 9  19466683.160    19466687.859
  22774238.399   -37477722.31849 -29184919.38549  22774238.5894   22774244.9724
  19454818.817   -55704642.76649 -43385701.67249  19454818.3684   19454823.2104
  23245263.993    -8081986.74549  -5783333.91849  23245263.5804   23245268.6964
 96  9 18 19  2 59.9950000  0  9 21  1 17  3 28 26  9 23 31
  19869773.972   -52138753.70249 -40586076.57149  19869773.5724   19869779.1154
  21924925.334   -21490290.39349 -16722973.84349  21924925.0294   21924931.3544
  19712047.390   -42022251.00949 -32726713.15749  19712046.7594   19712052.5554
  20332220.952   -40401776.13849 -31448645.45349  20332220.7314   20332225.6434
  19456453.449   -57006368.441 9 -44393284.097 9  19456453.210    19456457.840
  22772760.787   -37485492.23349 -29190973.82449  22772760.8074   22772764.1984
  23256127.469   -10382046.63459  -8055707.02459  23256127.2544   23256133.5364
  19440469.816   -55780047.53149 -43444458.63849  19440469.2354   19440474.3544
  23207653.931    -8279624.61349  -5937337.42449  23207652.5834   23207658.2824
 96  9 18 19  3 29.9950000  0  9 21  1 17  3 28 26  9 23 31
  19842489.520   -52282134.95849 -40697802.21749  19842489.3124   19842494.5414
  21885440.113   -21697785.79349 -16884658.51449  21885439.7154   21885446.3554
  19701510.633   -42077621.20549 -32769858.78749  19701510.0654   19701515.7124
  20303902.462   -40550590.12649 -31564604.40549  20303902.3684   20303907.1994
  19446339.765   -57059516.128 9 -44434697.912 9  19446339.634    19446344.110
  22771346.094   -37492925.78349 -29196766.21449  22771345.9694   22771345.7424
  23225249.045   -10544315.33649  -8182150.09849  23225249.1864   23225254.4014
  19426180.991   -55855135.49549 -43502968.75349  19426180.4454   19426185.5944
  23170103.719    -8476954.60249  -6091101.03449  23170103.4224   23170110.0604
 96  9 18 19  3 59.9950000  0  9 21  1 17  3 28 26  9 23 31
  19815265.900   -52425195.45549 -40809277.92349  19815265.5294   19815271.0944
  21845993.214   -21905080.32049 -17046186.68049  21845992.4414   21845999.2684
  19691044.136   -42132622.24549 -32812716.75849  19691043.4054   19691049.4094
  20275693.177   -40698830.45049 -31680116.35449  20275693.0794   20275697.6634
  19436339.231   -57112068.909 9 -44475648.163 9  19436339.039    19436343.806
  22769992.093   -37500037.67049 -29202307.98849  22769996.1284   22769990.7044
  23194424.950   -10706293.59249  -8308366.86649  23194425.0704   23194431.5704
  19411950.340   -55929917.66749 -43561240.58649  19411949.9064   19411955.1484
  23132613.055    -8673968.68549  -6244618.48049  23132613.7664   23132618.1764
 96  9 18 19  4 29.9950000  0  9 21  1 17  3 28 26  9 23 31
  19788107.511   -52567914.78249 -40920487.78149  19788107.1554   19788112.2374
  21806585.574   -22112166.85249 -17207552.76949  21806585.1654   21806592.4694
  19680649.833   -42187244.45249 -32855279.54149  19680649.4304   19680654.8914
  20247597.076   -40846475.92849 -31795164.78649  20247596.8794   20247601.9424
  19426453.994   -57164014.909 9 -44516125.590 9  19426453.864    19426458.894
  22768700.423   -37506829.91449 -29207600.62659  22768701.4974   22768704.8504
  23163656.273   -10867975.30049  -8434352.55649  23163656.9364   23163664.6584
  19397780.103   -56004382.61949 -43619265.23349  19397779.6674   19397784.6974
  23095185.785    -8870649.27649  -6397876.08149  23095185.7304   23095189.9084
 96  9 18 19  4 59.9950000  0  9 21  1 17  3 28 26  9 23 31
  19761014.791   -52710288.20849 -41031428.11149  19761014.3624   19761019.6344
  21767216.179   -22319055.35149 -17368764.52549  21767216.2904   21767223.1854
  19670326.673   -42241494.76249 -32897552.52849  19670326.0564   19670331.7244
  20219614.450   -40993525.73849 -31909749.06249  20219614.2424   20219619.3544
  19416684.141   -57215356.642 9 -44556132.161 9  19416683.953    19416688.921
  22767467.692   -37513305.33149 -29212646.38149  22767468.4664   22767475.2994
  23132948.023   -11029356.99349  -8560104.45449  23132947.4254   23132954.3284
  19383667.503   -56078545.82149 -43677054.75249  19383667.1494   19383671.9874
  23057821.006    -9067001.33349  -6550877.65549  23057821.2804   23057825.2354
 96  9 18 19  5 29.9950000  0  9 21  1 17  3 28 26  9 23 31
  19733989.301   -52852307.35649 -41142092.37949  19733988.9234   19733994.3484
  21727884.147   -22525746.30849 -17529822.37449  21727883.0994   21727890.4804
  19660076.305   -42295360.54649 -32939525.88449  19660075.7044   19660081.3914
  20191746.730   -41139970.75949 -32023862.07149  20191746.6274   20191751.9604
  19407029.206   -57266094.270 9 -44595668.002 9  19407028.890    19407033.768
  22766293.007   -37519470.56149 -29217450.47049  22766289.4484   22766301.5744
  23102298.072   -11190421.73049  -8685609.39049  23102298.8554   23102304.6794
  19369616.370   -56152385.20349 -43734591.94149  19369615.9404   19369620.8704
  23020520.893    -9263016.09549  -6703616.42249  23020519.9224   23020525.8564
 96  9 18 19  5 59.9950000  0  9 21  1 17  3 28 26  9 23 31
  19707027.196   -52993993.84749 -41252497.42449  19707027.0054   19707032.0924
  21688589.836   -22732237.78249 -17690724.77049  21688589.4674   21688596.6984
  19649898.420   -42348845.64249 -32981202.60049  19649897.9164   19649903.7894
  20163995.750   -41285804.14649 -32137498.47949  20163995.7324   20164000.9144
  19397488.255   -57316231.891 9 -44634736.306 9  19397488.112    19397492.845
  22765176.125   -37525349.72859 -29222031.76949  22765179.4654   22765177.3944
  23071707.105   -11351170.67349  -8810868.22549  23071706.9184   23071715.5044
  19355629.693   -56225885.73549 -43791865.08849  19355629.1844   19355634.3084
  22983283.502    -9458699.03649  -6856096.62349  22983283.5174   22983288.4514
 96  9 18 19  6 29.9950000  0  9 21  1 17  3 28 26  9 23 31
  19680129.372   -53135343.09549 -41362639.68749  19680128.9934   19680134.4124
  21649340.851   -22938493.71749 -17851443.63549  21649339.5744   21649347.0114
  19639793.137   -42401950.19949 -33022582.79249  19639792.3034   19639798.5024
  20136363.095   -41431014.79949 -32250649.64249  20136363.0344   20136368.1364
  19388063.785   -57365757.647 9 -44673327.837 9  19388063.566    19388068.399
  22764116.935   -37530920.62049 -29226372.72249  22764119.3314   22764122.2774
  23041182.522   -11511588.24249  -8935868.87549  23041182.3594   23041188.1234
  19341710.138   -56299033.62049 -43848863.45249  19341709.8874   19341714.7044
  22946107.704    -9654059.64849  -7008325.64949  22946106.5824   22946112.8944
 96  9 18 19  6 59.9950000  0  9 21  1 17  3 28 26  9 23 31
  19653294.792   -53276359.73849 -41472522.78049  19653294.3384   19653299.5444
  21610137.858   -23144506.11449 -18011972.73449  21610137.3914   21610144.4004
  19629759.637   -42454675.62849 -33063667.56749  19629759.1874   19629764.9574
  20108849.078   -41575602.25249 -32363315.18849  20108848.8624   20108854.0984
  19378754.526   -57414678.934 9 -44711448.355 9  19378754.275    19378759.075
  22763114.530   -37536184.30749 -29230474.26949  22763113.9774   22763121.6264
  23010718.806   -11671671.46649  -9060609.01449  23010718.8214   23010725.3464
  19327855.208   -56371842.34649 -43905597.53549  19327854.8374   19327859.7194
  22908992.234    -9849103.43249  -7160307.81649  22908992.2744   22908997.0354
 96  9 18 19  7 29.9950000  0  9 21  1 17  3 28 26  9 23 31
  19626522.398   -53417049.11049 -41582150.84749  19626522.1444   19626527.5344
  21570984.616   -23350259.46349 -18172299.98649  21570984.3354   21570990.8474
  19619799.012   -42507019.39149 -33104454.92249  19619798.0704   19619804.3324
  20081451.711   -41719575.95749 -32475502.48649  20081451.6944   20081456.8064
  19369558.708   -57463003.834 9 -44749104.149 9  19369558.481    19369563.329
  22762169.910   -37541147.16849 -29234341.49549  22762169.4554   22762171.8964
  22980317.169   -11831426.24949  -9185093.18649  22980318.2974   22980324.9804
  19314061.392   -56444328.71049 -43962080.41949  19314060.9704   19314065.9804
  22871938.133   -10043823.90549  -7312038.04749  22871939.0224   22871943.1914
 96  9 18 19  7 59.9950000  0  9 21  1 17  3 28 26  9 23 31
  19599807.460   -53557436.82649 -41691543.86349  19599807.1804   19599812.2714
  21531881.732   -23555743.38749 -18332417.30149  21531881.4054   21531888.2804
  19609905.264   -42559010.04449 -33144967.14049  19609904.8454   19609910.5624
  20054164.151   -41862973.51949 -32587240.84749  20054164.0974   20054168.8824
  19360472.659   -57510751.513 9 -44786310.164 9  19360472.535    19360477.331
  22761281.736   -37545814.85149 -29237978.68249  22761280.1144   22761287.9124
  22949977.247   -11990870.47349  -9309335.39149  22949976.7544   22949983.7024
  19300320.678   -56516537.32249 -44018346.88049  19300320.2154   19300325.1594
  22834941.320   -10238243.55149  -7463533.84549  22834941.4844   22834946.6504
 96  9 18 19  8 29.9950000  0  9 21  1 17  3 28 26  9 23 31
  19573151.631   -53697513.36349 -41800694.40949  19573151.3404   19573156.8954
  21492832.886   -23760947.25549 -18492316.37049  21492832.4054   21492839.6594
  19600078.824   -42610648.54749 -33185204.95749  19600078.4904   19600084.2854
  20026985.525   -42005798.07349 -32698532.70949  20026985.2154   20026990.4394
  19351495.978   -57557924.916 9 -44823068.694 9  19351495.727    19351500.432
  22760450.023   -37550182.26749 -29241381.86149  22760448.3464   22760458.9804
  22919697.241   -12149994.40249  -9433328.01349  22919696.6094   22919703.1794
  19286629.386   -56588485.41749 -44074410.33849  19286629.0084   19286633.9414
  22798003.099   -10432354.11249  -7614788.83849  22798002.9814   22798009.2614
 96  9 18 19  8 59.9940000  0  9 21  1 17  3 28 26  9 23 31
  19546558.968   -53837259.64349 -41909587.60549  19546558.5244   19546563.9774
  21453839.556   -23965858.54249 -18651987.44049  21453839.0674   21453846.3604
  19590325.966   -42661901.12249 -33225142.04949  19590325.4364   19590331.0384
  19999920.142   -42148026.31649 -32809359.91149  19999920.0984   19999925.4014
  19342631.385   -57604508.957 9 -44859367.979 9  19342631.135    19342635.780
  22759675.393   -37554254.70049 -29244555.22049  22759673.4994   22759679.4424
  22889484.780   -12308761.43949  -9557042.52949  22889484.7204   22889491.3984
  19272988.314   -56660169.67849 -44130268.20849  19272987.7374   19272992.8974
  22761131.330   -10626115.43749  -7765771.66749  22761130.8794   22761136.4254
 96  9 18 19  9 29.9940000  0  9 21  1 17  3 28 26  9 23 31
  19520026.182   -53976690.66149 -42018235.14349  19520025.7404   19520031.3074
  21414899.336   -24170490.94249 -18811441.23149  21414899.0584   21414905.2714
  19580643.460   -42712783.55049 -33264790.71449  19580642.9824   19580648.9464
  19972965.986   -42289670.92149 -32919732.33549  19972965.8274   19972971.2724
  19333878.459   -57650505.047 9 -44895209.123 9  19333878.247    19333883.049
  22758957.124   -37558026.14549 -29247494.06649  22758957.2494   22758964.1564
  22859338.597   -12467177.04249  -9680483.24149  22859338.7954   22859346.0644
  19259398.915   -56731581.95949 -44185914.15649  19259398.5194   19259403.4614
  22724324.357   -10819536.06949  -7916489.00849  22724324.2514   22724330.4924
 96  9 18 19  9 59.9940000  0  9 21  1 17  3 28 26  9 23 31
  19493555.055   -54115796.94749 -42126629.64449  19493554.7554   19493560.1384
  21376011.677   -24374847.99849 -18970680.44449  21376011.5534   21376018.2124
  19571031.874   -42763293.18349 -33304148.88749  19571031.2854   19571037.0664
  19946128.570   -42430703.29749 -33029627.69249  19946128.3194   19946133.1864
  19325239.211   -57695905.229 9 -44930585.918 9  19325238.964    19325243.577
  22758296.442   -37561494.73149 -29250196.91849  22758298.2554   22758302.8014
  22829264.145   -12625217.78249  -9803631.84049  22829264.2784   22829271.2294
  19245867.801   -56802688.83049 -44241322.11149  19245867.5384   19245872.2984
  22687585.972   -11012600.82649  -8066929.06049  22687585.8864   22687591.7164
 96  9 18 19 10 29.9940000  0  9 21  1 17  3 28 26  9 23 31
  19467149.015   -54254561.15249 -42234757.59449  19467148.7494   19467154.0724
  21337171.641   -24578952.75149 -19129723.05849  21337171.0764   21337178.2384
  19561496.843   -42813399.39549 -33343192.71449  19561496.2884   19561502.1574
  19919414.621   -42571084.76449 -33139015.85349  19919414.3164   19919419.4624
  19316714.520   -57740702.732 9 -44965493.095 9  19316714.250    19316718.905
  22757695.837   -37564657.42349 -29252661.31949  22757695.1474   22757704.6884
  22799263.308   -12782872.93449  -9926479.96449  22799262.2524   22799270.0004
  19232398.603   -56873469.87149 -44296476.17549  19232398.1734   19232403.0944
  22650916.802   -11205301.74349  -8217085.62749  22650915.5344   22650920.8334
 96  9 18 19 10 59.9940000  0  9 21  1 17  3 28 26  9 23 31
  19440808.651   -54392980.22049 -42342616.60049  19440808.1834   19440813.7764
  21298378.560   -24782812.90349 -19288575.08049  21298377.7704   21298385.0134
  19552040.015   -42863095.63549 -33381917.07249  19552039.6784   19552045.2804
  19892823.450   -42710823.44349 -33247903.13949  19892823.3314   19892828.0194
  19308304.617   -57784897.110 9 -44999930.306 9  19308304.369    19308309.101
  22757153.062   -37567511.64549 -29254885.43349  22757153.6894   22757153.9424
  22769334.478   -12940152.87249 -10049035.71549  22769334.4884   22769341.5224
  19218992.975   -56943916.62549 -44351369.75449  19218992.5074   19218997.6574
  22614314.815   -11397643.82349  -8366962.56149  22614314.4824   22614319.1704
